<?xml version='1.0' encoding='UTF-8'?><gpx version="1.1" creator="JPX - https://github.com/jenetics/jpx" xmlns="http://www.topografix.com/GPX/1/1"><trk><trkseg><trkpt lat="44.860935" lon="10.306395"><ele>36.166666666666664</ele><time>2026-03-29T09:02:35.029Z</time></trkpt><trkpt lat="44.8609583" lon="10.3062617"><ele>36.333333333333336</ele><time>2026-03-29T09:02:38.028Z</time></trkpt><trkpt lat="44.860985" lon="10.306115"><ele>36.5</ele><time>2026-03-29T09:02:40.029Z</time></trkpt><trkpt lat="44.8610167" lon="10.3059817"><ele>36.66666666666667</ele><time>2026-03-29T09:02:42.028Z</time></trkpt><trkpt lat="44.8610267" lon="10.305875"><ele>36.833333333333336</ele><time>2026-03-29T09:02:44.029Z</time></trkpt><trkpt lat="44.8610183" lon="10.305785"><ele>37.0</ele><time>2026-03-29T09:02:46.029Z</time></trkpt><trkpt lat="44.8609583" lon="10.3056867"><ele>36.800000000000004</ele><time>2026-03-29T09:02:48.029Z</time></trkpt><trkpt lat="44.8609017" lon="10.30563"><ele>36.6</ele><time>2026-03-29T09:02:49.028Z</time></trkpt><trkpt lat="44.86083" lon="10.3055583"><ele>36.400000000000006</ele><time>2026-03-29T09:02:50.029Z</time></trkpt><trkpt lat="44.860735" lon="10.305485"><ele>36.2</ele><time>2026-03-29T09:02:51.028Z</time></trkpt><trkpt lat="44.8606233" lon="10.3054017"><ele>36.0</ele><time>2026-03-29T09:02:52.029Z</time></trkpt><trkpt lat="44.8605067" lon="10.305305"><ele>36.0</ele><time>2026-03-29T09:02:53.028Z</time></trkpt><trkpt lat="44.8603833" lon="10.30521"><ele>36.0</ele><time>2026-03-29T09:02:54.028Z</time></trkpt><trkpt lat="44.8602667" lon="10.3051167"><ele>36.0</ele><time>2026-03-29T09:02:55.029Z</time></trkpt><trkpt lat="44.86016" lon="10.305025"><ele>36.0</ele><time>2026-03-29T09:02:56.029Z</time></trkpt><trkpt lat="44.860055" lon="10.3049533"><ele>36.0</ele><time>2026-03-29T09:02:57.029Z</time></trkpt><trkpt lat="44.859945" lon="10.30488"><ele>36.0</ele><time>2026-03-29T09:02:58.029Z</time></trkpt><trkpt lat="44.859855" lon="10.3048067"><ele>36.0</ele><time>2026-03-29T09:02:59.029Z</time></trkpt><trkpt lat="44.8597733" lon="10.3047383"><ele>36.0</ele><time>2026-03-29T09:03:00.028Z</time></trkpt><trkpt lat="44.8596983" lon="10.3046717"><ele>36.0</ele><time>2026-03-29T09:03:01.029Z</time></trkpt><trkpt lat="44.8596317" lon="10.304615"><ele>36.0</ele><time>2026-03-29T09:03:02.028Z</time></trkpt><trkpt lat="44.8595633" lon="10.3045567"><ele>36.0</ele><time>2026-03-29T09:03:03.029Z</time></trkpt><trkpt lat="44.8595" lon="10.3045033"><ele>36.0</ele><time>2026-03-29T09:03:04.028Z</time></trkpt><trkpt lat="44.8594317" lon="10.304455"><ele>36.0</ele><time>2026-03-29T09:03:05.029Z</time></trkpt><trkpt lat="44.8593667" lon="10.3044183"><ele>36.0</ele><time>2026-03-29T09:03:06.028Z</time></trkpt><trkpt lat="44.859305" lon="10.3043867"><ele>36.0</ele><time>2026-03-29T09:03:07.028Z</time></trkpt><trkpt lat="44.8591883" lon="10.3043083"><ele>36.333333333333336</ele><time>2026-03-29T09:03:09.029Z</time></trkpt><trkpt lat="44.8591117" lon="10.3042767"><ele>36.666666666666664</ele><time>2026-03-29T09:03:10.029Z</time></trkpt><trkpt lat="44.8590383" lon="10.304225"><ele>37.0</ele><time>2026-03-29T09:03:11.028Z</time></trkpt><trkpt lat="44.8589583" lon="10.304175"><ele>37.33333333333333</ele><time>2026-03-29T09:03:12.028Z</time></trkpt><trkpt lat="44.8588783" lon="10.3041233"><ele>37.666666666666664</ele><time>2026-03-29T09:03:13.029Z</time></trkpt><trkpt lat="44.858805" lon="10.3040783"><ele>38.0</ele><time>2026-03-29T09:03:14.029Z</time></trkpt><trkpt lat="44.8587417" lon="10.3040367"><ele>38.0</ele><time>2026-03-29T09:03:15.029Z</time></trkpt><trkpt lat="44.8586783" lon="10.3040083"><ele>38.0</ele><time>2026-03-29T09:03:16.029Z</time></trkpt><trkpt lat="44.8585817" lon="10.304005"><ele>38.0</ele><time>2026-03-29T09:03:18.028Z</time></trkpt><trkpt lat="44.85849" lon="10.304085"><ele>38.0</ele><time>2026-03-29T09:03:20.028Z</time></trkpt><trkpt lat="44.8584267" lon="10.3042283"><ele>38.0</ele><time>2026-03-29T09:03:22.028Z</time></trkpt><trkpt lat="44.8584033" lon="10.3043433"><ele>37.8</ele><time>2026-03-29T09:03:23.029Z</time></trkpt><trkpt lat="44.8583967" lon="10.30449"><ele>37.599999999999994</ele><time>2026-03-29T09:03:24.029Z</time></trkpt><trkpt lat="44.85837" lon="10.30463"><ele>37.400000000000006</ele><time>2026-03-29T09:03:25.029Z</time></trkpt><trkpt lat="44.8583383" lon="10.304765"><ele>37.2</ele><time>2026-03-29T09:03:26.029Z</time></trkpt><trkpt lat="44.8583083" lon="10.3049133"><ele>37.0</ele><time>2026-03-29T09:03:27.029Z</time></trkpt><trkpt lat="44.8582717" lon="10.305065"><ele>37.0</ele><time>2026-03-29T09:03:28.028Z</time></trkpt><trkpt lat="44.85824" lon="10.30521"><ele>37.0</ele><time>2026-03-29T09:03:29.029Z</time></trkpt><trkpt lat="44.85822" lon="10.30535"><ele>37.0</ele><time>2026-03-29T09:03:30.029Z</time></trkpt><trkpt lat="44.8581967" lon="10.3054717"><ele>37.0</ele><time>2026-03-29T09:03:31.028Z</time></trkpt><trkpt lat="44.8581783" lon="10.3055883"><ele>37.0</ele><time>2026-03-29T09:03:32.028Z</time></trkpt><trkpt lat="44.8581533" lon="10.3056867"><ele>37.0</ele><time>2026-03-29T09:03:33.029Z</time></trkpt><trkpt lat="44.85813" lon="10.305775"><ele>37.0</ele><time>2026-03-29T09:03:34.029Z</time></trkpt><trkpt lat="44.8580567" lon="10.30592"><ele>37.0</ele><time>2026-03-29T09:03:36.029Z</time></trkpt><trkpt lat="44.85794" lon="10.305995"><ele>37.0</ele><time>2026-03-29T09:03:38.028Z</time></trkpt><trkpt lat="44.8578633" lon="10.3059983"><ele>37.0</ele><time>2026-03-29T09:03:39.029Z</time></trkpt><trkpt lat="44.8577817" lon="10.3059883"><ele>37.0</ele><time>2026-03-29T09:03:40.029Z</time></trkpt><trkpt lat="44.8576917" lon="10.3059583"><ele>37.0</ele><time>2026-03-29T09:03:41.029Z</time></trkpt><trkpt lat="44.8575933" lon="10.3059183"><ele>37.0</ele><time>2026-03-29T09:03:42.028Z</time></trkpt><trkpt lat="44.85749" lon="10.3058833"><ele>37.0</ele><time>2026-03-29T09:03:43.029Z</time></trkpt><trkpt lat="44.8573717" lon="10.3058383"><ele>37.0</ele><time>2026-03-29T09:03:44.028Z</time></trkpt><trkpt lat="44.8572483" lon="10.3058"><ele>37.0</ele><time>2026-03-29T09:03:45.028Z</time></trkpt><trkpt lat="44.8571167" lon="10.3057583"><ele>37.0</ele><time>2026-03-29T09:03:46.029Z</time></trkpt><trkpt lat="44.8569867" lon="10.3057067"><ele>37.0</ele><time>2026-03-29T09:03:47.029Z</time></trkpt><trkpt lat="44.8568617" lon="10.3056467"><ele>37.0</ele><time>2026-03-29T09:03:48.029Z</time></trkpt><trkpt lat="44.8567233" lon="10.3055983"><ele>37.0</ele><time>2026-03-29T09:03:49.029Z</time></trkpt><trkpt lat="44.8566" lon="10.3055317"><ele>37.0</ele><time>2026-03-29T09:03:50.028Z</time></trkpt><trkpt lat="44.8564767" lon="10.3054767"><ele>37.0</ele><time>2026-03-29T09:03:51.028Z</time></trkpt><trkpt lat="44.8563683" lon="10.3054417"><ele>37.0</ele><time>2026-03-29T09:03:52.029Z</time></trkpt><trkpt lat="44.8562533" lon="10.3053933"><ele>37.0</ele><time>2026-03-29T09:03:53.028Z</time></trkpt><trkpt lat="44.8561333" lon="10.305355"><ele>37.0</ele><time>2026-03-29T09:03:54.029Z</time></trkpt><trkpt lat="44.85602" lon="10.3053133"><ele>37.0</ele><time>2026-03-29T09:03:55.028Z</time></trkpt><trkpt lat="44.8559183" lon="10.3052683"><ele>37.0</ele><time>2026-03-29T09:03:56.028Z</time></trkpt><trkpt lat="44.85583" lon="10.3052283"><ele>37.0</ele><time>2026-03-29T09:03:57.029Z</time></trkpt><trkpt lat="44.8557533" lon="10.3051733"><ele>37.0</ele><time>2026-03-29T09:03:58.029Z</time></trkpt><trkpt lat="44.8556767" lon="10.3051333"><ele>37.0</ele><time>2026-03-29T09:03:59.028Z</time></trkpt><trkpt lat="44.8555983" lon="10.3051167"><ele>37.0</ele><time>2026-03-29T09:04:00.029Z</time></trkpt><trkpt lat="44.8555017" lon="10.3050933"><ele>37.0</ele><time>2026-03-29T09:04:01.028Z</time></trkpt><trkpt lat="44.8553967" lon="10.3050483"><ele>37.0</ele><time>2026-03-29T09:04:02.029Z</time></trkpt><trkpt lat="44.8552833" lon="10.304995"><ele>37.0</ele><time>2026-03-29T09:04:03.028Z</time></trkpt><trkpt lat="44.8551583" lon="10.30494"><ele>37.0</ele><time>2026-03-29T09:04:04.029Z</time></trkpt><trkpt lat="44.8550217" lon="10.3048767"><ele>37.0</ele><time>2026-03-29T09:04:05.029Z</time></trkpt><trkpt lat="44.85488" lon="10.3048083"><ele>37.0</ele><time>2026-03-29T09:04:06.029Z</time></trkpt><trkpt lat="44.8547383" lon="10.3047367"><ele>37.0</ele><time>2026-03-29T09:04:07.029Z</time></trkpt><trkpt lat="44.8546067" lon="10.304675"><ele>37.0</ele><time>2026-03-29T09:04:08.029Z</time></trkpt><trkpt lat="44.85447" lon="10.3046233"><ele>37.0</ele><time>2026-03-29T09:04:09.029Z</time></trkpt><trkpt lat="44.8543483" lon="10.3045633"><ele>37.0</ele><time>2026-03-29T09:04:10.029Z</time></trkpt><trkpt lat="44.8542283" lon="10.3044933"><ele>37.0</ele><time>2026-03-29T09:04:11.029Z</time></trkpt><trkpt lat="44.8541017" lon="10.304425"><ele>37.0</ele><time>2026-03-29T09:04:12.028Z</time></trkpt><trkpt lat="44.85398" lon="10.304355"><ele>37.0</ele><time>2026-03-29T09:04:13.029Z</time></trkpt><trkpt lat="44.85386" lon="10.3042917"><ele>37.0</ele><time>2026-03-29T09:04:14.028Z</time></trkpt><trkpt lat="44.8537483" lon="10.3042367"><ele>37.0</ele><time>2026-03-29T09:04:15.029Z</time></trkpt><trkpt lat="44.8536433" lon="10.3041833"><ele>37.0</ele><time>2026-03-29T09:04:16.029Z</time></trkpt><trkpt lat="44.8535467" lon="10.30414"><ele>37.0</ele><time>2026-03-29T09:04:17.029Z</time></trkpt><trkpt lat="44.8534633" lon="10.3040967"><ele>37.0</ele><time>2026-03-29T09:04:18.029Z</time></trkpt><trkpt lat="44.853395" lon="10.3040517"><ele>37.0</ele><time>2026-03-29T09:04:19.029Z</time></trkpt><trkpt lat="44.853285" lon="10.3039833"><ele>37.0</ele><time>2026-03-29T09:04:21.029Z</time></trkpt><trkpt lat="44.8532317" lon="10.30386"><ele>37.0</ele><time>2026-03-29T09:04:23.028Z</time></trkpt><trkpt lat="44.85324" lon="10.3036917"><ele>37.0</ele><time>2026-03-29T09:04:25.029Z</time></trkpt><trkpt lat="44.853265" lon="10.3036083"><ele>37.0</ele><time>2026-03-29T09:04:26.028Z</time></trkpt><trkpt lat="44.853295" lon="10.3035283"><ele>37.0</ele><time>2026-03-29T09:04:27.029Z</time></trkpt><trkpt lat="44.8533267" lon="10.30344"><ele>37.0</ele><time>2026-03-29T09:04:28.029Z</time></trkpt><trkpt lat="44.8533567" lon="10.3033433"><ele>37.0</ele><time>2026-03-29T09:04:29.029Z</time></trkpt><trkpt lat="44.8533817" lon="10.3032417"><ele>37.0</ele><time>2026-03-29T09:04:30.029Z</time></trkpt><trkpt lat="44.85339" lon="10.3031333"><ele>37.0</ele><time>2026-03-29T09:04:31.028Z</time></trkpt><trkpt lat="44.8534" lon="10.3030117"><ele>37.0</ele><time>2026-03-29T09:04:32.029Z</time></trkpt><trkpt lat="44.8533967" lon="10.3028733"><ele>37.0</ele><time>2026-03-29T09:04:33.028Z</time></trkpt><trkpt lat="44.853405" lon="10.30272"><ele>37.0</ele><time>2026-03-29T09:04:34.029Z</time></trkpt><trkpt lat="44.8534117" lon="10.3025583"><ele>37.0</ele><time>2026-03-29T09:04:35.029Z</time></trkpt><trkpt lat="44.8534133" lon="10.3023833"><ele>37.0</ele><time>2026-03-29T09:04:36.029Z</time></trkpt><trkpt lat="44.8534133" lon="10.3021983"><ele>37.0</ele><time>2026-03-29T09:04:37.029Z</time></trkpt><trkpt lat="44.8534217" lon="10.3020033"><ele>37.0</ele><time>2026-03-29T09:04:38.028Z</time></trkpt><trkpt lat="44.8534367" lon="10.3017867"><ele>37.0</ele><time>2026-03-29T09:04:39.028Z</time></trkpt><trkpt lat="44.8534567" lon="10.3015517"><ele>37.0</ele><time>2026-03-29T09:04:40.029Z</time></trkpt><trkpt lat="44.8534767" lon="10.3013267"><ele>37.0</ele><time>2026-03-29T09:04:41.029Z</time></trkpt><trkpt lat="44.8534867" lon="10.3011117"><ele>37.0</ele><time>2026-03-29T09:04:42.029Z</time></trkpt><trkpt lat="44.8534933" lon="10.3009133"><ele>37.0</ele><time>2026-03-29T09:04:43.029Z</time></trkpt><trkpt lat="44.8534983" lon="10.3007217"><ele>37.0</ele><time>2026-03-29T09:04:44.029Z</time></trkpt><trkpt lat="44.8535033" lon="10.30054"><ele>37.0</ele><time>2026-03-29T09:04:45.028Z</time></trkpt><trkpt lat="44.8535167" lon="10.30037"><ele>37.0</ele><time>2026-03-29T09:04:46.029Z</time></trkpt><trkpt lat="44.8535383" lon="10.3002083"><ele>37.0</ele><time>2026-03-29T09:04:47.029Z</time></trkpt><trkpt lat="44.8535717" lon="10.300045"><ele>37.0</ele><time>2026-03-29T09:04:48.029Z</time></trkpt><trkpt lat="44.8536117" lon="10.2998783"><ele>37.0</ele><time>2026-03-29T09:04:49.029Z</time></trkpt><trkpt lat="44.853645" lon="10.299715"><ele>37.2</ele><time>2026-03-29T09:04:50.029Z</time></trkpt><trkpt lat="44.8536683" lon="10.2995717"><ele>37.400000000000006</ele><time>2026-03-29T09:04:51.028Z</time></trkpt><trkpt lat="44.8536983" lon="10.29944"><ele>37.599999999999994</ele><time>2026-03-29T09:04:52.028Z</time></trkpt><trkpt lat="44.8537217" lon="10.2993083"><ele>37.8</ele><time>2026-03-29T09:04:53.028Z</time></trkpt><trkpt lat="44.8537517" lon="10.2991733"><ele>38.0</ele><time>2026-03-29T09:04:54.028Z</time></trkpt><trkpt lat="44.853785" lon="10.2990167"><ele>37.666666666666664</ele><time>2026-03-29T09:04:55.029Z</time></trkpt><trkpt lat="44.853825" lon="10.2988233"><ele>37.333333333333336</ele><time>2026-03-29T09:04:56.028Z</time></trkpt><trkpt lat="44.85387" lon="10.2986033"><ele>37.0</ele><time>2026-03-29T09:04:57.028Z</time></trkpt><trkpt lat="44.85392" lon="10.29836"><ele>37.0</ele><time>2026-03-29T09:04:58.029Z</time></trkpt><trkpt lat="44.85398" lon="10.2980983"><ele>37.0</ele><time>2026-03-29T09:04:59.029Z</time></trkpt><trkpt lat="44.8540483" lon="10.2978233"><ele>37.0</ele><time>2026-03-29T09:05:00.029Z</time></trkpt><trkpt lat="44.8541183" lon="10.2975383"><ele>37.0</ele><time>2026-03-29T09:05:01.028Z</time></trkpt><trkpt lat="44.8541867" lon="10.2972417"><ele>37.0</ele><time>2026-03-29T09:05:02.028Z</time></trkpt><trkpt lat="44.8542533" lon="10.2969517"><ele>37.0</ele><time>2026-03-29T09:05:03.029Z</time></trkpt><trkpt lat="44.8543183" lon="10.2966717"><ele>36.66666666666667</ele><time>2026-03-29T09:05:04.029Z</time></trkpt><trkpt lat="44.85438" lon="10.2964033"><ele>36.333333333333336</ele><time>2026-03-29T09:05:05.029Z</time></trkpt><trkpt lat="44.8544367" lon="10.29615"><ele>36.0</ele><time>2026-03-29T09:05:06.029Z</time></trkpt><trkpt lat="44.8544917" lon="10.2959183"><ele>36.0</ele><time>2026-03-29T09:05:07.028Z</time></trkpt><trkpt lat="44.8545417" lon="10.29569"><ele>36.0</ele><time>2026-03-29T09:05:08.028Z</time></trkpt><trkpt lat="44.8545933" lon="10.2954783"><ele>36.0</ele><time>2026-03-29T09:05:09.029Z</time></trkpt><trkpt lat="44.8546417" lon="10.295275"><ele>36.25</ele><time>2026-03-29T09:05:10.028Z</time></trkpt><trkpt lat="44.85469" lon="10.2950817"><ele>36.5</ele><time>2026-03-29T09:05:11.029Z</time></trkpt><trkpt lat="44.8547333" lon="10.2949017"><ele>36.75</ele><time>2026-03-29T09:05:12.029Z</time></trkpt><trkpt lat="44.8547767" lon="10.294725"><ele>37.0</ele><time>2026-03-29T09:05:13.029Z</time></trkpt><trkpt lat="44.854815" lon="10.2945633"><ele>37.0</ele><time>2026-03-29T09:05:14.028Z</time></trkpt><trkpt lat="44.85485" lon="10.2944"><ele>37.0</ele><time>2026-03-29T09:05:15.028Z</time></trkpt><trkpt lat="44.85488" lon="10.2942433"><ele>37.0</ele><time>2026-03-29T09:05:16.029Z</time></trkpt><trkpt lat="44.8549067" lon="10.294105"><ele>37.0</ele><time>2026-03-29T09:05:17.029Z</time></trkpt><trkpt lat="44.8549283" lon="10.2939667"><ele>37.0</ele><time>2026-03-29T09:05:18.029Z</time></trkpt><trkpt lat="44.8549367" lon="10.293835"><ele>37.0</ele><time>2026-03-29T09:05:19.028Z</time></trkpt><trkpt lat="44.854935" lon="10.293705"><ele>37.0</ele><time>2026-03-29T09:05:20.029Z</time></trkpt><trkpt lat="44.8549333" lon="10.2935717"><ele>37.0</ele><time>2026-03-29T09:05:21.029Z</time></trkpt><trkpt lat="44.8549333" lon="10.2934483"><ele>37.0</ele><time>2026-03-29T09:05:22.029Z</time></trkpt><trkpt lat="44.8549417" lon="10.29333"><ele>37.0</ele><time>2026-03-29T09:05:23.028Z</time></trkpt><trkpt lat="44.854965" lon="10.293215"><ele>37.0</ele><time>2026-03-29T09:05:24.028Z</time></trkpt><trkpt lat="44.8550017" lon="10.2931017"><ele>37.2</ele><time>2026-03-29T09:05:25.029Z</time></trkpt><trkpt lat="44.8550433" lon="10.2929783"><ele>37.400000000000006</ele><time>2026-03-29T09:05:26.029Z</time></trkpt><trkpt lat="44.8550883" lon="10.2928467"><ele>37.599999999999994</ele><time>2026-03-29T09:05:27.029Z</time></trkpt><trkpt lat="44.8551167" lon="10.2927217"><ele>37.8</ele><time>2026-03-29T09:05:28.029Z</time></trkpt><trkpt lat="44.8551383" lon="10.2925983"><ele>38.0</ele><time>2026-03-29T09:05:29.029Z</time></trkpt><trkpt lat="44.85515" lon="10.2924767"><ele>38.0</ele><time>2026-03-29T09:05:30.029Z</time></trkpt><trkpt lat="44.8551583" lon="10.2923317"><ele>38.0</ele><time>2026-03-29T09:05:31.029Z</time></trkpt><trkpt lat="44.8551683" lon="10.29216"><ele>38.0</ele><time>2026-03-29T09:05:32.029Z</time></trkpt><trkpt lat="44.8551833" lon="10.2919717"><ele>38.0</ele><time>2026-03-29T09:05:33.029Z</time></trkpt><trkpt lat="44.8552017" lon="10.2917733"><ele>38.0</ele><time>2026-03-29T09:05:34.029Z</time></trkpt><trkpt lat="44.8552217" lon="10.2915783"><ele>38.0</ele><time>2026-03-29T09:05:35.029Z</time></trkpt><trkpt lat="44.855245" lon="10.2913867"><ele>38.0</ele><time>2026-03-29T09:05:36.028Z</time></trkpt><trkpt lat="44.8552683" lon="10.291215"><ele>38.0</ele><time>2026-03-29T09:05:37.029Z</time></trkpt><trkpt lat="44.85529" lon="10.2910533"><ele>38.0</ele><time>2026-03-29T09:05:38.029Z</time></trkpt><trkpt lat="44.855315" lon="10.2909"><ele>38.0</ele><time>2026-03-29T09:05:39.029Z</time></trkpt><trkpt lat="44.85534" lon="10.290755"><ele>38.0</ele><time>2026-03-29T09:05:40.028Z</time></trkpt><trkpt lat="44.8553717" lon="10.2906133"><ele>38.0</ele><time>2026-03-29T09:05:41.028Z</time></trkpt><trkpt lat="44.855415" lon="10.2904767"><ele>38.0</ele><time>2026-03-29T09:05:42.029Z</time></trkpt><trkpt lat="44.8554683" lon="10.29035"><ele>38.25</ele><time>2026-03-29T09:05:43.029Z</time></trkpt><trkpt lat="44.8555217" lon="10.2902267"><ele>38.5</ele><time>2026-03-29T09:05:44.029Z</time></trkpt><trkpt lat="44.8555633" lon="10.2900817"><ele>38.75</ele><time>2026-03-29T09:05:45.029Z</time></trkpt><trkpt lat="44.8556033" lon="10.2898967"><ele>39.0</ele><time>2026-03-29T09:05:46.029Z</time></trkpt><trkpt lat="44.8556483" lon="10.2896683"><ele>39.333333333333336</ele><time>2026-03-29T09:05:47.029Z</time></trkpt><trkpt lat="44.8557033" lon="10.2893983"><ele>39.66666666666667</ele><time>2026-03-29T09:05:48.029Z</time></trkpt><trkpt lat="44.8557633" lon="10.289105"><ele>40.0</ele><time>2026-03-29T09:05:49.028Z</time></trkpt><trkpt lat="44.8558233" lon="10.288825"><ele>39.0</ele><time>2026-03-29T09:05:50.028Z</time></trkpt><trkpt lat="44.8558783" lon="10.288565"><ele>38.0</ele><time>2026-03-29T09:05:51.028Z</time></trkpt><trkpt lat="44.8559283" lon="10.2883217"><ele>37.0</ele><time>2026-03-29T09:05:52.029Z</time></trkpt><trkpt lat="44.855975" lon="10.2880817"><ele>36.66666666666667</ele><time>2026-03-29T09:05:53.029Z</time></trkpt><trkpt lat="44.8560183" lon="10.2878567"><ele>36.333333333333336</ele><time>2026-03-29T09:05:54.028Z</time></trkpt><trkpt lat="44.8560667" lon="10.28764"><ele>36.0</ele><time>2026-03-29T09:05:55.029Z</time></trkpt><trkpt lat="44.8561083" lon="10.2874283"><ele>36.25</ele><time>2026-03-29T09:05:56.029Z</time></trkpt><trkpt lat="44.85615" lon="10.28722"><ele>36.5</ele><time>2026-03-29T09:05:57.029Z</time></trkpt><trkpt lat="44.85619" lon="10.2870167"><ele>36.75</ele><time>2026-03-29T09:05:58.029Z</time></trkpt><trkpt lat="44.8562317" lon="10.2868217"><ele>37.0</ele><time>2026-03-29T09:05:59.029Z</time></trkpt><trkpt lat="44.8562683" lon="10.28664"><ele>37.0</ele><time>2026-03-29T09:06:00.029Z</time></trkpt><trkpt lat="44.856305" lon="10.286475"><ele>37.0</ele><time>2026-03-29T09:06:01.028Z</time></trkpt><trkpt lat="44.8563367" lon="10.28631"><ele>37.0</ele><time>2026-03-29T09:06:02.028Z</time></trkpt><trkpt lat="44.85637" lon="10.286155"><ele>37.0</ele><time>2026-03-29T09:06:03.029Z</time></trkpt><trkpt lat="44.856395" lon="10.2860067"><ele>37.0</ele><time>2026-03-29T09:06:04.03Z</time></trkpt><trkpt lat="44.85642" lon="10.2858667"><ele>37.0</ele><time>2026-03-29T09:06:05.03Z</time></trkpt><trkpt lat="44.8564417" lon="10.2857383"><ele>37.0</ele><time>2026-03-29T09:06:06.03Z</time></trkpt><trkpt lat="44.8564683" lon="10.2856417"><ele>37.0</ele><time>2026-03-29T09:06:07.029Z</time></trkpt><trkpt lat="44.856485" lon="10.285525"><ele>37.0</ele><time>2026-03-29T09:06:08.03Z</time></trkpt><trkpt lat="44.8564917" lon="10.2853717"><ele>36.800000000000004</ele><time>2026-03-29T09:06:10.029Z</time></trkpt><trkpt lat="44.8564383" lon="10.2852783"><ele>36.6</ele><time>2026-03-29T09:06:12.029Z</time></trkpt><trkpt lat="44.8563217" lon="10.2852433"><ele>36.400000000000006</ele><time>2026-03-29T09:06:14.03Z</time></trkpt><trkpt lat="44.8562367" lon="10.2852133"><ele>36.2</ele><time>2026-03-29T09:06:15.03Z</time></trkpt><trkpt lat="44.8561383" lon="10.2851783"><ele>36.0</ele><time>2026-03-29T09:06:16.03Z</time></trkpt><trkpt lat="44.85603" lon="10.2851283"><ele>35.75</ele><time>2026-03-29T09:06:17.029Z</time></trkpt><trkpt lat="44.8559017" lon="10.28507"><ele>35.5</ele><time>2026-03-29T09:06:18.03Z</time></trkpt><trkpt lat="44.855755" lon="10.28502"><ele>35.25</ele><time>2026-03-29T09:06:19.03Z</time></trkpt><trkpt lat="44.85561" lon="10.2849783"><ele>35.0</ele><time>2026-03-29T09:06:20.029Z</time></trkpt><trkpt lat="44.85546" lon="10.28495"><ele>35.0</ele><time>2026-03-29T09:06:21.03Z</time></trkpt><trkpt lat="44.8552933" lon="10.2849417"><ele>35.0</ele><time>2026-03-29T09:06:22.03Z</time></trkpt><trkpt lat="44.8551183" lon="10.28495"><ele>35.0</ele><time>2026-03-29T09:06:23.03Z</time></trkpt><trkpt lat="44.85495" lon="10.2849683"><ele>35.666666666666664</ele><time>2026-03-29T09:06:24.029Z</time></trkpt><trkpt lat="44.8547883" lon="10.2849933"><ele>36.333333333333336</ele><time>2026-03-29T09:06:25.03Z</time></trkpt><trkpt lat="44.8546267" lon="10.28501"><ele>37.0</ele><time>2026-03-29T09:06:26.03Z</time></trkpt><trkpt lat="44.85447" lon="10.2850133"><ele>37.0</ele><time>2026-03-29T09:06:27.03Z</time></trkpt><trkpt lat="44.8543183" lon="10.2849967"><ele>37.0</ele><time>2026-03-29T09:06:28.03Z</time></trkpt><trkpt lat="44.8541567" lon="10.2849583"><ele>37.0</ele><time>2026-03-29T09:06:29.03Z</time></trkpt><trkpt lat="44.8539867" lon="10.2848983"><ele>37.333333333333336</ele><time>2026-03-29T09:06:30.03Z</time></trkpt><trkpt lat="44.8538233" lon="10.284825"><ele>37.666666666666664</ele><time>2026-03-29T09:06:31.03Z</time></trkpt><trkpt lat="44.853665" lon="10.2847333"><ele>38.0</ele><time>2026-03-29T09:06:32.03Z</time></trkpt><trkpt lat="44.8534983" lon="10.2846483"><ele>38.666666666666664</ele><time>2026-03-29T09:06:33.029Z</time></trkpt><trkpt lat="44.8533367" lon="10.2845667"><ele>39.333333333333336</ele><time>2026-03-29T09:06:34.029Z</time></trkpt><trkpt lat="44.85318" lon="10.28449"><ele>40.0</ele><time>2026-03-29T09:06:35.03Z</time></trkpt><trkpt lat="44.853025" lon="10.2844217"><ele>40.0</ele><time>2026-03-29T09:06:36.03Z</time></trkpt><trkpt lat="44.85287" lon="10.284345"><ele>40.0</ele><time>2026-03-29T09:06:37.029Z</time></trkpt><trkpt lat="44.8527183" lon="10.284275"><ele>40.0</ele><time>2026-03-29T09:06:38.03Z</time></trkpt><trkpt lat="44.8525683" lon="10.2842"><ele>39.5</ele><time>2026-03-29T09:06:39.03Z</time></trkpt><trkpt lat="44.8524367" lon="10.284105"><ele>39.0</ele><time>2026-03-29T09:06:40.03Z</time></trkpt><trkpt lat="44.8523117" lon="10.2840117"><ele>38.5</ele><time>2026-03-29T09:06:41.029Z</time></trkpt><trkpt lat="44.8521917" lon="10.2838917"><ele>38.0</ele><time>2026-03-29T09:06:42.03Z</time></trkpt><trkpt lat="44.8520683" lon="10.2837533"><ele>38.0</ele><time>2026-03-29T09:06:43.03Z</time></trkpt><trkpt lat="44.8519533" lon="10.2836"><ele>38.0</ele><time>2026-03-29T09:06:44.029Z</time></trkpt><trkpt lat="44.8518267" lon="10.28345"><ele>38.0</ele><time>2026-03-29T09:06:45.029Z</time></trkpt><trkpt lat="44.8517083" lon="10.2833067"><ele>38.33333333333333</ele><time>2026-03-29T09:06:46.03Z</time></trkpt><trkpt lat="44.8515917" lon="10.283195"><ele>38.666666666666664</ele><time>2026-03-29T09:06:47.029Z</time></trkpt><trkpt lat="44.851455" lon="10.2830883"><ele>39.0</ele><time>2026-03-29T09:06:48.03Z</time></trkpt><trkpt lat="44.8512983" lon="10.283005"><ele>39.0</ele><time>2026-03-29T09:06:49.03Z</time></trkpt><trkpt lat="44.8511167" lon="10.2829317"><ele>39.0</ele><time>2026-03-29T09:06:50.029Z</time></trkpt><trkpt lat="44.8509183" lon="10.2828767"><ele>39.0</ele><time>2026-03-29T09:06:51.03Z</time></trkpt><trkpt lat="44.8507117" lon="10.2828133"><ele>38.0</ele><time>2026-03-29T09:06:52.03Z</time></trkpt><trkpt lat="44.850505" lon="10.2827567"><ele>37.0</ele><time>2026-03-29T09:06:53.029Z</time></trkpt><trkpt lat="44.8503117" lon="10.282695"><ele>36.0</ele><time>2026-03-29T09:06:54.03Z</time></trkpt><trkpt lat="44.85013" lon="10.2826433"><ele>37.0</ele><time>2026-03-29T09:06:55.029Z</time></trkpt><trkpt lat="44.84997" lon="10.282585"><ele>38.0</ele><time>2026-03-29T09:06:56.029Z</time></trkpt><trkpt lat="44.8498117" lon="10.28253"><ele>39.0</ele><time>2026-03-29T09:06:57.03Z</time></trkpt><trkpt lat="44.84966" lon="10.2824833"><ele>39.0</ele><time>2026-03-29T09:06:58.029Z</time></trkpt><trkpt lat="44.8495283" lon="10.2824317"><ele>39.0</ele><time>2026-03-29T09:06:59.029Z</time></trkpt><trkpt lat="44.8493917" lon="10.2823883"><ele>39.0</ele><time>2026-03-29T09:07:00.03Z</time></trkpt><trkpt lat="44.84927" lon="10.28235"><ele>39.0</ele><time>2026-03-29T09:07:01.03Z</time></trkpt><trkpt lat="44.8491567" lon="10.2823083"><ele>39.0</ele><time>2026-03-29T09:07:02.03Z</time></trkpt><trkpt lat="44.849055" lon="10.28227"><ele>39.0</ele><time>2026-03-29T09:07:03.03Z</time></trkpt><trkpt lat="44.8489567" lon="10.2822383"><ele>39.0</ele><time>2026-03-29T09:07:04.03Z</time></trkpt><trkpt lat="44.848865" lon="10.2822"><ele>39.0</ele><time>2026-03-29T09:07:05.03Z</time></trkpt><trkpt lat="44.848775" lon="10.28216"><ele>39.0</ele><time>2026-03-29T09:07:06.03Z</time></trkpt><trkpt lat="44.8486883" lon="10.2821283"><ele>39.0</ele><time>2026-03-29T09:07:07.03Z</time></trkpt><trkpt lat="44.848615" lon="10.2820983"><ele>39.0</ele><time>2026-03-29T09:07:08.03Z</time></trkpt><trkpt lat="44.848545" lon="10.2820667"><ele>39.0</ele><time>2026-03-29T09:07:09.029Z</time></trkpt><trkpt lat="44.84848" lon="10.2820483"><ele>39.0</ele><time>2026-03-29T09:07:10.029Z</time></trkpt><trkpt lat="44.8483567" lon="10.2820017"><ele>39.0</ele><time>2026-03-29T09:07:12.03Z</time></trkpt><trkpt lat="44.8482833" lon="10.2819617"><ele>39.0</ele><time>2026-03-29T09:07:13.03Z</time></trkpt><trkpt lat="44.8481967" lon="10.2819183"><ele>39.2</ele><time>2026-03-29T09:07:14.03Z</time></trkpt><trkpt lat="44.8481083" lon="10.28189"><ele>39.4</ele><time>2026-03-29T09:07:15.03Z</time></trkpt><trkpt lat="44.8480217" lon="10.2818683"><ele>39.6</ele><time>2026-03-29T09:07:16.03Z</time></trkpt><trkpt lat="44.8479283" lon="10.2818433"><ele>39.8</ele><time>2026-03-29T09:07:17.03Z</time></trkpt><trkpt lat="44.8478283" lon="10.28181"><ele>40.0</ele><time>2026-03-29T09:07:18.03Z</time></trkpt><trkpt lat="44.8477167" lon="10.28177"><ele>39.333333333333336</ele><time>2026-03-29T09:07:19.029Z</time></trkpt><trkpt lat="44.8475867" lon="10.2817133"><ele>38.666666666666664</ele><time>2026-03-29T09:07:20.03Z</time></trkpt><trkpt lat="44.847435" lon="10.2816467"><ele>38.0</ele><time>2026-03-29T09:07:21.03Z</time></trkpt><trkpt lat="44.8472767" lon="10.2815767"><ele>38.0</ele><time>2026-03-29T09:07:22.03Z</time></trkpt><trkpt lat="44.8471033" lon="10.2815"><ele>38.0</ele><time>2026-03-29T09:07:23.029Z</time></trkpt><trkpt lat="44.8469217" lon="10.2814283"><ele>38.0</ele><time>2026-03-29T09:07:24.03Z</time></trkpt><trkpt lat="44.8467283" lon="10.2813483"><ele>38.33333333333333</ele><time>2026-03-29T09:07:25.03Z</time></trkpt><trkpt lat="44.84654" lon="10.2812733"><ele>38.666666666666664</ele><time>2026-03-29T09:07:26.029Z</time></trkpt><trkpt lat="44.846355" lon="10.2811867"><ele>39.0</ele><time>2026-03-29T09:07:27.03Z</time></trkpt><trkpt lat="44.8461717" lon="10.28111"><ele>39.0</ele><time>2026-03-29T09:07:28.029Z</time></trkpt><trkpt lat="44.8459967" lon="10.281035"><ele>39.0</ele><time>2026-03-29T09:07:29.03Z</time></trkpt><trkpt lat="44.84583" lon="10.2809617"><ele>39.0</ele><time>2026-03-29T09:07:30.029Z</time></trkpt><trkpt lat="44.8456733" lon="10.28089"><ele>38.333333333333336</ele><time>2026-03-29T09:07:31.03Z</time></trkpt><trkpt lat="44.8455133" lon="10.2808217"><ele>37.66666666666667</ele><time>2026-03-29T09:07:32.03Z</time></trkpt><trkpt lat="44.8453633" lon="10.2807567"><ele>37.0</ele><time>2026-03-29T09:07:33.03Z</time></trkpt><trkpt lat="44.8452183" lon="10.2806917"><ele>37.25</ele><time>2026-03-29T09:07:34.03Z</time></trkpt><trkpt lat="44.84508" lon="10.280635"><ele>37.5</ele><time>2026-03-29T09:07:35.03Z</time></trkpt><trkpt lat="44.8449467" lon="10.280575"><ele>37.75</ele><time>2026-03-29T09:07:36.03Z</time></trkpt><trkpt lat="44.844815" lon="10.2805217"><ele>38.0</ele><time>2026-03-29T09:07:37.03Z</time></trkpt><trkpt lat="44.8446983" lon="10.2804617"><ele>38.199999999999996</ele><time>2026-03-29T09:07:38.029Z</time></trkpt><trkpt lat="44.84459" lon="10.2803967"><ele>38.4</ele><time>2026-03-29T09:07:39.03Z</time></trkpt><trkpt lat="44.8444983" lon="10.2803383"><ele>38.599999999999994</ele><time>2026-03-29T09:07:40.03Z</time></trkpt><trkpt lat="44.8444233" lon="10.2802767"><ele>38.8</ele><time>2026-03-29T09:07:41.03Z</time></trkpt><trkpt lat="44.8443267" lon="10.2802267"><ele>39.0</ele><time>2026-03-29T09:07:42.029Z</time></trkpt><trkpt lat="44.84421" lon="10.28019"><ele>39.5</ele><time>2026-03-29T09:07:43.03Z</time></trkpt><trkpt lat="44.8440983" lon="10.2801383"><ele>40.0</ele><time>2026-03-29T09:07:44.03Z</time></trkpt><trkpt lat="44.8439517" lon="10.2800933"><ele>40.5</ele><time>2026-03-29T09:07:45.029Z</time></trkpt><trkpt lat="44.843795" lon="10.280045"><ele>41.0</ele><time>2026-03-29T09:07:46.03Z</time></trkpt><trkpt lat="44.8436167" lon="10.27998"><ele>41.33333333333333</ele><time>2026-03-29T09:07:47.03Z</time></trkpt><trkpt lat="44.8434267" lon="10.2799133"><ele>41.666666666666664</ele><time>2026-03-29T09:07:48.03Z</time></trkpt><trkpt lat="44.8432217" lon="10.2798467"><ele>42.0</ele><time>2026-03-29T09:07:49.03Z</time></trkpt><trkpt lat="44.843005" lon="10.27977"><ele>41.666666666666664</ele><time>2026-03-29T09:07:50.029Z</time></trkpt><trkpt lat="44.842795" lon="10.2796983"><ele>41.33333333333333</ele><time>2026-03-29T09:07:51.029Z</time></trkpt><trkpt lat="44.8425833" lon="10.2796367"><ele>41.0</ele><time>2026-03-29T09:07:52.03Z</time></trkpt><trkpt lat="44.8423883" lon="10.2795667"><ele>41.0</ele><time>2026-03-29T09:07:53.03Z</time></trkpt><trkpt lat="44.8422017" lon="10.279495"><ele>41.0</ele><time>2026-03-29T09:07:54.03Z</time></trkpt><trkpt lat="44.842025" lon="10.2794283"><ele>41.0</ele><time>2026-03-29T09:07:55.029Z</time></trkpt><trkpt lat="44.8418417" lon="10.2793633"><ele>41.666666666666664</ele><time>2026-03-29T09:07:56.03Z</time></trkpt><trkpt lat="44.84167" lon="10.279305"><ele>42.333333333333336</ele><time>2026-03-29T09:07:57.03Z</time></trkpt><trkpt lat="44.8415" lon="10.27924"><ele>43.0</ele><time>2026-03-29T09:07:58.03Z</time></trkpt><trkpt lat="44.8413333" lon="10.2791833"><ele>43.0</ele><time>2026-03-29T09:07:59.029Z</time></trkpt><trkpt lat="44.84117" lon="10.279125"><ele>43.0</ele><time>2026-03-29T09:08:00.03Z</time></trkpt><trkpt lat="44.8410267" lon="10.279065"><ele>43.0</ele><time>2026-03-29T09:08:01.03Z</time></trkpt><trkpt lat="44.8408883" lon="10.2790217"><ele>42.5</ele><time>2026-03-29T09:08:02.03Z</time></trkpt><trkpt lat="44.84076" lon="10.2789833"><ele>42.0</ele><time>2026-03-29T09:08:03.03Z</time></trkpt><trkpt lat="44.840625" lon="10.2789483"><ele>41.5</ele><time>2026-03-29T09:08:04.029Z</time></trkpt><trkpt lat="44.8405" lon="10.2789067"><ele>41.0</ele><time>2026-03-29T09:08:05.029Z</time></trkpt><trkpt lat="44.8403833" lon="10.278855"><ele>41.0</ele><time>2026-03-29T09:08:06.03Z</time></trkpt><trkpt lat="44.8402817" lon="10.2788217"><ele>41.0</ele><time>2026-03-29T09:08:07.029Z</time></trkpt><trkpt lat="44.8401767" lon="10.27878"><ele>41.0</ele><time>2026-03-29T09:08:08.029Z</time></trkpt><trkpt lat="44.8400533" lon="10.2787483"><ele>41.0</ele><time>2026-03-29T09:08:09.03Z</time></trkpt><trkpt lat="44.83993" lon="10.2787067"><ele>41.75</ele><time>2026-03-29T09:08:10.03Z</time></trkpt><trkpt lat="44.839795" lon="10.27866"><ele>42.5</ele><time>2026-03-29T09:08:11.029Z</time></trkpt><trkpt lat="44.83965" lon="10.278605"><ele>43.25</ele><time>2026-03-29T09:08:12.029Z</time></trkpt><trkpt lat="44.839495" lon="10.27855"><ele>44.0</ele><time>2026-03-29T09:08:13.03Z</time></trkpt><trkpt lat="44.8393417" lon="10.2784833"><ele>44.33333333333333</ele><time>2026-03-29T09:08:14.03Z</time></trkpt><trkpt lat="44.8391867" lon="10.2784267"><ele>44.666666666666664</ele><time>2026-03-29T09:08:15.03Z</time></trkpt><trkpt lat="44.839025" lon="10.2783633"><ele>45.0</ele><time>2026-03-29T09:08:16.029Z</time></trkpt><trkpt lat="44.8388633" lon="10.2783017"><ele>45.0</ele><time>2026-03-29T09:08:17.03Z</time></trkpt><trkpt lat="44.8386967" lon="10.2782317"><ele>45.0</ele><time>2026-03-29T09:08:18.03Z</time></trkpt><trkpt lat="44.8385383" lon="10.278165"><ele>45.0</ele><time>2026-03-29T09:08:19.03Z</time></trkpt><trkpt lat="44.83837" lon="10.278085"><ele>45.0</ele><time>2026-03-29T09:08:20.03Z</time></trkpt><trkpt lat="44.8381983" lon="10.278025"><ele>45.0</ele><time>2026-03-29T09:08:21.03Z</time></trkpt><trkpt lat="44.8380217" lon="10.27797"><ele>45.0</ele><time>2026-03-29T09:08:22.03Z</time></trkpt><trkpt lat="44.837845" lon="10.2778933"><ele>45.0</ele><time>2026-03-29T09:08:23.03Z</time></trkpt><trkpt lat="44.8376567" lon="10.2778183"><ele>45.0</ele><time>2026-03-29T09:08:24.03Z</time></trkpt><trkpt lat="44.8374667" lon="10.2777417"><ele>45.0</ele><time>2026-03-29T09:08:25.03Z</time></trkpt><trkpt lat="44.83728" lon="10.2776633"><ele>44.0</ele><time>2026-03-29T09:08:26.03Z</time></trkpt><trkpt lat="44.8370883" lon="10.27759"><ele>43.0</ele><time>2026-03-29T09:08:27.03Z</time></trkpt><trkpt lat="44.8368817" lon="10.2775033"><ele>42.0</ele><time>2026-03-29T09:08:28.03Z</time></trkpt><trkpt lat="44.8366733" lon="10.27742"><ele>41.666666666666664</ele><time>2026-03-29T09:08:29.029Z</time></trkpt><trkpt lat="44.836475" lon="10.277345"><ele>41.33333333333333</ele><time>2026-03-29T09:08:30.029Z</time></trkpt><trkpt lat="44.836275" lon="10.2772633"><ele>41.0</ele><time>2026-03-29T09:08:31.03Z</time></trkpt><trkpt lat="44.8360717" lon="10.2771933"><ele>41.666666666666664</ele><time>2026-03-29T09:08:32.03Z</time></trkpt><trkpt lat="44.8358833" lon="10.2771117"><ele>42.333333333333336</ele><time>2026-03-29T09:08:33.029Z</time></trkpt><trkpt lat="44.8357133" lon="10.2770333"><ele>43.0</ele><time>2026-03-29T09:08:34.03Z</time></trkpt><trkpt lat="44.8355417" lon="10.2769633"><ele>43.0</ele><time>2026-03-29T09:08:35.03Z</time></trkpt><trkpt lat="44.8353733" lon="10.276895"><ele>43.0</ele><time>2026-03-29T09:08:36.03Z</time></trkpt><trkpt lat="44.8352067" lon="10.2768217"><ele>43.0</ele><time>2026-03-29T09:08:37.03Z</time></trkpt><trkpt lat="44.83504" lon="10.2767567"><ele>42.66666666666667</ele><time>2026-03-29T09:08:38.029Z</time></trkpt><trkpt lat="44.8348733" lon="10.2766933"><ele>42.333333333333336</ele><time>2026-03-29T09:08:39.03Z</time></trkpt><trkpt lat="44.834715" lon="10.2766283"><ele>42.0</ele><time>2026-03-29T09:08:40.029Z</time></trkpt><trkpt lat="44.8345683" lon="10.27656"><ele>42.0</ele><time>2026-03-29T09:08:41.03Z</time></trkpt><trkpt lat="44.8344167" lon="10.2764967"><ele>42.0</ele><time>2026-03-29T09:08:42.029Z</time></trkpt><trkpt lat="44.834275" lon="10.2764317"><ele>42.0</ele><time>2026-03-29T09:08:43.03Z</time></trkpt><trkpt lat="44.83413" lon="10.2763667"><ele>42.0</ele><time>2026-03-29T09:08:44.029Z</time></trkpt><trkpt lat="44.833985" lon="10.2763033"><ele>42.0</ele><time>2026-03-29T09:08:45.03Z</time></trkpt><trkpt lat="44.8338383" lon="10.2762417"><ele>42.0</ele><time>2026-03-29T09:08:46.029Z</time></trkpt><trkpt lat="44.8336967" lon="10.2761883"><ele>42.0</ele><time>2026-03-29T09:08:47.029Z</time></trkpt><trkpt lat="44.8335767" lon="10.2761333"><ele>42.0</ele><time>2026-03-29T09:08:48.03Z</time></trkpt><trkpt lat="44.8334633" lon="10.2760883"><ele>42.0</ele><time>2026-03-29T09:08:49.03Z</time></trkpt><trkpt lat="44.8333633" lon="10.27604"><ele>42.0</ele><time>2026-03-29T09:08:50.03Z</time></trkpt><trkpt lat="44.83325" lon="10.275995"><ele>42.6</ele><time>2026-03-29T09:08:51.03Z</time></trkpt><trkpt lat="44.8331417" lon="10.27595"><ele>43.2</ele><time>2026-03-29T09:08:52.03Z</time></trkpt><trkpt lat="44.8330417" lon="10.275905"><ele>43.8</ele><time>2026-03-29T09:08:53.03Z</time></trkpt><trkpt lat="44.83294" lon="10.2758583"><ele>44.4</ele><time>2026-03-29T09:08:54.03Z</time></trkpt><trkpt lat="44.8328567" lon="10.2758267"><ele>45.0</ele><time>2026-03-29T09:08:55.03Z</time></trkpt><trkpt lat="44.832785" lon="10.2757967"><ele>45.0</ele><time>2026-03-29T09:08:56.03Z</time></trkpt><trkpt lat="44.83272" lon="10.2757617"><ele>45.0</ele><time>2026-03-29T09:08:57.029Z</time></trkpt><trkpt lat="44.832655" lon="10.275735"><ele>45.0</ele><time>2026-03-29T09:08:58.03Z</time></trkpt><trkpt lat="44.8325517" lon="10.2756883"><ele>45.0</ele><time>2026-03-29T09:09:00.029Z</time></trkpt><trkpt lat="44.83249" lon="10.27566"><ele>45.0</ele><time>2026-03-29T09:09:02.03Z</time></trkpt><trkpt lat="44.8323767" lon="10.2756267"><ele>45.0</ele><time>2026-03-29T09:09:09.029Z</time></trkpt><trkpt lat="44.8323033" lon="10.2755933"><ele>45.0</ele><time>2026-03-29T09:09:10.03Z</time></trkpt><trkpt lat="44.8322283" lon="10.2755617"><ele>45.0</ele><time>2026-03-29T09:09:11.03Z</time></trkpt><trkpt lat="44.83216" lon="10.2755317"><ele>45.0</ele><time>2026-03-29T09:09:12.029Z</time></trkpt><trkpt lat="44.83209" lon="10.275505"><ele>45.0</ele><time>2026-03-29T09:09:13.029Z</time></trkpt><trkpt lat="44.832015" lon="10.2754717"><ele>45.0</ele><time>2026-03-29T09:09:14.03Z</time></trkpt><trkpt lat="44.8319417" lon="10.2754383"><ele>45.0</ele><time>2026-03-29T09:09:15.03Z</time></trkpt><trkpt lat="44.8318667" lon="10.2753967"><ele>45.0</ele><time>2026-03-29T09:09:16.03Z</time></trkpt><trkpt lat="44.83179" lon="10.2753383"><ele>45.0</ele><time>2026-03-29T09:09:17.03Z</time></trkpt><trkpt lat="44.8316883" lon="10.2752533"><ele>45.0</ele><time>2026-03-29T09:09:18.03Z</time></trkpt><trkpt lat="44.83158" lon="10.27521"><ele>45.0</ele><time>2026-03-29T09:09:19.029Z</time></trkpt><trkpt lat="44.83147" lon="10.275185"><ele>45.0</ele><time>2026-03-29T09:09:20.03Z</time></trkpt><trkpt lat="44.831345" lon="10.275145"><ele>45.0</ele><time>2026-03-29T09:09:21.03Z</time></trkpt><trkpt lat="44.8312217" lon="10.2750983"><ele>45.0</ele><time>2026-03-29T09:09:22.029Z</time></trkpt><trkpt lat="44.8311017" lon="10.2750717"><ele>45.0</ele><time>2026-03-29T09:09:23.03Z</time></trkpt><trkpt lat="44.8309867" lon="10.27505"><ele>45.0</ele><time>2026-03-29T09:09:24.03Z</time></trkpt><trkpt lat="44.8308667" lon="10.2750617"><ele>45.166666666666664</ele><time>2026-03-29T09:09:25.029Z</time></trkpt><trkpt lat="44.8307683" lon="10.2750767"><ele>45.333333333333336</ele><time>2026-03-29T09:09:26.03Z</time></trkpt><trkpt lat="44.83068" lon="10.27507"><ele>45.5</ele><time>2026-03-29T09:09:27.03Z</time></trkpt><trkpt lat="44.8306067" lon="10.2750583"><ele>45.66666666666667</ele><time>2026-03-29T09:09:28.03Z</time></trkpt><trkpt lat="44.8305433" lon="10.2750517"><ele>45.833333333333336</ele><time>2026-03-29T09:09:29.029Z</time></trkpt><trkpt lat="44.83045" lon="10.275035"><ele>46.0</ele><time>2026-03-29T09:09:31.03Z</time></trkpt><trkpt lat="44.83035" lon="10.27497"><ele>46.0</ele><time>2026-03-29T09:09:33.03Z</time></trkpt><trkpt lat="44.8302683" lon="10.274835"><ele>46.0</ele><time>2026-03-29T09:09:35.03Z</time></trkpt><trkpt lat="44.8302267" lon="10.2747467"><ele>46.0</ele><time>2026-03-29T09:09:36.029Z</time></trkpt><trkpt lat="44.8301817" lon="10.274665"><ele>46.0</ele><time>2026-03-29T09:09:37.029Z</time></trkpt><trkpt lat="44.830125" lon="10.2746033"><ele>46.0</ele><time>2026-03-29T09:09:38.03Z</time></trkpt><trkpt lat="44.8300633" lon="10.2745567"><ele>46.0</ele><time>2026-03-29T09:09:39.03Z</time></trkpt><trkpt lat="44.829995" lon="10.2745217"><ele>46.199999999999996</ele><time>2026-03-29T09:09:40.03Z</time></trkpt><trkpt lat="44.8299067" lon="10.2745283"><ele>46.4</ele><time>2026-03-29T09:09:41.029Z</time></trkpt><trkpt lat="44.8298183" lon="10.27454"><ele>46.6</ele><time>2026-03-29T09:09:42.029Z</time></trkpt><trkpt lat="44.82972" lon="10.2745533"><ele>46.8</ele><time>2026-03-29T09:09:43.03Z</time></trkpt><trkpt lat="44.829625" lon="10.2745433"><ele>47.0</ele><time>2026-03-29T09:09:44.03Z</time></trkpt><trkpt lat="44.8295167" lon="10.274505"><ele>47.0</ele><time>2026-03-29T09:09:45.029Z</time></trkpt><trkpt lat="44.829405" lon="10.2744583"><ele>47.0</ele><time>2026-03-29T09:09:46.03Z</time></trkpt><trkpt lat="44.82929" lon="10.27441"><ele>47.0</ele><time>2026-03-29T09:09:47.03Z</time></trkpt><trkpt lat="44.829165" lon="10.2743667"><ele>47.0</ele><time>2026-03-29T09:09:48.03Z</time></trkpt><trkpt lat="44.8290417" lon="10.2743233"><ele>46.75</ele><time>2026-03-29T09:09:49.03Z</time></trkpt><trkpt lat="44.82891" lon="10.274275"><ele>46.5</ele><time>2026-03-29T09:09:50.03Z</time></trkpt><trkpt lat="44.8287733" lon="10.2742317"><ele>46.25</ele><time>2026-03-29T09:09:51.03Z</time></trkpt><trkpt lat="44.8286483" lon="10.27417"><ele>46.0</ele><time>2026-03-29T09:09:52.029Z</time></trkpt><trkpt lat="44.8285" lon="10.2741117"><ele>45.66666666666667</ele><time>2026-03-29T09:09:53.03Z</time></trkpt><trkpt lat="44.8283567" lon="10.2740517"><ele>45.333333333333336</ele><time>2026-03-29T09:09:54.029Z</time></trkpt><trkpt lat="44.8281983" lon="10.2739967"><ele>45.0</ele><time>2026-03-29T09:09:55.029Z</time></trkpt><trkpt lat="44.8280383" lon="10.273925"><ele>44.666666666666664</ele><time>2026-03-29T09:09:56.03Z</time></trkpt><trkpt lat="44.8278783" lon="10.27385"><ele>44.33333333333333</ele><time>2026-03-29T09:09:57.03Z</time></trkpt><trkpt lat="44.827715" lon="10.2737717"><ele>44.0</ele><time>2026-03-29T09:09:58.03Z</time></trkpt><trkpt lat="44.8275517" lon="10.2736817"><ele>44.0</ele><time>2026-03-29T09:09:59.03Z</time></trkpt><trkpt lat="44.8273933" lon="10.2735933"><ele>44.0</ele><time>2026-03-29T09:10:00.03Z</time></trkpt><trkpt lat="44.8272267" lon="10.2735067"><ele>44.0</ele><time>2026-03-29T09:10:01.029Z</time></trkpt><trkpt lat="44.827055" lon="10.2734183"><ele>44.0</ele><time>2026-03-29T09:10:02.03Z</time></trkpt><trkpt lat="44.826875" lon="10.2733383"><ele>44.0</ele><time>2026-03-29T09:10:03.03Z</time></trkpt><trkpt lat="44.8267" lon="10.273255"><ele>44.0</ele><time>2026-03-29T09:10:04.029Z</time></trkpt><trkpt lat="44.826525" lon="10.27318"><ele>45.33333333333333</ele><time>2026-03-29T09:10:05.03Z</time></trkpt><trkpt lat="44.82635" lon="10.273105"><ele>46.666666666666664</ele><time>2026-03-29T09:10:06.03Z</time></trkpt><trkpt lat="44.8261617" lon="10.2730367"><ele>48.0</ele><time>2026-03-29T09:10:07.029Z</time></trkpt><trkpt lat="44.8259717" lon="10.2729683"><ele>48.33333333333333</ele><time>2026-03-29T09:10:08.03Z</time></trkpt><trkpt lat="44.8257867" lon="10.272895"><ele>48.666666666666664</ele><time>2026-03-29T09:10:09.03Z</time></trkpt><trkpt lat="44.8256" lon="10.272825"><ele>49.0</ele><time>2026-03-29T09:10:10.03Z</time></trkpt><trkpt lat="44.825415" lon="10.272755"><ele>49.0</ele><time>2026-03-29T09:10:11.03Z</time></trkpt><trkpt lat="44.8252317" lon="10.2726883"><ele>49.0</ele><time>2026-03-29T09:10:12.029Z</time></trkpt><trkpt lat="44.8250367" lon="10.2726267"><ele>49.0</ele><time>2026-03-29T09:10:13.029Z</time></trkpt><trkpt lat="44.8248483" lon="10.27255"><ele>48.666666666666664</ele><time>2026-03-29T09:10:14.029Z</time></trkpt><trkpt lat="44.82465" lon="10.2724667"><ele>48.33333333333333</ele><time>2026-03-29T09:10:15.03Z</time></trkpt><trkpt lat="44.8244617" lon="10.272395"><ele>48.0</ele><time>2026-03-29T09:10:16.029Z</time></trkpt><trkpt lat="44.8242767" lon="10.2723133"><ele>47.333333333333336</ele><time>2026-03-29T09:10:17.03Z</time></trkpt><trkpt lat="44.8240983" lon="10.2722283"><ele>46.66666666666667</ele><time>2026-03-29T09:10:18.03Z</time></trkpt><trkpt lat="44.823915" lon="10.2721417"><ele>46.0</ele><time>2026-03-29T09:10:19.03Z</time></trkpt><trkpt lat="44.823735" lon="10.272065"><ele>46.0</ele><time>2026-03-29T09:10:20.03Z</time></trkpt><trkpt lat="44.8235517" lon="10.2719833"><ele>46.0</ele><time>2026-03-29T09:10:21.03Z</time></trkpt><trkpt lat="44.8233567" lon="10.2718967"><ele>46.0</ele><time>2026-03-29T09:10:22.03Z</time></trkpt><trkpt lat="44.82316" lon="10.2718133"><ele>46.66666666666667</ele><time>2026-03-29T09:10:23.03Z</time></trkpt><trkpt lat="44.8229717" lon="10.2717267"><ele>47.333333333333336</ele><time>2026-03-29T09:10:24.03Z</time></trkpt><trkpt lat="44.8227667" lon="10.2716367"><ele>48.0</ele><time>2026-03-29T09:10:25.029Z</time></trkpt><trkpt lat="44.822575" lon="10.27155"><ele>48.0</ele><time>2026-03-29T09:10:26.03Z</time></trkpt><trkpt lat="44.822385" lon="10.2714683"><ele>48.0</ele><time>2026-03-29T09:10:27.03Z</time></trkpt><trkpt lat="44.8222083" lon="10.2713867"><ele>48.0</ele><time>2026-03-29T09:10:28.03Z</time></trkpt><trkpt lat="44.8220383" lon="10.271315"><ele>49.0</ele><time>2026-03-29T09:10:29.029Z</time></trkpt><trkpt lat="44.8218783" lon="10.2712483"><ele>50.0</ele><time>2026-03-29T09:10:30.03Z</time></trkpt><trkpt lat="44.8217217" lon="10.2711817"><ele>51.0</ele><time>2026-03-29T09:10:31.03Z</time></trkpt><trkpt lat="44.8215733" lon="10.2711133"><ele>51.0</ele><time>2026-03-29T09:10:32.03Z</time></trkpt><trkpt lat="44.8214217" lon="10.2710467"><ele>51.0</ele><time>2026-03-29T09:10:33.03Z</time></trkpt><trkpt lat="44.821275" lon="10.2709767"><ele>51.0</ele><time>2026-03-29T09:10:34.029Z</time></trkpt><trkpt lat="44.8211133" lon="10.2709017"><ele>51.0</ele><time>2026-03-29T09:10:35.029Z</time></trkpt><trkpt lat="44.820965" lon="10.2708283"><ele>51.0</ele><time>2026-03-29T09:10:36.03Z</time></trkpt><trkpt lat="44.8208233" lon="10.2707617"><ele>51.0</ele><time>2026-03-29T09:10:37.029Z</time></trkpt><trkpt lat="44.8206867" lon="10.2706917"><ele>51.0</ele><time>2026-03-29T09:10:38.03Z</time></trkpt><trkpt lat="44.8205633" lon="10.27063"><ele>51.0</ele><time>2026-03-29T09:10:39.029Z</time></trkpt><trkpt lat="44.820435" lon="10.2705717"><ele>51.0</ele><time>2026-03-29T09:10:40.029Z</time></trkpt><trkpt lat="44.8203217" lon="10.2705117"><ele>51.0</ele><time>2026-03-29T09:10:41.03Z</time></trkpt><trkpt lat="44.820215" lon="10.2704633"><ele>51.0</ele><time>2026-03-29T09:10:42.03Z</time></trkpt><trkpt lat="44.8201083" lon="10.2704067"><ele>51.0</ele><time>2026-03-29T09:10:43.029Z</time></trkpt><trkpt lat="44.8199867" lon="10.27035"><ele>51.0</ele><time>2026-03-29T09:10:44.03Z</time></trkpt><trkpt lat="44.819855" lon="10.2702933"><ele>51.0</ele><time>2026-03-29T09:10:45.03Z</time></trkpt><trkpt lat="44.8197233" lon="10.2702183"><ele>51.0</ele><time>2026-03-29T09:10:46.03Z</time></trkpt><trkpt lat="44.8195967" lon="10.2701533"><ele>51.0</ele><time>2026-03-29T09:10:47.03Z</time></trkpt><trkpt lat="44.8194733" lon="10.2701033"><ele>51.0</ele><time>2026-03-29T09:10:48.029Z</time></trkpt><trkpt lat="44.8193683" lon="10.270065"><ele>51.0</ele><time>2026-03-29T09:10:49.03Z</time></trkpt><trkpt lat="44.8192633" lon="10.2700317"><ele>51.0</ele><time>2026-03-29T09:10:50.029Z</time></trkpt><trkpt lat="44.8191633" lon="10.2699983"><ele>51.0</ele><time>2026-03-29T09:10:51.029Z</time></trkpt><trkpt lat="44.8190717" lon="10.2699617"><ele>51.0</ele><time>2026-03-29T09:10:52.03Z</time></trkpt><trkpt lat="44.8189933" lon="10.2699183"><ele>51.0</ele><time>2026-03-29T09:10:53.03Z</time></trkpt><trkpt lat="44.818925" lon="10.26987"><ele>51.0</ele><time>2026-03-29T09:10:54.03Z</time></trkpt><trkpt lat="44.8188283" lon="10.269815"><ele>51.0</ele><time>2026-03-29T09:10:55.03Z</time></trkpt><trkpt lat="44.8186967" lon="10.2697483"><ele>51.0</ele><time>2026-03-29T09:10:56.03Z</time></trkpt><trkpt lat="44.81853" lon="10.2696817"><ele>51.0</ele><time>2026-03-29T09:10:57.03Z</time></trkpt><trkpt lat="44.8183483" lon="10.2696083"><ele>51.0</ele><time>2026-03-29T09:10:58.03Z</time></trkpt><trkpt lat="44.8181517" lon="10.2695333"><ele>51.0</ele><time>2026-03-29T09:10:59.029Z</time></trkpt><trkpt lat="44.8179417" lon="10.2694617"><ele>51.0</ele><time>2026-03-29T09:11:00.029Z</time></trkpt><trkpt lat="44.8177367" lon="10.2693917"><ele>51.66666666666667</ele><time>2026-03-29T09:11:01.03Z</time></trkpt><trkpt lat="44.817535" lon="10.2693217"><ele>52.333333333333336</ele><time>2026-03-29T09:11:02.03Z</time></trkpt><trkpt lat="44.8173483" lon="10.2692617"><ele>53.0</ele><time>2026-03-29T09:11:03.029Z</time></trkpt><trkpt lat="44.817145" lon="10.269195"><ele>53.0</ele><time>2026-03-29T09:11:04.029Z</time></trkpt><trkpt lat="44.81695" lon="10.269135"><ele>53.0</ele><time>2026-03-29T09:11:05.029Z</time></trkpt><trkpt lat="44.8167667" lon="10.26907"><ele>53.0</ele><time>2026-03-29T09:11:06.03Z</time></trkpt><trkpt lat="44.8165767" lon="10.2689983"><ele>52.66666666666667</ele><time>2026-03-29T09:11:07.03Z</time></trkpt><trkpt lat="44.816385" lon="10.2689133"><ele>52.33333333333333</ele><time>2026-03-29T09:11:08.029Z</time></trkpt><trkpt lat="44.8162067" lon="10.2688383"><ele>52.0</ele><time>2026-03-29T09:11:09.029Z</time></trkpt><trkpt lat="44.8160233" lon="10.2687633"><ele>51.666666666666664</ele><time>2026-03-29T09:11:10.03Z</time></trkpt><trkpt lat="44.815835" lon="10.2687017"><ele>51.33333333333333</ele><time>2026-03-29T09:11:11.029Z</time></trkpt><trkpt lat="44.8156733" lon="10.2686183"><ele>51.0</ele><time>2026-03-29T09:11:12.03Z</time></trkpt><trkpt lat="44.81552" lon="10.2685483"><ele>51.0</ele><time>2026-03-29T09:11:13.029Z</time></trkpt><trkpt lat="44.8153933" lon="10.2684967"><ele>51.0</ele><time>2026-03-29T09:11:14.03Z</time></trkpt><trkpt lat="44.8152833" lon="10.2684517"><ele>51.0</ele><time>2026-03-29T09:11:15.03Z</time></trkpt><trkpt lat="44.8151867" lon="10.268415"><ele>51.0</ele><time>2026-03-29T09:11:16.03Z</time></trkpt><trkpt lat="44.8151067" lon="10.2683833"><ele>51.0</ele><time>2026-03-29T09:11:17.03Z</time></trkpt><trkpt lat="44.8150417" lon="10.2683567"><ele>51.75</ele><time>2026-03-29T09:11:18.03Z</time></trkpt><trkpt lat="44.8149383" lon="10.2683167"><ele>52.5</ele><time>2026-03-29T09:11:20.03Z</time></trkpt><trkpt lat="44.8147967" lon="10.26828"><ele>53.25</ele><time>2026-03-29T09:13:11.03Z</time></trkpt><trkpt lat="44.8147083" lon="10.2682567"><ele>54.0</ele><time>2026-03-29T09:13:12.03Z</time></trkpt><trkpt lat="44.8146017" lon="10.2682283"><ele>54.0</ele><time>2026-03-29T09:13:13.03Z</time></trkpt><trkpt lat="44.8144967" lon="10.268195"><ele>54.00000000000001</ele><time>2026-03-29T09:13:14.031Z</time></trkpt><trkpt lat="44.8144033" lon="10.2681617"><ele>54.00000000000001</ele><time>2026-03-29T09:13:15.031Z</time></trkpt><trkpt lat="44.8143183" lon="10.2681217"><ele>54.0</ele><time>2026-03-29T09:13:16.031Z</time></trkpt><trkpt lat="44.8142433" lon="10.268085"><ele>54.0</ele><time>2026-03-29T09:13:17.03Z</time></trkpt><trkpt lat="44.81412" lon="10.26804"><ele>54.400000000000006</ele><time>2026-03-29T09:13:19.031Z</time></trkpt><trkpt lat="44.8139967" lon="10.267985"><ele>54.800000000000004</ele><time>2026-03-29T09:13:21.03Z</time></trkpt><trkpt lat="44.8138917" lon="10.267935"><ele>55.199999999999996</ele><time>2026-03-29T09:13:23.031Z</time></trkpt><trkpt lat="44.81383" lon="10.2679083"><ele>55.599999999999994</ele><time>2026-03-29T09:13:25.031Z</time></trkpt><trkpt lat="44.81379" lon="10.267825"><ele>56.0</ele><time>2026-03-29T09:13:35.03Z</time></trkpt><trkpt lat="44.8138033" lon="10.2676683"><ele>56.0</ele><time>2026-03-29T09:13:37.03Z</time></trkpt><trkpt lat="44.8138317" lon="10.2675433"><ele>55.99999999999999</ele><time>2026-03-29T09:13:38.031Z</time></trkpt><trkpt lat="44.8138567" lon="10.2674017"><ele>55.99999999999999</ele><time>2026-03-29T09:13:39.03Z</time></trkpt><trkpt lat="44.81388" lon="10.2672383"><ele>56.0</ele><time>2026-03-29T09:13:40.031Z</time></trkpt><trkpt lat="44.8139183" lon="10.2670567"><ele>56.0</ele><time>2026-03-29T09:13:41.031Z</time></trkpt><trkpt lat="44.8139633" lon="10.2668583"><ele>56.0</ele><time>2026-03-29T09:13:42.03Z</time></trkpt><trkpt lat="44.8140017" lon="10.26663"><ele>56.0</ele><time>2026-03-29T09:13:43.031Z</time></trkpt><trkpt lat="44.8140517" lon="10.266395"><ele>56.0</ele><time>2026-03-29T09:13:44.031Z</time></trkpt><trkpt lat="44.8141083" lon="10.2661433"><ele>56.0</ele><time>2026-03-29T09:13:45.031Z</time></trkpt><trkpt lat="44.8141617" lon="10.2659117"><ele>56.0</ele><time>2026-03-29T09:13:46.031Z</time></trkpt><trkpt lat="44.8142133" lon="10.2656983"><ele>56.0</ele><time>2026-03-29T09:13:47.031Z</time></trkpt><trkpt lat="44.8142567" lon="10.26548"><ele>56.0</ele><time>2026-03-29T09:13:48.031Z</time></trkpt><trkpt lat="44.8143017" lon="10.2652667"><ele>56.0</ele><time>2026-03-29T09:13:49.031Z</time></trkpt><trkpt lat="44.814345" lon="10.2650367"><ele>56.0</ele><time>2026-03-29T09:13:50.03Z</time></trkpt><trkpt lat="44.8143933" lon="10.2648083"><ele>56.0</ele><time>2026-03-29T09:13:51.03Z</time></trkpt><trkpt lat="44.8144383" lon="10.2645717"><ele>56.0</ele><time>2026-03-29T09:13:52.031Z</time></trkpt><trkpt lat="44.8144833" lon="10.26434"><ele>56.0</ele><time>2026-03-29T09:13:53.031Z</time></trkpt><trkpt lat="44.8145383" lon="10.2641033"><ele>55.66666666666667</ele><time>2026-03-29T09:13:54.031Z</time></trkpt><trkpt lat="44.8145833" lon="10.263845"><ele>55.33333333333333</ele><time>2026-03-29T09:13:55.031Z</time></trkpt><trkpt lat="44.8146417" lon="10.2635883"><ele>55.0</ele><time>2026-03-29T09:13:56.031Z</time></trkpt><trkpt lat="44.8146983" lon="10.2633417"><ele>54.33333333333333</ele><time>2026-03-29T09:13:57.031Z</time></trkpt><trkpt lat="44.8147467" lon="10.263085"><ele>53.66666666666667</ele><time>2026-03-29T09:13:58.03Z</time></trkpt><trkpt lat="44.8147983" lon="10.2628267"><ele>53.0</ele><time>2026-03-29T09:13:59.031Z</time></trkpt><trkpt lat="44.814845" lon="10.262575"><ele>53.0</ele><time>2026-03-29T09:14:00.031Z</time></trkpt><trkpt lat="44.8149" lon="10.2623217"><ele>53.0</ele><time>2026-03-29T09:14:01.03Z</time></trkpt><trkpt lat="44.8149483" lon="10.26207"><ele>53.0</ele><time>2026-03-29T09:14:02.031Z</time></trkpt><trkpt lat="44.8149983" lon="10.2618283"><ele>53.333333333333336</ele><time>2026-03-29T09:14:03.031Z</time></trkpt><trkpt lat="44.8150483" lon="10.261585"><ele>53.66666666666667</ele><time>2026-03-29T09:14:04.031Z</time></trkpt><trkpt lat="44.8150967" lon="10.261355"><ele>54.0</ele><time>2026-03-29T09:14:05.031Z</time></trkpt><trkpt lat="44.815145" lon="10.26112"><ele>53.33333333333333</ele><time>2026-03-29T09:14:06.031Z</time></trkpt><trkpt lat="44.8151883" lon="10.260895"><ele>52.666666666666664</ele><time>2026-03-29T09:14:07.031Z</time></trkpt><trkpt lat="44.8152383" lon="10.2606667"><ele>52.0</ele><time>2026-03-29T09:14:08.031Z</time></trkpt><trkpt lat="44.81529" lon="10.2604333"><ele>52.0</ele><time>2026-03-29T09:14:09.03Z</time></trkpt><trkpt lat="44.8153417" lon="10.2602033"><ele>52.0</ele><time>2026-03-29T09:14:10.03Z</time></trkpt><trkpt lat="44.81539" lon="10.2599717"><ele>52.0</ele><time>2026-03-29T09:14:11.031Z</time></trkpt><trkpt lat="44.8154283" lon="10.2597317"><ele>52.33333333333333</ele><time>2026-03-29T09:14:12.031Z</time></trkpt><trkpt lat="44.8154717" lon="10.2594933"><ele>52.66666666666667</ele><time>2026-03-29T09:14:13.031Z</time></trkpt><trkpt lat="44.8155183" lon="10.2592667"><ele>53.0</ele><time>2026-03-29T09:14:14.03Z</time></trkpt><trkpt lat="44.8155683" lon="10.259045"><ele>53.66666666666667</ele><time>2026-03-29T09:14:15.03Z</time></trkpt><trkpt lat="44.8156267" lon="10.258835"><ele>54.33333333333333</ele><time>2026-03-29T09:14:16.031Z</time></trkpt><trkpt lat="44.8156733" lon="10.258635"><ele>55.0</ele><time>2026-03-29T09:14:17.031Z</time></trkpt><trkpt lat="44.8157167" lon="10.2584417"><ele>55.0</ele><time>2026-03-29T09:14:18.03Z</time></trkpt><trkpt lat="44.815755" lon="10.2582467"><ele>55.0</ele><time>2026-03-29T09:14:19.031Z</time></trkpt><trkpt lat="44.8157867" lon="10.2580683"><ele>55.0</ele><time>2026-03-29T09:14:20.031Z</time></trkpt><trkpt lat="44.8158267" lon="10.257895"><ele>55.0</ele><time>2026-03-29T09:14:21.031Z</time></trkpt><trkpt lat="44.815855" lon="10.2577467"><ele>54.8</ele><time>2026-03-29T09:14:22.03Z</time></trkpt><trkpt lat="44.8158867" lon="10.2576233"><ele>54.6</ele><time>2026-03-29T09:14:23.031Z</time></trkpt><trkpt lat="44.815925" lon="10.25752"><ele>54.400000000000006</ele><time>2026-03-29T09:14:24.031Z</time></trkpt><trkpt lat="44.815975" lon="10.257415"><ele>54.2</ele><time>2026-03-29T09:14:25.03Z</time></trkpt><trkpt lat="44.8160467" lon="10.2573133"><ele>54.0</ele><time>2026-03-29T09:14:26.031Z</time></trkpt><trkpt lat="44.8161333" lon="10.2572317"><ele>53.25</ele><time>2026-03-29T09:14:27.031Z</time></trkpt><trkpt lat="44.8162267" lon="10.2571567"><ele>52.5</ele><time>2026-03-29T09:14:28.031Z</time></trkpt><trkpt lat="44.8163233" lon="10.2570617"><ele>51.75</ele><time>2026-03-29T09:14:29.03Z</time></trkpt><trkpt lat="44.8164267" lon="10.2569483"><ele>51.0</ele><time>2026-03-29T09:14:30.031Z</time></trkpt><trkpt lat="44.81653" lon="10.2568067"><ele>51.0</ele><time>2026-03-29T09:14:31.03Z</time></trkpt><trkpt lat="44.8166333" lon="10.256655"><ele>51.0</ele><time>2026-03-29T09:14:32.03Z</time></trkpt><trkpt lat="44.816735" lon="10.256485"><ele>51.0</ele><time>2026-03-29T09:14:33.03Z</time></trkpt><trkpt lat="44.8168333" lon="10.256295"><ele>51.33333333333333</ele><time>2026-03-29T09:14:34.031Z</time></trkpt><trkpt lat="44.8169367" lon="10.2560917"><ele>51.666666666666664</ele><time>2026-03-29T09:14:35.031Z</time></trkpt><trkpt lat="44.8170467" lon="10.2558733"><ele>52.0</ele><time>2026-03-29T09:14:36.031Z</time></trkpt><trkpt lat="44.8171567" lon="10.255645"><ele>52.33333333333333</ele><time>2026-03-29T09:14:37.031Z</time></trkpt><trkpt lat="44.8172683" lon="10.2554333"><ele>52.66666666666667</ele><time>2026-03-29T09:14:38.031Z</time></trkpt><trkpt lat="44.81738" lon="10.2552267"><ele>53.0</ele><time>2026-03-29T09:14:39.031Z</time></trkpt><trkpt lat="44.817495" lon="10.25501"><ele>53.0</ele><time>2026-03-29T09:14:40.031Z</time></trkpt><trkpt lat="44.8176017" lon="10.2547933"><ele>53.0</ele><time>2026-03-29T09:14:41.031Z</time></trkpt><trkpt lat="44.8177067" lon="10.2545833"><ele>53.0</ele><time>2026-03-29T09:14:42.031Z</time></trkpt><trkpt lat="44.8177983" lon="10.2543817"><ele>53.333333333333336</ele><time>2026-03-29T09:14:43.031Z</time></trkpt><trkpt lat="44.817895" lon="10.2541967"><ele>53.66666666666667</ele><time>2026-03-29T09:14:44.031Z</time></trkpt><trkpt lat="44.8180083" lon="10.2540233"><ele>54.0</ele><time>2026-03-29T09:14:45.031Z</time></trkpt><trkpt lat="44.81807" lon="10.2538283"><ele>54.0</ele><time>2026-03-29T09:14:46.031Z</time></trkpt><trkpt lat="44.8181217" lon="10.2536317"><ele>54.0</ele><time>2026-03-29T09:14:47.03Z</time></trkpt><trkpt lat="44.8181867" lon="10.253435"><ele>54.0</ele><time>2026-03-29T09:14:48.03Z</time></trkpt><trkpt lat="44.8182333" lon="10.25323"><ele>54.0</ele><time>2026-03-29T09:14:49.031Z</time></trkpt><trkpt lat="44.818275" lon="10.2530217"><ele>54.0</ele><time>2026-03-29T09:14:50.031Z</time></trkpt><trkpt lat="44.81831" lon="10.2528167"><ele>54.0</ele><time>2026-03-29T09:14:51.03Z</time></trkpt><trkpt lat="44.818355" lon="10.2526167"><ele>54.0</ele><time>2026-03-29T09:14:52.031Z</time></trkpt><trkpt lat="44.8183983" lon="10.2524183"><ele>54.0</ele><time>2026-03-29T09:14:53.031Z</time></trkpt><trkpt lat="44.8184317" lon="10.2522333"><ele>54.0</ele><time>2026-03-29T09:14:54.03Z</time></trkpt><trkpt lat="44.8184667" lon="10.25206"><ele>54.0</ele><time>2026-03-29T09:14:55.03Z</time></trkpt><trkpt lat="44.818485" lon="10.2518833"><ele>54.0</ele><time>2026-03-29T09:14:56.03Z</time></trkpt><trkpt lat="44.81849" lon="10.251705"><ele>54.0</ele><time>2026-03-29T09:14:57.031Z</time></trkpt><trkpt lat="44.8184733" lon="10.2515267"><ele>54.0</ele><time>2026-03-29T09:14:58.031Z</time></trkpt><trkpt lat="44.8184433" lon="10.251355"><ele>54.0</ele><time>2026-03-29T09:14:59.031Z</time></trkpt><trkpt lat="44.8183967" lon="10.2511883"><ele>54.0</ele><time>2026-03-29T09:15:00.03Z</time></trkpt><trkpt lat="44.8183367" lon="10.2510183"><ele>54.0</ele><time>2026-03-29T09:15:01.031Z</time></trkpt><trkpt lat="44.8182667" lon="10.2508667"><ele>54.0</ele><time>2026-03-29T09:15:02.03Z</time></trkpt><trkpt lat="44.818205" lon="10.25071"><ele>54.0</ele><time>2026-03-29T09:15:03.031Z</time></trkpt><trkpt lat="44.81813" lon="10.2505733"><ele>53.75</ele><time>2026-03-29T09:15:04.031Z</time></trkpt><trkpt lat="44.8180633" lon="10.2504467"><ele>53.5</ele><time>2026-03-29T09:15:05.031Z</time></trkpt><trkpt lat="44.8180033" lon="10.2503183"><ele>53.25</ele><time>2026-03-29T09:15:06.031Z</time></trkpt><trkpt lat="44.8179517" lon="10.2501733"><ele>53.0</ele><time>2026-03-29T09:15:07.031Z</time></trkpt><trkpt lat="44.817905" lon="10.2500183"><ele>53.0</ele><time>2026-03-29T09:15:08.03Z</time></trkpt><trkpt lat="44.81786" lon="10.2498783"><ele>53.0</ele><time>2026-03-29T09:15:09.031Z</time></trkpt><trkpt lat="44.8178117" lon="10.2497567"><ele>53.0</ele><time>2026-03-29T09:15:10.031Z</time></trkpt><trkpt lat="44.8177583" lon="10.2496367"><ele>53.0</ele><time>2026-03-29T09:15:11.031Z</time></trkpt><trkpt lat="44.8177133" lon="10.2495083"><ele>53.0</ele><time>2026-03-29T09:15:12.031Z</time></trkpt><trkpt lat="44.81768" lon="10.2493717"><ele>53.75</ele><time>2026-03-29T09:15:13.031Z</time></trkpt><trkpt lat="44.8176633" lon="10.2492133"><ele>54.5</ele><time>2026-03-29T09:15:14.031Z</time></trkpt><trkpt lat="44.8176633" lon="10.2490533"><ele>55.25</ele><time>2026-03-29T09:15:15.031Z</time></trkpt><trkpt lat="44.8176817" lon="10.2488817"><ele>56.0</ele><time>2026-03-29T09:15:16.03Z</time></trkpt><trkpt lat="44.81771" lon="10.24869"><ele>56.0</ele><time>2026-03-29T09:15:17.03Z</time></trkpt><trkpt lat="44.8177433" lon="10.2484917"><ele>56.0</ele><time>2026-03-29T09:15:18.031Z</time></trkpt><trkpt lat="44.8177883" lon="10.2482767"><ele>56.0</ele><time>2026-03-29T09:15:19.031Z</time></trkpt><trkpt lat="44.8178333" lon="10.2480583"><ele>56.0</ele><time>2026-03-29T09:15:20.031Z</time></trkpt><trkpt lat="44.8178783" lon="10.2478267"><ele>56.0</ele><time>2026-03-29T09:15:21.031Z</time></trkpt><trkpt lat="44.817935" lon="10.2475767"><ele>56.0</ele><time>2026-03-29T09:15:22.03Z</time></trkpt><trkpt lat="44.8179767" lon="10.24732"><ele>55.66666666666667</ele><time>2026-03-29T09:15:23.031Z</time></trkpt><trkpt lat="44.8180333" lon="10.2470617"><ele>55.33333333333333</ele><time>2026-03-29T09:15:24.03Z</time></trkpt><trkpt lat="44.81808" lon="10.2467967"><ele>55.0</ele><time>2026-03-29T09:15:25.03Z</time></trkpt><trkpt lat="44.8181367" lon="10.246525"><ele>55.0</ele><time>2026-03-29T09:15:26.031Z</time></trkpt><trkpt lat="44.8181917" lon="10.2462533"><ele>55.0</ele><time>2026-03-29T09:15:27.031Z</time></trkpt><trkpt lat="44.8182417" lon="10.2459967"><ele>55.0</ele><time>2026-03-29T09:15:28.031Z</time></trkpt><trkpt lat="44.8182983" lon="10.2457433"><ele>55.33333333333333</ele><time>2026-03-29T09:15:29.031Z</time></trkpt><trkpt lat="44.8183467" lon="10.24549"><ele>55.66666666666667</ele><time>2026-03-29T09:15:30.03Z</time></trkpt><trkpt lat="44.818395" lon="10.245245"><ele>56.0</ele><time>2026-03-29T09:15:31.031Z</time></trkpt><trkpt lat="44.8184483" lon="10.2450083"><ele>56.66666666666667</ele><time>2026-03-29T09:15:32.03Z</time></trkpt><trkpt lat="44.818495" lon="10.244765"><ele>57.33333333333333</ele><time>2026-03-29T09:15:33.031Z</time></trkpt><trkpt lat="44.818545" lon="10.2445283"><ele>58.0</ele><time>2026-03-29T09:15:34.031Z</time></trkpt><trkpt lat="44.81859" lon="10.244295"><ele>58.0</ele><time>2026-03-29T09:15:35.031Z</time></trkpt><trkpt lat="44.8186417" lon="10.244075"><ele>58.0</ele><time>2026-03-29T09:15:36.03Z</time></trkpt><trkpt lat="44.81869" lon="10.24384"><ele>58.0</ele><time>2026-03-29T09:15:37.031Z</time></trkpt><trkpt lat="44.8187317" lon="10.24361"><ele>58.33333333333333</ele><time>2026-03-29T09:15:38.03Z</time></trkpt><trkpt lat="44.8187783" lon="10.2433833"><ele>58.66666666666667</ele><time>2026-03-29T09:15:39.031Z</time></trkpt><trkpt lat="44.81884" lon="10.2431483"><ele>59.0</ele><time>2026-03-29T09:15:40.031Z</time></trkpt><trkpt lat="44.8188817" lon="10.24292"><ele>59.0</ele><time>2026-03-29T09:15:41.031Z</time></trkpt><trkpt lat="44.8189233" lon="10.24269"><ele>59.0</ele><time>2026-03-29T09:15:42.031Z</time></trkpt><trkpt lat="44.8189667" lon="10.242465"><ele>59.0</ele><time>2026-03-29T09:15:43.03Z</time></trkpt><trkpt lat="44.8190133" lon="10.242235"><ele>58.333333333333336</ele><time>2026-03-29T09:15:44.03Z</time></trkpt><trkpt lat="44.81906" lon="10.2419917"><ele>57.66666666666667</ele><time>2026-03-29T09:15:45.031Z</time></trkpt><trkpt lat="44.819105" lon="10.2417483"><ele>57.0</ele><time>2026-03-29T09:15:46.03Z</time></trkpt><trkpt lat="44.8191583" lon="10.2415067"><ele>57.0</ele><time>2026-03-29T09:15:47.031Z</time></trkpt><trkpt lat="44.8192083" lon="10.241255"><ele>57.0</ele><time>2026-03-29T09:15:48.031Z</time></trkpt><trkpt lat="44.8192567" lon="10.241"><ele>57.0</ele><time>2026-03-29T09:15:49.031Z</time></trkpt><trkpt lat="44.8193067" lon="10.2407567"><ele>57.0</ele><time>2026-03-29T09:15:50.03Z</time></trkpt><trkpt lat="44.819355" lon="10.240525"><ele>57.0</ele><time>2026-03-29T09:15:51.031Z</time></trkpt><trkpt lat="44.8194083" lon="10.2402983"><ele>57.0</ele><time>2026-03-29T09:15:52.031Z</time></trkpt><trkpt lat="44.8194483" lon="10.2400783"><ele>57.0</ele><time>2026-03-29T09:15:53.03Z</time></trkpt><trkpt lat="44.8194833" lon="10.2398683"><ele>57.0</ele><time>2026-03-29T09:15:54.03Z</time></trkpt><trkpt lat="44.8195233" lon="10.23967"><ele>57.0</ele><time>2026-03-29T09:15:55.031Z</time></trkpt><trkpt lat="44.8195583" lon="10.2394767"><ele>57.0</ele><time>2026-03-29T09:15:56.03Z</time></trkpt><trkpt lat="44.8196017" lon="10.23929"><ele>57.5</ele><time>2026-03-29T09:15:57.031Z</time></trkpt><trkpt lat="44.8196367" lon="10.2390933"><ele>58.0</ele><time>2026-03-29T09:15:58.031Z</time></trkpt><trkpt lat="44.8196833" lon="10.2388933"><ele>58.5</ele><time>2026-03-29T09:15:59.031Z</time></trkpt><trkpt lat="44.8197267" lon="10.2386867"><ele>59.0</ele><time>2026-03-29T09:16:00.03Z</time></trkpt><trkpt lat="44.8197717" lon="10.2384667"><ele>59.333333333333336</ele><time>2026-03-29T09:16:01.031Z</time></trkpt><trkpt lat="44.81982" lon="10.23825"><ele>59.66666666666667</ele><time>2026-03-29T09:16:02.031Z</time></trkpt><trkpt lat="44.8198667" lon="10.238025"><ele>60.0</ele><time>2026-03-29T09:16:03.031Z</time></trkpt><trkpt lat="44.81991" lon="10.2377983"><ele>59.33333333333333</ele><time>2026-03-29T09:16:04.031Z</time></trkpt><trkpt lat="44.8199533" lon="10.2375783"><ele>58.666666666666664</ele><time>2026-03-29T09:16:05.031Z</time></trkpt><trkpt lat="44.8199967" lon="10.2373467"><ele>58.0</ele><time>2026-03-29T09:16:06.03Z</time></trkpt><trkpt lat="44.8200433" lon="10.2371067"><ele>58.0</ele><time>2026-03-29T09:16:07.03Z</time></trkpt><trkpt lat="44.82009" lon="10.2368783"><ele>58.0</ele><time>2026-03-29T09:16:08.031Z</time></trkpt><trkpt lat="44.8201367" lon="10.2366633"><ele>58.0</ele><time>2026-03-29T09:16:09.031Z</time></trkpt><trkpt lat="44.8201783" lon="10.2364433"><ele>58.33333333333333</ele><time>2026-03-29T09:16:10.031Z</time></trkpt><trkpt lat="44.8202233" lon="10.2362283"><ele>58.66666666666667</ele><time>2026-03-29T09:16:11.03Z</time></trkpt><trkpt lat="44.82026" lon="10.236015"><ele>59.0</ele><time>2026-03-29T09:16:12.031Z</time></trkpt><trkpt lat="44.820305" lon="10.23582"><ele>59.0</ele><time>2026-03-29T09:16:13.031Z</time></trkpt><trkpt lat="44.820345" lon="10.23562"><ele>59.0</ele><time>2026-03-29T09:16:14.031Z</time></trkpt><trkpt lat="44.8203783" lon="10.2354217"><ele>59.0</ele><time>2026-03-29T09:16:15.03Z</time></trkpt><trkpt lat="44.8204083" lon="10.2352317"><ele>59.0</ele><time>2026-03-29T09:16:16.031Z</time></trkpt><trkpt lat="44.8204333" lon="10.235045"><ele>59.0</ele><time>2026-03-29T09:16:17.031Z</time></trkpt><trkpt lat="44.8204667" lon="10.2348633"><ele>59.0</ele><time>2026-03-29T09:16:18.031Z</time></trkpt><trkpt lat="44.8204883" lon="10.2346983"><ele>59.0</ele><time>2026-03-29T09:16:19.03Z</time></trkpt><trkpt lat="44.820505" lon="10.2345483"><ele>59.0</ele><time>2026-03-29T09:16:20.031Z</time></trkpt><trkpt lat="44.8205183" lon="10.23442"><ele>59.16666666666667</ele><time>2026-03-29T09:16:21.031Z</time></trkpt><trkpt lat="44.820525" lon="10.2343067"><ele>59.333333333333336</ele><time>2026-03-29T09:16:22.03Z</time></trkpt><trkpt lat="44.820525" lon="10.23421"><ele>59.5</ele><time>2026-03-29T09:16:23.031Z</time></trkpt><trkpt lat="44.8205133" lon="10.234085"><ele>59.66666666666667</ele><time>2026-03-29T09:16:25.031Z</time></trkpt><trkpt lat="44.8205017" lon="10.2339817"><ele>59.833333333333336</ele><time>2026-03-29T09:16:27.031Z</time></trkpt><trkpt lat="44.82051" lon="10.2338283"><ele>60.0</ele><time>2026-03-29T09:16:29.03Z</time></trkpt><trkpt lat="44.8205267" lon="10.2337233"><ele>60.0</ele><time>2026-03-29T09:16:30.031Z</time></trkpt><trkpt lat="44.8205483" lon="10.2336183"><ele>60.0</ele><time>2026-03-29T09:16:31.031Z</time></trkpt><trkpt lat="44.820565" lon="10.2335083"><ele>60.0</ele><time>2026-03-29T09:16:32.03Z</time></trkpt><trkpt lat="44.8206" lon="10.2333883"><ele>60.0</ele><time>2026-03-29T09:16:33.03Z</time></trkpt><trkpt lat="44.8206383" lon="10.2332633"><ele>60.0</ele><time>2026-03-29T09:16:34.03Z</time></trkpt><trkpt lat="44.8206933" lon="10.23314"><ele>60.0</ele><time>2026-03-29T09:16:35.031Z</time></trkpt><trkpt lat="44.8207483" lon="10.2330133"><ele>60.25</ele><time>2026-03-29T09:16:36.031Z</time></trkpt><trkpt lat="44.820825" lon="10.232875"><ele>60.5</ele><time>2026-03-29T09:16:37.031Z</time></trkpt><trkpt lat="44.8208967" lon="10.23273"><ele>60.75</ele><time>2026-03-29T09:16:38.031Z</time></trkpt><trkpt lat="44.8209567" lon="10.2325517"><ele>61.0</ele><time>2026-03-29T09:16:39.03Z</time></trkpt><trkpt lat="44.8210117" lon="10.232355"><ele>60.666666666666664</ele><time>2026-03-29T09:16:40.03Z</time></trkpt><trkpt lat="44.8210533" lon="10.23214"><ele>60.33333333333333</ele><time>2026-03-29T09:16:41.031Z</time></trkpt><trkpt lat="44.8210917" lon="10.2319117"><ele>60.0</ele><time>2026-03-29T09:16:42.03Z</time></trkpt><trkpt lat="44.8211333" lon="10.2316917"><ele>60.0</ele><time>2026-03-29T09:16:43.031Z</time></trkpt><trkpt lat="44.821175" lon="10.231475"><ele>60.0</ele><time>2026-03-29T09:16:44.03Z</time></trkpt><trkpt lat="44.82122" lon="10.23126"><ele>60.0</ele><time>2026-03-29T09:16:45.031Z</time></trkpt><trkpt lat="44.8212667" lon="10.2310617"><ele>60.5</ele><time>2026-03-29T09:16:46.031Z</time></trkpt><trkpt lat="44.82131" lon="10.2308783"><ele>61.0</ele><time>2026-03-29T09:16:47.031Z</time></trkpt><trkpt lat="44.8213417" lon="10.230695"><ele>61.5</ele><time>2026-03-29T09:16:48.031Z</time></trkpt><trkpt lat="44.8213783" lon="10.2305117"><ele>62.0</ele><time>2026-03-29T09:16:49.031Z</time></trkpt><trkpt lat="44.82142" lon="10.2303383"><ele>62.5</ele><time>2026-03-29T09:16:50.031Z</time></trkpt><trkpt lat="44.8214617" lon="10.2301467"><ele>63.0</ele><time>2026-03-29T09:16:51.03Z</time></trkpt><trkpt lat="44.8215033" lon="10.229945"><ele>63.5</ele><time>2026-03-29T09:16:52.03Z</time></trkpt><trkpt lat="44.8215533" lon="10.2297383"><ele>64.0</ele><time>2026-03-29T09:16:53.031Z</time></trkpt><trkpt lat="44.8216" lon="10.2295117"><ele>64.0</ele><time>2026-03-29T09:16:54.03Z</time></trkpt><trkpt lat="44.821635" lon="10.229295"><ele>64.0</ele><time>2026-03-29T09:16:55.031Z</time></trkpt><trkpt lat="44.8216867" lon="10.2290683"><ele>64.0</ele><time>2026-03-29T09:16:56.031Z</time></trkpt><trkpt lat="44.8217217" lon="10.2288333"><ele>63.33333333333333</ele><time>2026-03-29T09:16:57.03Z</time></trkpt><trkpt lat="44.8217583" lon="10.2285883"><ele>62.66666666666667</ele><time>2026-03-29T09:16:58.031Z</time></trkpt><trkpt lat="44.8218167" lon="10.2283433"><ele>62.0</ele><time>2026-03-29T09:16:59.031Z</time></trkpt><trkpt lat="44.821855" lon="10.228095"><ele>61.0</ele><time>2026-03-29T09:17:00.03Z</time></trkpt><trkpt lat="44.8218983" lon="10.2278383"><ele>60.0</ele><time>2026-03-29T09:17:01.03Z</time></trkpt><trkpt lat="44.8219533" lon="10.2276067"><ele>59.0</ele><time>2026-03-29T09:17:02.031Z</time></trkpt><trkpt lat="44.82201" lon="10.227375"><ele>59.0</ele><time>2026-03-29T09:17:03.031Z</time></trkpt><trkpt lat="44.8220617" lon="10.227135"><ele>59.0</ele><time>2026-03-29T09:17:04.031Z</time></trkpt><trkpt lat="44.8221067" lon="10.2268967"><ele>59.0</ele><time>2026-03-29T09:17:05.031Z</time></trkpt><trkpt lat="44.82215" lon="10.2266633"><ele>58.333333333333336</ele><time>2026-03-29T09:17:06.03Z</time></trkpt><trkpt lat="44.8222" lon="10.226435"><ele>57.66666666666667</ele><time>2026-03-29T09:17:07.03Z</time></trkpt><trkpt lat="44.8222483" lon="10.2261983"><ele>57.0</ele><time>2026-03-29T09:17:08.031Z</time></trkpt><trkpt lat="44.8222967" lon="10.2259583"><ele>57.0</ele><time>2026-03-29T09:17:09.03Z</time></trkpt><trkpt lat="44.8223433" lon="10.2257183"><ele>57.0</ele><time>2026-03-29T09:17:10.031Z</time></trkpt><trkpt lat="44.822395" lon="10.22548"><ele>57.0</ele><time>2026-03-29T09:17:11.031Z</time></trkpt><trkpt lat="44.82244" lon="10.22524"><ele>56.66666666666667</ele><time>2026-03-29T09:17:12.03Z</time></trkpt><trkpt lat="44.8224917" lon="10.2249967"><ele>56.333333333333336</ele><time>2026-03-29T09:17:13.031Z</time></trkpt><trkpt lat="44.8225383" lon="10.2247533"><ele>56.0</ele><time>2026-03-29T09:17:14.03Z</time></trkpt><trkpt lat="44.8225883" lon="10.22451"><ele>56.0</ele><time>2026-03-29T09:17:15.031Z</time></trkpt><trkpt lat="44.8226383" lon="10.22427"><ele>56.0</ele><time>2026-03-29T09:17:16.031Z</time></trkpt><trkpt lat="44.8226867" lon="10.2240317"><ele>56.0</ele><time>2026-03-29T09:17:17.031Z</time></trkpt><trkpt lat="44.8227317" lon="10.2237967"><ele>57.0</ele><time>2026-03-29T09:17:18.03Z</time></trkpt><trkpt lat="44.8227817" lon="10.22356"><ele>58.0</ele><time>2026-03-29T09:17:19.031Z</time></trkpt><trkpt lat="44.822825" lon="10.22333"><ele>59.0</ele><time>2026-03-29T09:17:20.03Z</time></trkpt><trkpt lat="44.8228717" lon="10.2230983"><ele>59.66666666666667</ele><time>2026-03-29T09:17:21.03Z</time></trkpt><trkpt lat="44.8229233" lon="10.2228633"><ele>60.33333333333333</ele><time>2026-03-29T09:17:22.031Z</time></trkpt><trkpt lat="44.8229683" lon="10.2226333"><ele>61.0</ele><time>2026-03-29T09:17:23.031Z</time></trkpt><trkpt lat="44.8230183" lon="10.222405"><ele>61.0</ele><time>2026-03-29T09:17:24.03Z</time></trkpt><trkpt lat="44.8230583" lon="10.2221767"><ele>61.0</ele><time>2026-03-29T09:17:25.031Z</time></trkpt><trkpt lat="44.823105" lon="10.221965"><ele>61.0</ele><time>2026-03-29T09:17:26.03Z</time></trkpt><trkpt lat="44.8231517" lon="10.221755"><ele>61.0</ele><time>2026-03-29T09:17:27.031Z</time></trkpt><trkpt lat="44.82319" lon="10.2215583"><ele>61.0</ele><time>2026-03-29T09:17:28.031Z</time></trkpt><trkpt lat="44.8232283" lon="10.2213617"><ele>61.0</ele><time>2026-03-29T09:17:29.031Z</time></trkpt><trkpt lat="44.82327" lon="10.221165"><ele>61.0</ele><time>2026-03-29T09:17:30.031Z</time></trkpt><trkpt lat="44.823315" lon="10.2209767"><ele>61.0</ele><time>2026-03-29T09:17:31.031Z</time></trkpt><trkpt lat="44.82335" lon="10.22079"><ele>61.0</ele><time>2026-03-29T09:17:32.031Z</time></trkpt><trkpt lat="44.8233817" lon="10.2206133"><ele>61.0</ele><time>2026-03-29T09:17:33.03Z</time></trkpt><trkpt lat="44.82342" lon="10.2204383"><ele>61.0</ele><time>2026-03-29T09:17:34.031Z</time></trkpt><trkpt lat="44.8234583" lon="10.220275"><ele>61.25</ele><time>2026-03-29T09:17:35.031Z</time></trkpt><trkpt lat="44.823495" lon="10.2201067"><ele>61.5</ele><time>2026-03-29T09:17:36.03Z</time></trkpt><trkpt lat="44.8235267" lon="10.2199483"><ele>61.75</ele><time>2026-03-29T09:17:37.03Z</time></trkpt><trkpt lat="44.8235583" lon="10.219795"><ele>62.0</ele><time>2026-03-29T09:17:38.031Z</time></trkpt><trkpt lat="44.8235867" lon="10.2196483"><ele>62.0</ele><time>2026-03-29T09:17:39.031Z</time></trkpt><trkpt lat="44.8236167" lon="10.2194967"><ele>62.0</ele><time>2026-03-29T09:17:40.031Z</time></trkpt><trkpt lat="44.8236467" lon="10.2193483"><ele>62.0</ele><time>2026-03-29T09:17:41.031Z</time></trkpt><trkpt lat="44.8236733" lon="10.2192017"><ele>62.0</ele><time>2026-03-29T09:17:42.031Z</time></trkpt><trkpt lat="44.8237017" lon="10.2190483"><ele>62.0</ele><time>2026-03-29T09:17:43.031Z</time></trkpt><trkpt lat="44.823735" lon="10.2188917"><ele>62.0</ele><time>2026-03-29T09:17:44.03Z</time></trkpt><trkpt lat="44.82376" lon="10.2187383"><ele>62.0</ele><time>2026-03-29T09:17:45.031Z</time></trkpt><trkpt lat="44.82379" lon="10.218595"><ele>62.0</ele><time>2026-03-29T09:17:46.03Z</time></trkpt><trkpt lat="44.8238183" lon="10.2184567"><ele>62.0</ele><time>2026-03-29T09:17:47.03Z</time></trkpt><trkpt lat="44.82384" lon="10.2183283"><ele>62.0</ele><time>2026-03-29T09:17:48.031Z</time></trkpt><trkpt lat="44.82386" lon="10.2182133"><ele>61.8</ele><time>2026-03-29T09:17:49.031Z</time></trkpt><trkpt lat="44.823885" lon="10.2181117"><ele>61.6</ele><time>2026-03-29T09:17:50.031Z</time></trkpt><trkpt lat="44.8239" lon="10.218025"><ele>61.39999999999999</ele><time>2026-03-29T09:17:51.03Z</time></trkpt><trkpt lat="44.8239183" lon="10.21788"><ele>61.199999999999996</ele><time>2026-03-29T09:17:53.03Z</time></trkpt><trkpt lat="44.8239333" lon="10.2177183"><ele>61.0</ele><time>2026-03-29T09:17:55.031Z</time></trkpt><trkpt lat="44.8239617" lon="10.2175583"><ele>60.99999999999999</ele><time>2026-03-29T09:17:57.031Z</time></trkpt><trkpt lat="44.823955" lon="10.2174233"><ele>61.0</ele><time>2026-03-29T09:17:59.03Z</time></trkpt><trkpt lat="44.8238833" lon="10.2173517"><ele>61.0</ele><time>2026-03-29T09:18:01.031Z</time></trkpt><trkpt lat="44.8237733" lon="10.2173383"><ele>61.0</ele><time>2026-03-29T09:18:03.031Z</time></trkpt><trkpt lat="44.8237017" lon="10.2173433"><ele>60.99999999999999</ele><time>2026-03-29T09:18:04.03Z</time></trkpt><trkpt lat="44.8236233" lon="10.2173333"><ele>61.0</ele><time>2026-03-29T09:18:05.031Z</time></trkpt><trkpt lat="44.8235383" lon="10.2173067"><ele>61.0</ele><time>2026-03-29T09:18:06.03Z</time></trkpt><trkpt lat="44.8234517" lon="10.2172417"><ele>61.0</ele><time>2026-03-29T09:18:07.031Z</time></trkpt><trkpt lat="44.8233667" lon="10.217145"><ele>61.0</ele><time>2026-03-29T09:18:08.031Z</time></trkpt><trkpt lat="44.823265" lon="10.2170433"><ele>61.0</ele><time>2026-03-29T09:18:09.031Z</time></trkpt><trkpt lat="44.8231583" lon="10.21693"><ele>61.0</ele><time>2026-03-29T09:18:10.031Z</time></trkpt><trkpt lat="44.823035" lon="10.2168183"><ele>61.0</ele><time>2026-03-29T09:18:11.031Z</time></trkpt><trkpt lat="44.8229033" lon="10.216695"><ele>61.0</ele><time>2026-03-29T09:18:12.031Z</time></trkpt><trkpt lat="44.8227567" lon="10.2165617"><ele>60.666666666666664</ele><time>2026-03-29T09:18:13.031Z</time></trkpt><trkpt lat="44.822605" lon="10.2164267"><ele>60.33333333333333</ele><time>2026-03-29T09:18:14.031Z</time></trkpt><trkpt lat="44.82245" lon="10.2162683"><ele>60.0</ele><time>2026-03-29T09:18:15.031Z</time></trkpt><trkpt lat="44.82229" lon="10.2161167"><ele>60.0</ele><time>2026-03-29T09:18:16.03Z</time></trkpt><trkpt lat="44.8221167" lon="10.21596"><ele>60.0</ele><time>2026-03-29T09:18:17.03Z</time></trkpt><trkpt lat="44.8219517" lon="10.2157933"><ele>60.0</ele><time>2026-03-29T09:18:18.031Z</time></trkpt><trkpt lat="44.8217883" lon="10.2156467"><ele>60.0</ele><time>2026-03-29T09:18:19.03Z</time></trkpt><trkpt lat="44.8216283" lon="10.2155017"><ele>60.0</ele><time>2026-03-29T09:18:20.03Z</time></trkpt><trkpt lat="44.8214783" lon="10.2153533"><ele>60.0</ele><time>2026-03-29T09:18:21.03Z</time></trkpt><trkpt lat="44.821315" lon="10.2152117"><ele>60.0</ele><time>2026-03-29T09:18:22.031Z</time></trkpt><trkpt lat="44.8211683" lon="10.21507"><ele>60.0</ele><time>2026-03-29T09:18:23.031Z</time></trkpt><trkpt lat="44.8210267" lon="10.2149383"><ele>60.0</ele><time>2026-03-29T09:18:24.031Z</time></trkpt><trkpt lat="44.8208767" lon="10.2148133"><ele>60.33333333333333</ele><time>2026-03-29T09:18:25.031Z</time></trkpt><trkpt lat="44.8207417" lon="10.2146783"><ele>60.666666666666664</ele><time>2026-03-29T09:18:26.031Z</time></trkpt><trkpt lat="44.8206033" lon="10.2145717"><ele>61.0</ele><time>2026-03-29T09:18:27.03Z</time></trkpt><trkpt lat="44.820475" lon="10.2144567"><ele>61.0</ele><time>2026-03-29T09:18:28.031Z</time></trkpt><trkpt lat="44.8203583" lon="10.21435"><ele>61.0</ele><time>2026-03-29T09:18:29.031Z</time></trkpt><trkpt lat="44.82025" lon="10.2142533"><ele>61.0</ele><time>2026-03-29T09:18:30.031Z</time></trkpt><trkpt lat="44.8201533" lon="10.2141617"><ele>61.0</ele><time>2026-03-29T09:18:31.031Z</time></trkpt><trkpt lat="44.820055" lon="10.2140633"><ele>60.75</ele><time>2026-03-29T09:18:32.03Z</time></trkpt><trkpt lat="44.8199633" lon="10.213965"><ele>60.5</ele><time>2026-03-29T09:18:33.031Z</time></trkpt><trkpt lat="44.8198767" lon="10.2138617"><ele>60.25</ele><time>2026-03-29T09:18:34.03Z</time></trkpt><trkpt lat="44.8198033" lon="10.2137433"><ele>60.0</ele><time>2026-03-29T09:18:35.03Z</time></trkpt><trkpt lat="44.8197383" lon="10.21361"><ele>60.0</ele><time>2026-03-29T09:18:36.03Z</time></trkpt><trkpt lat="44.8196633" lon="10.21346"><ele>60.0</ele><time>2026-03-29T09:18:37.031Z</time></trkpt><trkpt lat="44.8195933" lon="10.2133017"><ele>60.0</ele><time>2026-03-29T09:18:38.03Z</time></trkpt><trkpt lat="44.819515" lon="10.2131433"><ele>60.0</ele><time>2026-03-29T09:18:39.031Z</time></trkpt><trkpt lat="44.819445" lon="10.21297"><ele>60.25</ele><time>2026-03-29T09:18:40.031Z</time></trkpt><trkpt lat="44.81937" lon="10.21281"><ele>60.5</ele><time>2026-03-29T09:18:41.031Z</time></trkpt><trkpt lat="44.8192917" lon="10.2126583"><ele>60.75</ele><time>2026-03-29T09:18:42.03Z</time></trkpt><trkpt lat="44.8192317" lon="10.2125117"><ele>61.0</ele><time>2026-03-29T09:18:43.031Z</time></trkpt><trkpt lat="44.819175" lon="10.21237"><ele>61.199999999999996</ele><time>2026-03-29T09:18:44.031Z</time></trkpt><trkpt lat="44.81913" lon="10.2122417"><ele>61.39999999999999</ele><time>2026-03-29T09:18:45.031Z</time></trkpt><trkpt lat="44.8191" lon="10.21211"><ele>61.6</ele><time>2026-03-29T09:18:46.031Z</time></trkpt><trkpt lat="44.8190883" lon="10.21198"><ele>61.8</ele><time>2026-03-29T09:18:47.03Z</time></trkpt><trkpt lat="44.819095" lon="10.2118383"><ele>62.0</ele><time>2026-03-29T09:18:48.03Z</time></trkpt><trkpt lat="44.8191117" lon="10.2116917"><ele>62.0</ele><time>2026-03-29T09:18:49.03Z</time></trkpt><trkpt lat="44.8191417" lon="10.2115467"><ele>62.0</ele><time>2026-03-29T09:18:50.031Z</time></trkpt><trkpt lat="44.8191783" lon="10.2114083"><ele>62.0</ele><time>2026-03-29T09:18:51.031Z</time></trkpt><trkpt lat="44.819215" lon="10.21128"><ele>62.0</ele><time>2026-03-29T09:18:52.031Z</time></trkpt><trkpt lat="44.8192433" lon="10.2111583"><ele>62.0</ele><time>2026-03-29T09:18:53.031Z</time></trkpt><trkpt lat="44.819265" lon="10.2110383"><ele>62.0</ele><time>2026-03-29T09:18:54.031Z</time></trkpt><trkpt lat="44.8192717" lon="10.2109117"><ele>62.0</ele><time>2026-03-29T09:18:55.03Z</time></trkpt><trkpt lat="44.8192633" lon="10.2107783"><ele>62.0</ele><time>2026-03-29T09:18:56.031Z</time></trkpt><trkpt lat="44.81924" lon="10.2106517"><ele>62.0</ele><time>2026-03-29T09:18:57.031Z</time></trkpt><trkpt lat="44.8191967" lon="10.210535"><ele>62.0</ele><time>2026-03-29T09:18:58.031Z</time></trkpt><trkpt lat="44.8191417" lon="10.2104133"><ele>62.0</ele><time>2026-03-29T09:18:59.03Z</time></trkpt><trkpt lat="44.8190717" lon="10.2102783"><ele>62.0</ele><time>2026-03-29T09:19:00.031Z</time></trkpt><trkpt lat="44.8189967" lon="10.21013"><ele>62.0</ele><time>2026-03-29T09:19:01.031Z</time></trkpt><trkpt lat="44.8189183" lon="10.2099633"><ele>62.0</ele><time>2026-03-29T09:19:02.031Z</time></trkpt><trkpt lat="44.8188333" lon="10.2097867"><ele>62.66666666666667</ele><time>2026-03-29T09:19:03.03Z</time></trkpt><trkpt lat="44.818745" lon="10.2095983"><ele>63.33333333333333</ele><time>2026-03-29T09:19:04.031Z</time></trkpt><trkpt lat="44.81866" lon="10.2094117"><ele>64.0</ele><time>2026-03-29T09:19:05.031Z</time></trkpt><trkpt lat="44.8185883" lon="10.20923"><ele>64.0</ele><time>2026-03-29T09:19:06.031Z</time></trkpt><trkpt lat="44.81853" lon="10.20905"><ele>64.0</ele><time>2026-03-29T09:19:07.03Z</time></trkpt><trkpt lat="44.8184733" lon="10.2088783"><ele>64.0</ele><time>2026-03-29T09:19:08.031Z</time></trkpt><trkpt lat="44.818405" lon="10.2087117"><ele>64.0</ele><time>2026-03-29T09:19:09.031Z</time></trkpt><trkpt lat="44.8183217" lon="10.2085567"><ele>64.0</ele><time>2026-03-29T09:19:10.03Z</time></trkpt><trkpt lat="44.81822" lon="10.2084067"><ele>64.0</ele><time>2026-03-29T09:19:11.031Z</time></trkpt><trkpt lat="44.8181" lon="10.2082583"><ele>64.0</ele><time>2026-03-29T09:19:12.03Z</time></trkpt><trkpt lat="44.8179783" lon="10.2081033"><ele>64.0</ele><time>2026-03-29T09:19:13.031Z</time></trkpt><trkpt lat="44.81784" lon="10.2079517"><ele>64.0</ele><time>2026-03-29T09:19:14.031Z</time></trkpt><trkpt lat="44.8176964" lon="10.2077883"><ele>64.0</ele><time>2026-03-29T09:19:15.031Z</time></trkpt><trkpt lat="44.8175537" lon="10.2076221"><ele>64.33333333333333</ele><time>2026-03-29T09:19:16.031Z</time></trkpt><trkpt lat="44.8173983" lon="10.2074706"><ele>64.66666666666667</ele><time>2026-03-29T09:19:17.03Z</time></trkpt><trkpt lat="44.8172412" lon="10.2073258"><ele>65.0</ele><time>2026-03-29T09:19:18.031Z</time></trkpt><trkpt lat="44.8170822" lon="10.2071935"><ele>65.0</ele><time>2026-03-29T09:19:19.031Z</time></trkpt><trkpt lat="44.8169116" lon="10.207079"><ele>65.0</ele><time>2026-03-29T09:19:20.03Z</time></trkpt><trkpt lat="44.8167459" lon="10.2069801"><ele>65.0</ele><time>2026-03-29T09:19:21.03Z</time></trkpt><trkpt lat="44.8165837" lon="10.2068866"><ele>65.0</ele><time>2026-03-29T09:19:22.03Z</time></trkpt><trkpt lat="44.8164226" lon="10.2067839"><ele>65.0</ele><time>2026-03-29T09:19:23.031Z</time></trkpt><trkpt lat="44.8162741" lon="10.2066696"><ele>65.0</ele><time>2026-03-29T09:19:24.03Z</time></trkpt><trkpt lat="44.8161342" lon="10.2065506"><ele>64.66666666666667</ele><time>2026-03-29T09:19:25.031Z</time></trkpt><trkpt lat="44.8159911" lon="10.2064258"><ele>64.33333333333333</ele><time>2026-03-29T09:19:26.031Z</time></trkpt><trkpt lat="44.8158535" lon="10.206297"><ele>64.0</ele><time>2026-03-29T09:19:27.031Z</time></trkpt><trkpt lat="44.8157197" lon="10.2061714"><ele>63.75</ele><time>2026-03-29T09:19:28.031Z</time></trkpt><trkpt lat="44.8155916" lon="10.2060537"><ele>63.5</ele><time>2026-03-29T09:19:29.03Z</time></trkpt><trkpt lat="44.8154691" lon="10.2059479"><ele>63.25</ele><time>2026-03-29T09:19:30.031Z</time></trkpt><trkpt lat="44.8153647" lon="10.2058473"><ele>63.0</ele><time>2026-03-29T09:19:31.031Z</time></trkpt><trkpt lat="44.8152826" lon="10.2057683"><ele>63.0</ele><time>2026-03-29T09:19:32.031Z</time></trkpt><trkpt lat="44.8152223" lon="10.2057131"><ele>63.0</ele><time>2026-03-29T09:19:33.03Z</time></trkpt><trkpt lat="44.8151654" lon="10.2056674"><ele>63.0</ele><time>2026-03-29T09:19:34.031Z</time></trkpt><trkpt lat="44.8151023" lon="10.2056238"><ele>63.0</ele><time>2026-03-29T09:19:35.031Z</time></trkpt><trkpt lat="44.8150378" lon="10.2055756"><ele>63.0</ele><time>2026-03-29T09:19:36.032Z</time></trkpt><trkpt lat="44.8149731" lon="10.2055193"><ele>63.0</ele><time>2026-03-29T09:19:37.032Z</time></trkpt><trkpt lat="44.8149185" lon="10.2054489"><ele>63.0</ele><time>2026-03-29T09:19:38.032Z</time></trkpt><trkpt lat="44.8148737" lon="10.2053608"><ele>63.285714285714285</ele><time>2026-03-29T09:19:39.031Z</time></trkpt><trkpt lat="44.8148264" lon="10.2052641"><ele>63.57142857142857</ele><time>2026-03-29T09:19:40.032Z</time></trkpt><trkpt lat="44.8147759" lon="10.2051745"><ele>63.85714285714286</ele><time>2026-03-29T09:19:41.032Z</time></trkpt><trkpt lat="44.8147302" lon="10.2050932"><ele>64.14285714285714</ele><time>2026-03-29T09:19:42.031Z</time></trkpt><trkpt lat="44.8146876" lon="10.2050134"><ele>64.42857142857143</ele><time>2026-03-29T09:19:43.032Z</time></trkpt><trkpt lat="44.8146489" lon="10.2049328"><ele>64.71428571428572</ele><time>2026-03-29T09:19:44.031Z</time></trkpt><trkpt lat="44.8146113" lon="10.2048597"><ele>65.0</ele><time>2026-03-29T09:19:45.032Z</time></trkpt><trkpt lat="44.8145533" lon="10.2047388"><ele>65.2</ele><time>2026-03-29T09:19:47.032Z</time></trkpt><trkpt lat="44.8145126" lon="10.2046617"><ele>65.4</ele><time>2026-03-29T09:19:49.032Z</time></trkpt><trkpt lat="44.814473" lon="10.2045917"><ele>65.6</ele><time>2026-03-29T09:20:19.031Z</time></trkpt><trkpt lat="44.8144031" lon="10.2044497"><ele>65.8</ele><time>2026-03-29T09:20:21.032Z</time></trkpt><trkpt lat="44.8143452" lon="10.2043378"><ele>66.0</ele><time>2026-03-29T09:20:22.032Z</time></trkpt><trkpt lat="44.8142782" lon="10.2042086"><ele>66.0</ele><time>2026-03-29T09:20:23.032Z</time></trkpt><trkpt lat="44.8142037" lon="10.2040648"><ele>66.0</ele><time>2026-03-29T09:20:24.032Z</time></trkpt><trkpt lat="44.8141315" lon="10.2039265"><ele>66.0</ele><time>2026-03-29T09:20:25.032Z</time></trkpt><trkpt lat="44.8140672" lon="10.2037984"><ele>66.0</ele><time>2026-03-29T09:20:26.032Z</time></trkpt><trkpt lat="44.814004" lon="10.2036701"><ele>66.2</ele><time>2026-03-29T09:20:27.032Z</time></trkpt><trkpt lat="44.813944" lon="10.203549"><ele>66.39999999999999</ele><time>2026-03-29T09:20:28.031Z</time></trkpt><trkpt lat="44.8138871" lon="10.2034288"><ele>66.6</ele><time>2026-03-29T09:20:29.032Z</time></trkpt><trkpt lat="44.8138273" lon="10.2033136"><ele>66.8</ele><time>2026-03-29T09:20:30.032Z</time></trkpt><trkpt lat="44.813769" lon="10.2032095"><ele>67.0</ele><time>2026-03-29T09:20:31.032Z</time></trkpt><trkpt lat="44.8137228" lon="10.2031085"><ele>67.0</ele><time>2026-03-29T09:20:32.031Z</time></trkpt><trkpt lat="44.8136776" lon="10.2030277"><ele>67.0</ele><time>2026-03-29T09:20:33.032Z</time></trkpt><trkpt lat="44.8136264" lon="10.2029572"><ele>67.0</ele><time>2026-03-29T09:20:34.032Z</time></trkpt><trkpt lat="44.8135636" lon="10.2028931"><ele>67.0</ele><time>2026-03-29T09:20:35.031Z</time></trkpt><trkpt lat="44.8134854" lon="10.2028313"><ele>67.0</ele><time>2026-03-29T09:20:36.032Z</time></trkpt><trkpt lat="44.8133929" lon="10.2027576"><ele>67.0</ele><time>2026-03-29T09:20:37.032Z</time></trkpt><trkpt lat="44.8132817" lon="10.2026975"><ele>66.5</ele><time>2026-03-29T09:20:38.031Z</time></trkpt><trkpt lat="44.8131618" lon="10.2026346"><ele>66.0</ele><time>2026-03-29T09:20:39.032Z</time></trkpt><trkpt lat="44.8130354" lon="10.2025739"><ele>65.5</ele><time>2026-03-29T09:20:40.032Z</time></trkpt><trkpt lat="44.8129089" lon="10.2025126"><ele>65.0</ele><time>2026-03-29T09:20:41.032Z</time></trkpt><trkpt lat="44.8127796" lon="10.2024651"><ele>65.0</ele><time>2026-03-29T09:20:42.032Z</time></trkpt><trkpt lat="44.8126681" lon="10.2024113"><ele>65.0</ele><time>2026-03-29T09:20:43.032Z</time></trkpt><trkpt lat="44.8125604" lon="10.2023674"><ele>65.0</ele><time>2026-03-29T09:20:44.031Z</time></trkpt><trkpt lat="44.8124722" lon="10.2023267"><ele>65.0</ele><time>2026-03-29T09:20:45.032Z</time></trkpt><trkpt lat="44.8123938" lon="10.202296"><ele>65.0</ele><time>2026-03-29T09:20:46.031Z</time></trkpt><trkpt lat="44.81232" lon="10.2022679"><ele>65.4</ele><time>2026-03-29T09:20:47.032Z</time></trkpt><trkpt lat="44.8122522" lon="10.2022286"><ele>65.8</ele><time>2026-03-29T09:20:48.032Z</time></trkpt><trkpt lat="44.8121385" lon="10.202178"><ele>66.2</ele><time>2026-03-29T09:20:50.032Z</time></trkpt><trkpt lat="44.8120359" lon="10.2021882"><ele>66.6</ele><time>2026-03-29T09:20:52.032Z</time></trkpt><trkpt lat="44.8119533" lon="10.2022509"><ele>67.0</ele><time>2026-03-29T09:20:54.031Z</time></trkpt><trkpt lat="44.8119075" lon="10.202333"><ele>67.0</ele><time>2026-03-29T09:20:55.031Z</time></trkpt><trkpt lat="44.8118751" lon="10.202438"><ele>67.0</ele><time>2026-03-29T09:20:56.032Z</time></trkpt><trkpt lat="44.8118471" lon="10.2025529"><ele>67.0</ele><time>2026-03-29T09:20:57.032Z</time></trkpt><trkpt lat="44.8118175" lon="10.2026822"><ele>67.0</ele><time>2026-03-29T09:20:58.032Z</time></trkpt><trkpt lat="44.8117807" lon="10.2028167"><ele>67.0</ele><time>2026-03-29T09:20:59.031Z</time></trkpt><trkpt lat="44.8117317" lon="10.2029536"><ele>67.0</ele><time>2026-03-29T09:21:00.031Z</time></trkpt><trkpt lat="44.8116948" lon="10.203087"><ele>67.0</ele><time>2026-03-29T09:21:01.032Z</time></trkpt><trkpt lat="44.8116662" lon="10.2031948"><ele>67.0</ele><time>2026-03-29T09:21:02.032Z</time></trkpt><trkpt lat="44.8116384" lon="10.2032854"><ele>67.0</ele><time>2026-03-29T09:21:03.031Z</time></trkpt><trkpt lat="44.8116109" lon="10.2033659"><ele>67.0</ele><time>2026-03-29T09:21:04.032Z</time></trkpt><trkpt lat="44.8115542" lon="10.2034953"><ele>67.0</ele><time>2026-03-29T09:21:06.032Z</time></trkpt><trkpt lat="44.8114849" lon="10.2035768"><ele>67.0</ele><time>2026-03-29T09:21:08.032Z</time></trkpt><trkpt lat="44.8113766" lon="10.2036009"><ele>67.0</ele><time>2026-03-29T09:21:10.032Z</time></trkpt><trkpt lat="44.8113116" lon="10.203586"><ele>67.0</ele><time>2026-03-29T09:21:11.031Z</time></trkpt><trkpt lat="44.811237" lon="10.2035593"><ele>67.0</ele><time>2026-03-29T09:21:12.032Z</time></trkpt><trkpt lat="44.8111523" lon="10.2035205"><ele>67.0</ele><time>2026-03-29T09:21:13.032Z</time></trkpt><trkpt lat="44.8110573" lon="10.2034722"><ele>67.0</ele><time>2026-03-29T09:21:14.031Z</time></trkpt><trkpt lat="44.8109507" lon="10.2034222"><ele>67.0</ele><time>2026-03-29T09:21:15.031Z</time></trkpt><trkpt lat="44.8108342" lon="10.2033609"><ele>67.0</ele><time>2026-03-29T09:21:16.032Z</time></trkpt><trkpt lat="44.8106932" lon="10.2032977"><ele>67.0</ele><time>2026-03-29T09:21:17.031Z</time></trkpt><trkpt lat="44.8105366" lon="10.2032349"><ele>67.0</ele><time>2026-03-29T09:21:18.031Z</time></trkpt><trkpt lat="44.8103859" lon="10.2031682"><ele>67.25</ele><time>2026-03-29T09:21:19.032Z</time></trkpt><trkpt lat="44.8102379" lon="10.2031029"><ele>67.5</ele><time>2026-03-29T09:21:20.031Z</time></trkpt><trkpt lat="44.8101" lon="10.2030394"><ele>67.75</ele><time>2026-03-29T09:21:21.032Z</time></trkpt><trkpt lat="44.8099608" lon="10.2029837"><ele>68.0</ele><time>2026-03-29T09:21:22.032Z</time></trkpt><trkpt lat="44.8098336" lon="10.2029278"><ele>68.0</ele><time>2026-03-29T09:21:23.032Z</time></trkpt><trkpt lat="44.8097178" lon="10.2028817"><ele>68.0</ele><time>2026-03-29T09:21:24.032Z</time></trkpt><trkpt lat="44.8096197" lon="10.2028397"><ele>68.0</ele><time>2026-03-29T09:21:25.031Z</time></trkpt><trkpt lat="44.8095293" lon="10.2027966"><ele>68.0</ele><time>2026-03-29T09:21:26.032Z</time></trkpt><trkpt lat="44.8094438" lon="10.2027589"><ele>68.0</ele><time>2026-03-29T09:21:27.031Z</time></trkpt><trkpt lat="44.809369" lon="10.2027248"><ele>67.66666666666667</ele><time>2026-03-29T09:21:28.031Z</time></trkpt><trkpt lat="44.8092994" lon="10.2026891"><ele>67.33333333333334</ele><time>2026-03-29T09:21:29.032Z</time></trkpt><trkpt lat="44.8092361" lon="10.2026523"><ele>67.0</ele><time>2026-03-29T09:21:30.032Z</time></trkpt><trkpt lat="44.8091281" lon="10.2025912"><ele>66.66666666666667</ele><time>2026-03-29T09:21:32.032Z</time></trkpt><trkpt lat="44.8090412" lon="10.2025411"><ele>66.33333333333333</ele><time>2026-03-29T09:21:34.032Z</time></trkpt><trkpt lat="44.8089567" lon="10.2025183"><ele>66.0</ele><time>2026-03-29T09:21:37.032Z</time></trkpt><trkpt lat="44.8089667" lon="10.2026083"><ele>66.0</ele><time>2026-03-29T09:22:06.032Z</time></trkpt><trkpt lat="44.80906" lon="10.2026367"><ele>66.0</ele><time>2026-03-29T09:22:08.032Z</time></trkpt><trkpt lat="44.8091267" lon="10.2026533"><ele>66.0</ele><time>2026-03-29T09:22:09.031Z</time></trkpt><trkpt lat="44.8091983" lon="10.2026833"><ele>66.0</ele><time>2026-03-29T09:22:10.032Z</time></trkpt><trkpt lat="44.8092833" lon="10.20272"><ele>66.0</ele><time>2026-03-29T09:22:11.032Z</time></trkpt><trkpt lat="44.80937" lon="10.2027583"><ele>66.0</ele><time>2026-03-29T09:22:12.032Z</time></trkpt><trkpt lat="44.8094583" lon="10.2028"><ele>66.33333333333333</ele><time>2026-03-29T09:22:13.031Z</time></trkpt><trkpt lat="44.80953" lon="10.2028367"><ele>66.66666666666667</ele><time>2026-03-29T09:22:14.031Z</time></trkpt><trkpt lat="44.8096067" lon="10.20288"><ele>67.0</ele><time>2026-03-29T09:22:15.032Z</time></trkpt><trkpt lat="44.8096683" lon="10.2029033"><ele>67.33333333333334</ele><time>2026-03-29T09:22:16.032Z</time></trkpt><trkpt lat="44.8097333" lon="10.20292"><ele>67.66666666666667</ele><time>2026-03-29T09:22:17.031Z</time></trkpt><trkpt lat="44.8098317" lon="10.20299"><ele>68.0</ele><time>2026-03-29T09:22:19.032Z</time></trkpt><trkpt lat="44.809885" lon="10.2031033"><ele>67.5</ele><time>2026-03-29T09:22:21.031Z</time></trkpt><trkpt lat="44.8099033" lon="10.2032317"><ele>67.0</ele><time>2026-03-29T09:22:23.032Z</time></trkpt><trkpt lat="44.8098917" lon="10.2033317"><ele>66.5</ele><time>2026-03-29T09:22:24.031Z</time></trkpt><trkpt lat="44.809875" lon="10.2034317"><ele>66.0</ele><time>2026-03-29T09:22:25.032Z</time></trkpt><trkpt lat="44.80984" lon="10.2035433"><ele>65.5</ele><time>2026-03-29T09:22:26.032Z</time></trkpt><trkpt lat="44.8098167" lon="10.20367"><ele>65.0</ele><time>2026-03-29T09:22:27.032Z</time></trkpt><trkpt lat="44.809785" lon="10.2037817"><ele>65.0</ele><time>2026-03-29T09:22:28.031Z</time></trkpt><trkpt lat="44.8097633" lon="10.2038867"><ele>65.0</ele><time>2026-03-29T09:22:29.031Z</time></trkpt><trkpt lat="44.8097433" lon="10.2039883"><ele>65.0</ele><time>2026-03-29T09:22:30.032Z</time></trkpt><trkpt lat="44.8097217" lon="10.2040733"><ele>65.0</ele><time>2026-03-29T09:22:31.032Z</time></trkpt><trkpt lat="44.8096717" lon="10.2041933"><ele>65.0</ele><time>2026-03-29T09:22:33.032Z</time></trkpt><trkpt lat="44.8095683" lon="10.2042433"><ele>65.0</ele><time>2026-03-29T09:22:51.032Z</time></trkpt><trkpt lat="44.8094867" lon="10.20416"><ele>65.0</ele><time>2026-03-29T09:22:54.031Z</time></trkpt><trkpt lat="44.80941" lon="10.20402"><ele>65.0</ele><time>2026-03-29T09:22:56.032Z</time></trkpt><trkpt lat="44.8093533" lon="10.203915"><ele>65.0</ele><time>2026-03-29T09:22:57.032Z</time></trkpt><trkpt lat="44.809295" lon="10.2037917"><ele>65.0</ele><time>2026-03-29T09:22:58.032Z</time></trkpt><trkpt lat="44.8092267" lon="10.2036567"><ele>65.0</ele><time>2026-03-29T09:22:59.032Z</time></trkpt><trkpt lat="44.8091517" lon="10.20352"><ele>65.25</ele><time>2026-03-29T09:23:00.032Z</time></trkpt><trkpt lat="44.8090767" lon="10.2033833"><ele>65.5</ele><time>2026-03-29T09:23:01.032Z</time></trkpt><trkpt lat="44.8090033" lon="10.20324"><ele>65.75</ele><time>2026-03-29T09:23:02.032Z</time></trkpt><trkpt lat="44.80894" lon="10.2030967"><ele>66.0</ele><time>2026-03-29T09:23:03.032Z</time></trkpt><trkpt lat="44.8088767" lon="10.2029467"><ele>66.0</ele><time>2026-03-29T09:23:04.031Z</time></trkpt><trkpt lat="44.8088267" lon="10.2027917"><ele>66.0</ele><time>2026-03-29T09:23:05.032Z</time></trkpt><trkpt lat="44.8087783" lon="10.2026333"><ele>66.0</ele><time>2026-03-29T09:23:06.032Z</time></trkpt><trkpt lat="44.8087233" lon="10.20248"><ele>66.0</ele><time>2026-03-29T09:23:07.031Z</time></trkpt><trkpt lat="44.80867" lon="10.2023383"><ele>66.39999999999999</ele><time>2026-03-29T09:23:08.032Z</time></trkpt><trkpt lat="44.8086183" lon="10.202215"><ele>66.8</ele><time>2026-03-29T09:23:09.032Z</time></trkpt><trkpt lat="44.8085867" lon="10.2021"><ele>67.19999999999999</ele><time>2026-03-29T09:23:10.031Z</time></trkpt><trkpt lat="44.8085317" lon="10.2020033"><ele>67.6</ele><time>2026-03-29T09:23:11.032Z</time></trkpt><trkpt lat="44.8084583" lon="10.2019117"><ele>68.0</ele><time>2026-03-29T09:23:12.031Z</time></trkpt><trkpt lat="44.8083617" lon="10.2018383"><ele>68.25</ele><time>2026-03-29T09:23:13.031Z</time></trkpt><trkpt lat="44.8082583" lon="10.2017667"><ele>68.5</ele><time>2026-03-29T09:23:14.032Z</time></trkpt><trkpt lat="44.80815" lon="10.2016883"><ele>68.75</ele><time>2026-03-29T09:23:15.032Z</time></trkpt><trkpt lat="44.80805" lon="10.2016117"><ele>69.0</ele><time>2026-03-29T09:23:16.032Z</time></trkpt><trkpt lat="44.80794" lon="10.20154"><ele>68.8</ele><time>2026-03-29T09:23:17.032Z</time></trkpt><trkpt lat="44.80784" lon="10.20147"><ele>68.60000000000001</ele><time>2026-03-29T09:23:18.032Z</time></trkpt><trkpt lat="44.8077467" lon="10.2013967"><ele>68.4</ele><time>2026-03-29T09:23:19.032Z</time></trkpt><trkpt lat="44.807665" lon="10.2013233"><ele>68.2</ele><time>2026-03-29T09:23:20.032Z</time></trkpt><trkpt lat="44.8075867" lon="10.20126"><ele>68.0</ele><time>2026-03-29T09:23:21.032Z</time></trkpt><trkpt lat="44.80751" lon="10.2012017"><ele>67.66666666666667</ele><time>2026-03-29T09:23:22.032Z</time></trkpt><trkpt lat="44.8074433" lon="10.2011417"><ele>67.33333333333334</ele><time>2026-03-29T09:23:23.032Z</time></trkpt><trkpt lat="44.807385" lon="10.20109"><ele>67.0</ele><time>2026-03-29T09:23:24.032Z</time></trkpt><trkpt lat="44.8072917" lon="10.201005"><ele>66.66666666666667</ele><time>2026-03-29T09:23:26.031Z</time></trkpt><trkpt lat="44.8072367" lon="10.20095"><ele>66.33333333333333</ele><time>2026-03-29T09:23:28.031Z</time></trkpt><trkpt lat="44.807165" lon="10.20098"><ele>66.0</ele><time>2026-03-29T09:23:35.031Z</time></trkpt><trkpt lat="44.8071133" lon="10.2010883"><ele>66.0</ele><time>2026-03-29T09:23:37.032Z</time></trkpt><trkpt lat="44.80705" lon="10.2012333"><ele>66.0</ele><time>2026-03-29T09:23:39.032Z</time></trkpt><trkpt lat="44.8069817" lon="10.201355"><ele>66.0</ele><time>2026-03-29T09:23:41.032Z</time></trkpt><trkpt lat="44.8068583" lon="10.2013833"><ele>66.0</ele><time>2026-03-29T09:23:43.032Z</time></trkpt><trkpt lat="44.80678" lon="10.2013583"><ele>66.0</ele><time>2026-03-29T09:23:44.032Z</time></trkpt><trkpt lat="44.8066833" lon="10.2013283"><ele>66.5</ele><time>2026-03-29T09:23:45.032Z</time></trkpt><trkpt lat="44.8065767" lon="10.2012833"><ele>67.0</ele><time>2026-03-29T09:23:46.032Z</time></trkpt><trkpt lat="44.8064633" lon="10.2012383"><ele>67.5</ele><time>2026-03-29T09:23:47.032Z</time></trkpt><trkpt lat="44.80634" lon="10.2011867"><ele>68.0</ele><time>2026-03-29T09:23:48.032Z</time></trkpt><trkpt lat="44.8062117" lon="10.201135"><ele>68.0</ele><time>2026-03-29T09:23:49.032Z</time></trkpt><trkpt lat="44.806075" lon="10.2010817"><ele>68.0</ele><time>2026-03-29T09:23:50.032Z</time></trkpt><trkpt lat="44.80594" lon="10.2010167"><ele>68.0</ele><time>2026-03-29T09:23:51.032Z</time></trkpt><trkpt lat="44.805805" lon="10.2009467"><ele>68.0</ele><time>2026-03-29T09:23:52.032Z</time></trkpt><trkpt lat="44.8056817" lon="10.2008833"><ele>68.25</ele><time>2026-03-29T09:23:53.031Z</time></trkpt><trkpt lat="44.80556" lon="10.2008333"><ele>68.5</ele><time>2026-03-29T09:23:54.032Z</time></trkpt><trkpt lat="44.8054467" lon="10.2007883"><ele>68.75</ele><time>2026-03-29T09:23:55.032Z</time></trkpt><trkpt lat="44.8053367" lon="10.2007517"><ele>69.0</ele><time>2026-03-29T09:23:56.032Z</time></trkpt><trkpt lat="44.8052283" lon="10.2007167"><ele>69.0</ele><time>2026-03-29T09:23:57.032Z</time></trkpt><trkpt lat="44.805125" lon="10.2006817"><ele>69.0</ele><time>2026-03-29T09:23:58.032Z</time></trkpt><trkpt lat="44.8050283" lon="10.200645"><ele>69.0</ele><time>2026-03-29T09:23:59.032Z</time></trkpt><trkpt lat="44.804935" lon="10.2006083"><ele>69.0</ele><time>2026-03-29T09:24:00.032Z</time></trkpt><trkpt lat="44.80485" lon="10.2005667"><ele>69.0</ele><time>2026-03-29T09:24:01.032Z</time></trkpt><trkpt lat="44.8047667" lon="10.20052"><ele>69.25</ele><time>2026-03-29T09:24:02.032Z</time></trkpt><trkpt lat="44.80467" lon="10.20048"><ele>69.5</ele><time>2026-03-29T09:24:03.032Z</time></trkpt><trkpt lat="44.8045617" lon="10.200425"><ele>69.75</ele><time>2026-03-29T09:24:04.032Z</time></trkpt><trkpt lat="44.8044483" lon="10.2003383"><ele>70.0</ele><time>2026-03-29T09:24:05.032Z</time></trkpt><trkpt lat="44.8043183" lon="10.200245"><ele>70.33333333333333</ele><time>2026-03-29T09:24:06.032Z</time></trkpt><trkpt lat="44.8041717" lon="10.2001483"><ele>70.66666666666667</ele><time>2026-03-29T09:24:07.032Z</time></trkpt><trkpt lat="44.8040217" lon="10.20003"><ele>71.0</ele><time>2026-03-29T09:24:08.031Z</time></trkpt><trkpt lat="44.8038567" lon="10.1999183"><ele>71.0</ele><time>2026-03-29T09:24:09.032Z</time></trkpt><trkpt lat="44.8036983" lon="10.1998017"><ele>71.0</ele><time>2026-03-29T09:24:10.032Z</time></trkpt><trkpt lat="44.8035533" lon="10.199685"><ele>71.0</ele><time>2026-03-29T09:24:11.031Z</time></trkpt><trkpt lat="44.8034117" lon="10.1995783"><ele>71.0</ele><time>2026-03-29T09:24:12.032Z</time></trkpt><trkpt lat="44.803275" lon="10.1994767"><ele>71.0</ele><time>2026-03-29T09:24:13.032Z</time></trkpt><trkpt lat="44.80314" lon="10.1993733"><ele>71.0</ele><time>2026-03-29T09:24:14.031Z</time></trkpt><trkpt lat="44.8029983" lon="10.19928"><ele>71.0</ele><time>2026-03-29T09:24:15.032Z</time></trkpt><trkpt lat="44.8028617" lon="10.1991867"><ele>71.0</ele><time>2026-03-29T09:24:16.032Z</time></trkpt><trkpt lat="44.8027333" lon="10.1990967"><ele>71.0</ele><time>2026-03-29T09:24:17.032Z</time></trkpt><trkpt lat="44.802625" lon="10.1990167"><ele>71.0</ele><time>2026-03-29T09:24:18.031Z</time></trkpt><trkpt lat="44.8025467" lon="10.1989617"><ele>70.6</ele><time>2026-03-29T09:24:19.032Z</time></trkpt><trkpt lat="44.80249" lon="10.1989217"><ele>70.19999999999999</ele><time>2026-03-29T09:24:20.032Z</time></trkpt><trkpt lat="44.8024033" lon="10.19886"><ele>69.80000000000001</ele><time>2026-03-29T09:24:22.032Z</time></trkpt><trkpt lat="44.8023133" lon="10.1987733"><ele>69.4</ele><time>2026-03-29T09:24:57.032Z</time></trkpt><trkpt lat="44.802185" lon="10.19869"><ele>69.0</ele><time>2026-03-29T09:24:59.031Z</time></trkpt><trkpt lat="44.8020983" lon="10.1986267"><ele>69.0</ele><time>2026-03-29T09:25:00.032Z</time></trkpt><trkpt lat="44.8020017" lon="10.1985567"><ele>69.0</ele><time>2026-03-29T09:25:01.031Z</time></trkpt><trkpt lat="44.80191" lon="10.1984833"><ele>69.0</ele><time>2026-03-29T09:25:02.032Z</time></trkpt><trkpt lat="44.80181" lon="10.1984067"><ele>69.0</ele><time>2026-03-29T09:25:03.032Z</time></trkpt><trkpt lat="44.8016933" lon="10.1983217"><ele>69.4</ele><time>2026-03-29T09:25:04.032Z</time></trkpt><trkpt lat="44.8015883" lon="10.1982383"><ele>69.80000000000001</ele><time>2026-03-29T09:25:05.031Z</time></trkpt><trkpt lat="44.8014917" lon="10.1981633"><ele>70.19999999999999</ele><time>2026-03-29T09:25:06.031Z</time></trkpt><trkpt lat="44.801405" lon="10.1980933"><ele>70.6</ele><time>2026-03-29T09:25:07.032Z</time></trkpt><trkpt lat="44.801325" lon="10.198035"><ele>71.0</ele><time>2026-03-29T09:25:08.032Z</time></trkpt><trkpt lat="44.801255" lon="10.1979767"><ele>71.0</ele><time>2026-03-29T09:25:09.031Z</time></trkpt><trkpt lat="44.80119" lon="10.197925"><ele>71.0</ele><time>2026-03-29T09:25:10.032Z</time></trkpt><trkpt lat="44.8010983" lon="10.1978233"><ele>71.0</ele><time>2026-03-29T09:25:12.031Z</time></trkpt><trkpt lat="44.8010317" lon="10.197685"><ele>71.0</ele><time>2026-03-29T09:25:14.032Z</time></trkpt><trkpt lat="44.8010117" lon="10.19751"><ele>71.0</ele><time>2026-03-29T09:25:16.031Z</time></trkpt><trkpt lat="44.8010267" lon="10.19741"><ele>70.8</ele><time>2026-03-29T09:25:17.032Z</time></trkpt><trkpt lat="44.8010517" lon="10.1973067"><ele>70.6</ele><time>2026-03-29T09:25:18.032Z</time></trkpt><trkpt lat="44.8010817" lon="10.1971883"><ele>70.4</ele><time>2026-03-29T09:25:19.031Z</time></trkpt><trkpt lat="44.80111" lon="10.1970567"><ele>70.2</ele><time>2026-03-29T09:25:20.031Z</time></trkpt><trkpt lat="44.80114" lon="10.1969183"><ele>70.0</ele><time>2026-03-29T09:25:21.032Z</time></trkpt><trkpt lat="44.8011683" lon="10.1967733"><ele>70.0</ele><time>2026-03-29T09:25:22.032Z</time></trkpt><trkpt lat="44.8012033" lon="10.1966267"><ele>70.0</ele><time>2026-03-29T09:25:23.032Z</time></trkpt><trkpt lat="44.8012367" lon="10.1964783"><ele>70.0</ele><time>2026-03-29T09:25:24.032Z</time></trkpt><trkpt lat="44.80127" lon="10.1963517"><ele>70.0</ele><time>2026-03-29T09:25:25.031Z</time></trkpt><trkpt lat="44.801295" lon="10.1962333"><ele>70.0</ele><time>2026-03-29T09:25:26.031Z</time></trkpt><trkpt lat="44.8013167" lon="10.1961267"><ele>70.0</ele><time>2026-03-29T09:25:27.032Z</time></trkpt><trkpt lat="44.8013367" lon="10.1960317"><ele>70.0</ele><time>2026-03-29T09:25:28.031Z</time></trkpt><trkpt lat="44.8013467" lon="10.195885"><ele>70.0</ele><time>2026-03-29T09:25:30.032Z</time></trkpt><trkpt lat="44.8013033" lon="10.195745"><ele>70.0</ele><time>2026-03-29T09:25:32.032Z</time></trkpt><trkpt lat="44.80122" lon="10.19562"><ele>70.0</ele><time>2026-03-29T09:25:34.031Z</time></trkpt><trkpt lat="44.8011667" lon="10.1955567"><ele>69.8</ele><time>2026-03-29T09:25:35.032Z</time></trkpt><trkpt lat="44.8011033" lon="10.1954967"><ele>69.6</ele><time>2026-03-29T09:25:36.032Z</time></trkpt><trkpt lat="44.80103" lon="10.1954467"><ele>69.4</ele><time>2026-03-29T09:25:37.032Z</time></trkpt><trkpt lat="44.8009467" lon="10.195385"><ele>69.2</ele><time>2026-03-29T09:25:38.032Z</time></trkpt><trkpt lat="44.8008433" lon="10.19531"><ele>69.0</ele><time>2026-03-29T09:25:39.031Z</time></trkpt><trkpt lat="44.8007333" lon="10.1952233"><ele>69.0</ele><time>2026-03-29T09:25:40.031Z</time></trkpt><trkpt lat="44.800615" lon="10.1951417"><ele>69.0</ele><time>2026-03-29T09:25:41.032Z</time></trkpt><trkpt lat="44.800495" lon="10.19505"><ele>69.0</ele><time>2026-03-29T09:25:42.032Z</time></trkpt><trkpt lat="44.800375" lon="10.1949683"><ele>69.0</ele><time>2026-03-29T09:25:43.032Z</time></trkpt><trkpt lat="44.8002617" lon="10.1948833"><ele>69.5</ele><time>2026-03-29T09:25:44.032Z</time></trkpt><trkpt lat="44.8001517" lon="10.1948067"><ele>70.0</ele><time>2026-03-29T09:25:45.032Z</time></trkpt><trkpt lat="44.800045" lon="10.1947267"><ele>70.5</ele><time>2026-03-29T09:25:46.031Z</time></trkpt><trkpt lat="44.7999433" lon="10.1946483"><ele>71.0</ele><time>2026-03-29T09:25:47.032Z</time></trkpt><trkpt lat="44.799835" lon="10.1945767"><ele>71.0</ele><time>2026-03-29T09:25:48.032Z</time></trkpt><trkpt lat="44.799735" lon="10.194515"><ele>71.0</ele><time>2026-03-29T09:25:49.032Z</time></trkpt><trkpt lat="44.7996383" lon="10.194465"><ele>71.0</ele><time>2026-03-29T09:25:50.032Z</time></trkpt><trkpt lat="44.7995417" lon="10.1943933"><ele>71.0</ele><time>2026-03-29T09:25:51.032Z</time></trkpt><trkpt lat="44.7994517" lon="10.1943317"><ele>71.0</ele><time>2026-03-29T09:25:52.032Z</time></trkpt><trkpt lat="44.799365" lon="10.1942767"><ele>71.0</ele><time>2026-03-29T09:25:53.031Z</time></trkpt><trkpt lat="44.7992783" lon="10.1942217"><ele>71.0</ele><time>2026-03-29T09:25:54.031Z</time></trkpt><trkpt lat="44.7991933" lon="10.1941617"><ele>71.0</ele><time>2026-03-29T09:25:55.031Z</time></trkpt><trkpt lat="44.7991" lon="10.1941017"><ele>71.0</ele><time>2026-03-29T09:25:56.032Z</time></trkpt><trkpt lat="44.799005" lon="10.1940433"><ele>71.0</ele><time>2026-03-29T09:25:57.032Z</time></trkpt><trkpt lat="44.79892" lon="10.1939883"><ele>71.0</ele><time>2026-03-29T09:25:58.032Z</time></trkpt><trkpt lat="44.7988333" lon="10.193935"><ele>71.0</ele><time>2026-03-29T09:25:59.032Z</time></trkpt><trkpt lat="44.7987567" lon="10.1938833"><ele>71.0</ele><time>2026-03-29T09:26:00.032Z</time></trkpt><trkpt lat="44.798675" lon="10.19385"><ele>71.0</ele><time>2026-03-29T09:26:01.032Z</time></trkpt><trkpt lat="44.7986017" lon="10.1938267"><ele>71.0</ele><time>2026-03-29T09:26:02.031Z</time></trkpt><trkpt lat="44.7985183" lon="10.1938167"><ele>71.0</ele><time>2026-03-29T09:26:03.031Z</time></trkpt><trkpt lat="44.7984183" lon="10.1938183"><ele>71.0</ele><time>2026-03-29T09:26:04.032Z</time></trkpt><trkpt lat="44.7983217" lon="10.1938033"><ele>71.0</ele><time>2026-03-29T09:26:05.032Z</time></trkpt><trkpt lat="44.7982183" lon="10.1937817"><ele>71.0</ele><time>2026-03-29T09:26:06.031Z</time></trkpt><trkpt lat="44.7981083" lon="10.193775"><ele>71.0</ele><time>2026-03-29T09:26:07.032Z</time></trkpt><trkpt lat="44.7980017" lon="10.1937733"><ele>71.0</ele><time>2026-03-29T09:26:08.032Z</time></trkpt><trkpt lat="44.7979" lon="10.193745"><ele>71.0</ele><time>2026-03-29T09:26:09.032Z</time></trkpt><trkpt lat="44.7978" lon="10.193735"><ele>71.0</ele><time>2026-03-29T09:26:10.031Z</time></trkpt><trkpt lat="44.797715" lon="10.1937317"><ele>71.0</ele><time>2026-03-29T09:26:11.032Z</time></trkpt><trkpt lat="44.79763" lon="10.193715"><ele>71.0</ele><time>2026-03-29T09:26:12.032Z</time></trkpt><trkpt lat="44.7975433" lon="10.1937"><ele>71.0</ele><time>2026-03-29T09:26:13.032Z</time></trkpt><trkpt lat="44.7974667" lon="10.19368"><ele>71.0</ele><time>2026-03-29T09:26:14.032Z</time></trkpt><trkpt lat="44.7973883" lon="10.1936617"><ele>71.16666666666667</ele><time>2026-03-29T09:26:15.032Z</time></trkpt><trkpt lat="44.797315" lon="10.1936383"><ele>71.33333333333334</ele><time>2026-03-29T09:26:16.031Z</time></trkpt><trkpt lat="44.7972433" lon="10.1936167"><ele>71.5</ele><time>2026-03-29T09:26:17.032Z</time></trkpt><trkpt lat="44.7971717" lon="10.1936067"><ele>71.66666666666667</ele><time>2026-03-29T09:26:18.031Z</time></trkpt><trkpt lat="44.7971" lon="10.1935917"><ele>71.83333333333333</ele><time>2026-03-29T09:26:19.031Z</time></trkpt><trkpt lat="44.7969983" lon="10.1935783"><ele>72.0</ele><time>2026-03-29T09:26:21.032Z</time></trkpt><trkpt lat="44.796945" lon="10.1935283"><ele>72.0</ele><time>2026-03-29T09:26:23.031Z</time></trkpt><trkpt lat="44.7969083" lon="10.1934467"><ele>72.0</ele><time>2026-03-29T09:26:25.031Z</time></trkpt><trkpt lat="44.7969133" lon="10.1933233"><ele>72.0</ele><time>2026-03-29T09:26:27.032Z</time></trkpt><trkpt lat="44.7969333" lon="10.1931217"><ele>72.0</ele><time>2026-03-29T09:26:29.031Z</time></trkpt><trkpt lat="44.796955" lon="10.192985"><ele>72.0</ele><time>2026-03-29T09:26:30.031Z</time></trkpt><trkpt lat="44.7969783" lon="10.1928317"><ele>72.0</ele><time>2026-03-29T09:26:31.032Z</time></trkpt><trkpt lat="44.797" lon="10.192665"><ele>72.0</ele><time>2026-03-29T09:26:32.032Z</time></trkpt><trkpt lat="44.797015" lon="10.1924967"><ele>72.0</ele><time>2026-03-29T09:26:33.032Z</time></trkpt><trkpt lat="44.79703" lon="10.192355"><ele>72.0</ele><time>2026-03-29T09:26:34.032Z</time></trkpt><trkpt lat="44.79705" lon="10.1922383"><ele>72.0</ele><time>2026-03-29T09:26:35.032Z</time></trkpt><trkpt lat="44.7970633" lon="10.192145"><ele>72.0</ele><time>2026-03-29T09:26:36.031Z</time></trkpt><trkpt lat="44.7970617" lon="10.1919967"><ele>72.0</ele><time>2026-03-29T09:26:38.031Z</time></trkpt><trkpt lat="44.7970167" lon="10.1918917"><ele>72.0</ele><time>2026-03-29T09:26:40.031Z</time></trkpt><trkpt lat="44.7969333" lon="10.1918183"><ele>72.0</ele><time>2026-03-29T09:26:42.032Z</time></trkpt><trkpt lat="44.796865" lon="10.19179"><ele>72.0</ele><time>2026-03-29T09:26:43.032Z</time></trkpt><trkpt lat="44.7967783" lon="10.1917667"><ele>72.0</ele><time>2026-03-29T09:26:44.032Z</time></trkpt><trkpt lat="44.7966917" lon="10.191735"><ele>72.0</ele><time>2026-03-29T09:26:45.032Z</time></trkpt><trkpt lat="44.7965883" lon="10.1917033"><ele>72.0</ele><time>2026-03-29T09:26:46.032Z</time></trkpt><trkpt lat="44.79648" lon="10.1916633"><ele>72.0</ele><time>2026-03-29T09:26:47.032Z</time></trkpt><trkpt lat="44.7963617" lon="10.1916267"><ele>72.0</ele><time>2026-03-29T09:26:48.032Z</time></trkpt><trkpt lat="44.7962367" lon="10.191585"><ele>72.0</ele><time>2026-03-29T09:26:49.032Z</time></trkpt><trkpt lat="44.7961167" lon="10.1915483"><ele>72.0</ele><time>2026-03-29T09:26:50.032Z</time></trkpt><trkpt lat="44.796005" lon="10.19151"><ele>72.0</ele><time>2026-03-29T09:26:51.031Z</time></trkpt><trkpt lat="44.7959033" lon="10.1914767"><ele>72.0</ele><time>2026-03-29T09:26:52.031Z</time></trkpt><trkpt lat="44.79581" lon="10.191445"><ele>72.0</ele><time>2026-03-29T09:26:53.031Z</time></trkpt><trkpt lat="44.795725" lon="10.1914117"><ele>72.16666666666667</ele><time>2026-03-29T09:26:54.032Z</time></trkpt><trkpt lat="44.79565" lon="10.1913817"><ele>72.33333333333333</ele><time>2026-03-29T09:26:55.032Z</time></trkpt><trkpt lat="44.7955883" lon="10.191355"><ele>72.5</ele><time>2026-03-29T09:26:56.032Z</time></trkpt><trkpt lat="44.7954967" lon="10.1913183"><ele>72.66666666666666</ele><time>2026-03-29T09:26:58.032Z</time></trkpt><trkpt lat="44.7954267" lon="10.19134"><ele>72.83333333333333</ele><time>2026-03-29T09:27:01.032Z</time></trkpt><trkpt lat="44.7954" lon="10.1914217"><ele>73.0</ele><time>2026-03-29T09:27:03.031Z</time></trkpt><trkpt lat="44.7953767" lon="10.1915883"><ele>73.0</ele><time>2026-03-29T09:27:05.032Z</time></trkpt><trkpt lat="44.7953683" lon="10.1917133"><ele>73.0</ele><time>2026-03-29T09:27:06.032Z</time></trkpt><trkpt lat="44.7953717" lon="10.191855"><ele>73.0</ele><time>2026-03-29T09:27:07.032Z</time></trkpt><trkpt lat="44.795385" lon="10.192015"><ele>73.0</ele><time>2026-03-29T09:27:08.032Z</time></trkpt><trkpt lat="44.7954033" lon="10.19221"><ele>73.0</ele><time>2026-03-29T09:27:09.032Z</time></trkpt><trkpt lat="44.795425" lon="10.1924217"><ele>73.25</ele><time>2026-03-29T09:27:10.032Z</time></trkpt><trkpt lat="44.795445" lon="10.19263"><ele>73.5</ele><time>2026-03-29T09:27:11.032Z</time></trkpt><trkpt lat="44.7954667" lon="10.1928217"><ele>73.75</ele><time>2026-03-29T09:27:12.032Z</time></trkpt><trkpt lat="44.7954883" lon="10.1929917"><ele>74.0</ele><time>2026-03-29T09:27:13.032Z</time></trkpt><trkpt lat="44.7955017" lon="10.1931383"><ele>74.4</ele><time>2026-03-29T09:27:14.032Z</time></trkpt><trkpt lat="44.795505" lon="10.19327"><ele>74.80000000000001</ele><time>2026-03-29T09:27:15.032Z</time></trkpt><trkpt lat="44.7955067" lon="10.193385"><ele>75.19999999999999</ele><time>2026-03-29T09:27:16.032Z</time></trkpt><trkpt lat="44.7954883" lon="10.1935"><ele>75.6</ele><time>2026-03-29T09:27:17.031Z</time></trkpt><trkpt lat="44.7954483" lon="10.1936167"><ele>76.0</ele><time>2026-03-29T09:27:18.031Z</time></trkpt><trkpt lat="44.7954" lon="10.19375"><ele>76.0</ele><time>2026-03-29T09:27:19.032Z</time></trkpt><trkpt lat="44.7953517" lon="10.1938783"><ele>76.0</ele><time>2026-03-29T09:27:20.031Z</time></trkpt><trkpt lat="44.7952967" lon="10.1940217"><ele>76.0</ele><time>2026-03-29T09:27:21.032Z</time></trkpt><trkpt lat="44.7952517" lon="10.1941433"><ele>76.0</ele><time>2026-03-29T09:27:22.032Z</time></trkpt><trkpt lat="44.7952083" lon="10.19426"><ele>76.0</ele><time>2026-03-29T09:27:23.032Z</time></trkpt><trkpt lat="44.795175" lon="10.1943667"><ele>75.8</ele><time>2026-03-29T09:27:24.032Z</time></trkpt><trkpt lat="44.795155" lon="10.1944983"><ele>75.6</ele><time>2026-03-29T09:27:25.032Z</time></trkpt><trkpt lat="44.795135" lon="10.1946383"><ele>75.4</ele><time>2026-03-29T09:27:26.032Z</time></trkpt><trkpt lat="44.795115" lon="10.194785"><ele>75.2</ele><time>2026-03-29T09:27:27.031Z</time></trkpt><trkpt lat="44.795105" lon="10.1949517"><ele>75.0</ele><time>2026-03-29T09:27:28.032Z</time></trkpt><trkpt lat="44.795085" lon="10.19514"><ele>74.8</ele><time>2026-03-29T09:27:29.032Z</time></trkpt><trkpt lat="44.79507" lon="10.19533"><ele>74.6</ele><time>2026-03-29T09:27:30.032Z</time></trkpt><trkpt lat="44.7950583" lon="10.1954867"><ele>74.4</ele><time>2026-03-29T09:27:31.032Z</time></trkpt><trkpt lat="44.79505" lon="10.1956317"><ele>74.2</ele><time>2026-03-29T09:27:32.031Z</time></trkpt><trkpt lat="44.7950333" lon="10.19576"><ele>74.0</ele><time>2026-03-29T09:27:33.031Z</time></trkpt><trkpt lat="44.7950133" lon="10.1958817"><ele>73.83333333333334</ele><time>2026-03-29T09:27:34.032Z</time></trkpt><trkpt lat="44.7950033" lon="10.1959917"><ele>73.66666666666667</ele><time>2026-03-29T09:27:35.032Z</time></trkpt><trkpt lat="44.7949933" lon="10.1960883"><ele>73.5</ele><time>2026-03-29T09:27:36.031Z</time></trkpt><trkpt lat="44.7949733" lon="10.1962433"><ele>73.33333333333333</ele><time>2026-03-29T09:27:38.032Z</time></trkpt><trkpt lat="44.79496" lon="10.19637"><ele>73.16666666666666</ele><time>2026-03-29T09:27:40.032Z</time></trkpt><trkpt lat="44.7949433" lon="10.1964733"><ele>73.0</ele><time>2026-03-29T09:27:42.032Z</time></trkpt><trkpt lat="44.7949183" lon="10.1965783"><ele>73.0</ele><time>2026-03-29T09:27:44.032Z</time></trkpt><trkpt lat="44.7949017" lon="10.196695"><ele>73.0</ele><time>2026-03-29T09:27:46.032Z</time></trkpt><trkpt lat="44.7948683" lon="10.1968333"><ele>73.0</ele><time>2026-03-29T09:27:48.031Z</time></trkpt><trkpt lat="44.7948483" lon="10.1969667"><ele>73.0</ele><time>2026-03-29T09:27:50.032Z</time></trkpt><trkpt lat="44.7948283" lon="10.1970717"><ele>73.0</ele><time>2026-03-29T09:27:52.032Z</time></trkpt><trkpt lat="44.794805" lon="10.1971717"><ele>73.0</ele><time>2026-03-29T09:27:54.032Z</time></trkpt><trkpt lat="44.79477" lon="10.1972933"><ele>73.0</ele><time>2026-03-29T09:27:56.032Z</time></trkpt><trkpt lat="44.7947433" lon="10.1974117"><ele>73.0</ele><time>2026-03-29T09:27:58.033Z</time></trkpt><trkpt lat="44.794725" lon="10.1975067"><ele>73.0</ele><time>2026-03-29T09:28:00.033Z</time></trkpt><trkpt lat="44.7947033" lon="10.197605"><ele>73.0</ele><time>2026-03-29T09:28:02.032Z</time></trkpt><trkpt lat="44.7946567" lon="10.1976983"><ele>73.0</ele><time>2026-03-29T09:28:04.032Z</time></trkpt><trkpt lat="44.79462" lon="10.1977717"><ele>73.0</ele><time>2026-03-29T09:28:06.032Z</time></trkpt><trkpt lat="44.79466" lon="10.19788"><ele>73.0</ele><time>2026-03-29T09:28:33.032Z</time></trkpt><trkpt lat="44.7946817" lon="10.197785"><ele>73.0</ele><time>2026-03-29T09:28:35.033Z</time></trkpt><trkpt lat="44.794705" lon="10.1976417"><ele>73.0</ele><time>2026-03-29T09:28:37.033Z</time></trkpt><trkpt lat="44.7947317" lon="10.1975517"><ele>73.0</ele><time>2026-03-29T09:28:38.033Z</time></trkpt><trkpt lat="44.7947617" lon="10.1974533"><ele>73.0</ele><time>2026-03-29T09:28:39.033Z</time></trkpt><trkpt lat="44.7947867" lon="10.197355"><ele>73.0</ele><time>2026-03-29T09:28:40.033Z</time></trkpt><trkpt lat="44.7948117" lon="10.1972417"><ele>73.0</ele><time>2026-03-29T09:28:41.033Z</time></trkpt><trkpt lat="44.79484" lon="10.197125"><ele>73.0</ele><time>2026-03-29T09:28:42.033Z</time></trkpt><trkpt lat="44.7948617" lon="10.19701"><ele>73.0</ele><time>2026-03-29T09:28:43.032Z</time></trkpt><trkpt lat="44.794885" lon="10.19691"><ele>73.0</ele><time>2026-03-29T09:28:44.033Z</time></trkpt><trkpt lat="44.7949183" lon="10.1967583"><ele>73.0</ele><time>2026-03-29T09:28:46.033Z</time></trkpt><trkpt lat="44.7949333" lon="10.1966067"><ele>73.0</ele><time>2026-03-29T09:28:48.033Z</time></trkpt><trkpt lat="44.7949417" lon="10.196505"><ele>73.0</ele><time>2026-03-29T09:28:49.033Z</time></trkpt><trkpt lat="44.79496" lon="10.1963867"><ele>73.0</ele><time>2026-03-29T09:28:50.033Z</time></trkpt><trkpt lat="44.7949817" lon="10.1962483"><ele>73.0</ele><time>2026-03-29T09:28:51.032Z</time></trkpt><trkpt lat="44.7950067" lon="10.1960933"><ele>73.0</ele><time>2026-03-29T09:28:52.033Z</time></trkpt><trkpt lat="44.7950283" lon="10.195925"><ele>73.0</ele><time>2026-03-29T09:28:53.032Z</time></trkpt><trkpt lat="44.795045" lon="10.1957383"><ele>73.0</ele><time>2026-03-29T09:28:54.032Z</time></trkpt><trkpt lat="44.79506" lon="10.1955267"><ele>73.0</ele><time>2026-03-29T09:28:55.033Z</time></trkpt><trkpt lat="44.7950767" lon="10.1953283"><ele>73.0</ele><time>2026-03-29T09:28:56.033Z</time></trkpt><trkpt lat="44.795085" lon="10.1951517"><ele>73.2</ele><time>2026-03-29T09:28:57.033Z</time></trkpt><trkpt lat="44.7951017" lon="10.19499"><ele>73.4</ele><time>2026-03-29T09:28:58.032Z</time></trkpt><trkpt lat="44.79512" lon="10.1948383"><ele>73.60000000000001</ele><time>2026-03-29T09:28:59.032Z</time></trkpt><trkpt lat="44.7951267" lon="10.1947"><ele>73.8</ele><time>2026-03-29T09:29:00.033Z</time></trkpt><trkpt lat="44.795145" lon="10.1945667"><ele>74.0</ele><time>2026-03-29T09:29:01.033Z</time></trkpt><trkpt lat="44.7951733" lon="10.194425"><ele>74.2</ele><time>2026-03-29T09:29:02.032Z</time></trkpt><trkpt lat="44.79521" lon="10.1942883"><ele>74.4</ele><time>2026-03-29T09:29:03.033Z</time></trkpt><trkpt lat="44.7952567" lon="10.194155"><ele>74.6</ele><time>2026-03-29T09:29:04.033Z</time></trkpt><trkpt lat="44.7953167" lon="10.1940167"><ele>74.8</ele><time>2026-03-29T09:29:05.033Z</time></trkpt><trkpt lat="44.7953733" lon="10.1938767"><ele>75.0</ele><time>2026-03-29T09:29:06.033Z</time></trkpt><trkpt lat="44.795425" lon="10.19375"><ele>75.16666666666667</ele><time>2026-03-29T09:29:07.033Z</time></trkpt><trkpt lat="44.7954617" lon="10.193635"><ele>75.33333333333333</ele><time>2026-03-29T09:29:08.033Z</time></trkpt><trkpt lat="44.7954933" lon="10.19353"><ele>75.5</ele><time>2026-03-29T09:29:09.033Z</time></trkpt><trkpt lat="44.7955133" lon="10.1934183"><ele>75.66666666666666</ele><time>2026-03-29T09:29:10.033Z</time></trkpt><trkpt lat="44.7955167" lon="10.1932967"><ele>75.83333333333333</ele><time>2026-03-29T09:29:11.033Z</time></trkpt><trkpt lat="44.7955083" lon="10.19316"><ele>76.0</ele><time>2026-03-29T09:29:12.033Z</time></trkpt><trkpt lat="44.79549" lon="10.1930083"><ele>75.5</ele><time>2026-03-29T09:29:13.032Z</time></trkpt><trkpt lat="44.7954683" lon="10.192835"><ele>75.0</ele><time>2026-03-29T09:29:14.033Z</time></trkpt><trkpt lat="44.7954483" lon="10.1926683"><ele>74.5</ele><time>2026-03-29T09:29:15.033Z</time></trkpt><trkpt lat="44.79543" lon="10.192515"><ele>74.0</ele><time>2026-03-29T09:29:16.033Z</time></trkpt><trkpt lat="44.7954067" lon="10.1923733"><ele>73.83333333333334</ele><time>2026-03-29T09:29:17.033Z</time></trkpt><trkpt lat="44.7953967" lon="10.1922433"><ele>73.66666666666667</ele><time>2026-03-29T09:29:18.033Z</time></trkpt><trkpt lat="44.795385" lon="10.1921183"><ele>73.5</ele><time>2026-03-29T09:29:19.033Z</time></trkpt><trkpt lat="44.7953817" lon="10.1919933"><ele>73.33333333333333</ele><time>2026-03-29T09:29:20.033Z</time></trkpt><trkpt lat="44.7953783" lon="10.1918767"><ele>73.16666666666666</ele><time>2026-03-29T09:29:21.033Z</time></trkpt><trkpt lat="44.7953783" lon="10.1917667"><ele>73.0</ele><time>2026-03-29T09:29:22.033Z</time></trkpt><trkpt lat="44.79539" lon="10.191655"><ele>73.0</ele><time>2026-03-29T09:29:23.033Z</time></trkpt><trkpt lat="44.795395" lon="10.1915317"><ele>73.0</ele><time>2026-03-29T09:29:24.032Z</time></trkpt><trkpt lat="44.7954083" lon="10.1914067"><ele>73.0</ele><time>2026-03-29T09:29:25.033Z</time></trkpt><trkpt lat="44.79541" lon="10.1912717"><ele>73.0</ele><time>2026-03-29T09:29:26.032Z</time></trkpt><trkpt lat="44.7954067" lon="10.1911367"><ele>73.0</ele><time>2026-03-29T09:29:27.033Z</time></trkpt><trkpt lat="44.7954067" lon="10.1909967"><ele>73.0</ele><time>2026-03-29T09:29:28.033Z</time></trkpt><trkpt lat="44.795405" lon="10.1908633"><ele>73.0</ele><time>2026-03-29T09:29:29.033Z</time></trkpt><trkpt lat="44.7953983" lon="10.1907117"><ele>73.0</ele><time>2026-03-29T09:29:30.033Z</time></trkpt><trkpt lat="44.7953817" lon="10.1905633"><ele>73.0</ele><time>2026-03-29T09:29:31.033Z</time></trkpt><trkpt lat="44.795365" lon="10.190405"><ele>73.0</ele><time>2026-03-29T09:29:32.033Z</time></trkpt><trkpt lat="44.7953533" lon="10.1902583"><ele>73.2</ele><time>2026-03-29T09:29:33.032Z</time></trkpt><trkpt lat="44.7953467" lon="10.1901133"><ele>73.4</ele><time>2026-03-29T09:29:34.033Z</time></trkpt><trkpt lat="44.79535" lon="10.189965"><ele>73.60000000000001</ele><time>2026-03-29T09:29:35.033Z</time></trkpt><trkpt lat="44.7953583" lon="10.1898167"><ele>73.8</ele><time>2026-03-29T09:29:36.032Z</time></trkpt><trkpt lat="44.7953817" lon="10.1896433"><ele>74.0</ele><time>2026-03-29T09:29:37.033Z</time></trkpt><trkpt lat="44.7954067" lon="10.1894783"><ele>74.0</ele><time>2026-03-29T09:29:38.033Z</time></trkpt><trkpt lat="44.79545" lon="10.1893217"><ele>74.0</ele><time>2026-03-29T09:29:39.032Z</time></trkpt><trkpt lat="44.7954833" lon="10.1891667"><ele>74.0</ele><time>2026-03-29T09:29:40.032Z</time></trkpt><trkpt lat="44.795525" lon="10.1890417"><ele>74.0</ele><time>2026-03-29T09:29:41.033Z</time></trkpt><trkpt lat="44.79556" lon="10.188925"><ele>74.0</ele><time>2026-03-29T09:29:42.033Z</time></trkpt><trkpt lat="44.7955917" lon="10.1888117"><ele>74.16666666666667</ele><time>2026-03-29T09:29:43.032Z</time></trkpt><trkpt lat="44.795625" lon="10.1887067"><ele>74.33333333333334</ele><time>2026-03-29T09:29:44.033Z</time></trkpt><trkpt lat="44.79566" lon="10.1886183"><ele>74.5</ele><time>2026-03-29T09:29:45.033Z</time></trkpt><trkpt lat="44.7957217" lon="10.1884717"><ele>74.66666666666667</ele><time>2026-03-29T09:29:47.033Z</time></trkpt><trkpt lat="44.7957667" lon="10.1883833"><ele>74.83333333333333</ele><time>2026-03-29T09:29:49.033Z</time></trkpt><trkpt lat="44.7957483" lon="10.1882917"><ele>75.0</ele><time>2026-03-29T09:29:58.033Z</time></trkpt><trkpt lat="44.7956683" lon="10.1882067"><ele>74.75</ele><time>2026-03-29T09:30:00.033Z</time></trkpt><trkpt lat="44.795535" lon="10.1881267"><ele>74.5</ele><time>2026-03-29T09:30:02.032Z</time></trkpt><trkpt lat="44.79544" lon="10.1880733"><ele>74.25</ele><time>2026-03-29T09:30:03.033Z</time></trkpt><trkpt lat="44.795335" lon="10.18801"><ele>74.0</ele><time>2026-03-29T09:30:04.033Z</time></trkpt><trkpt lat="44.7952267" lon="10.1879383"><ele>74.5</ele><time>2026-03-29T09:30:05.033Z</time></trkpt><trkpt lat="44.7951083" lon="10.1878583"><ele>75.0</ele><time>2026-03-29T09:30:06.033Z</time></trkpt><trkpt lat="44.7949733" lon="10.1877917"><ele>75.5</ele><time>2026-03-29T09:30:07.033Z</time></trkpt><trkpt lat="44.7948383" lon="10.187735"><ele>76.0</ele><time>2026-03-29T09:30:08.033Z</time></trkpt><trkpt lat="44.7947283" lon="10.1876533"><ele>76.0</ele><time>2026-03-29T09:30:09.033Z</time></trkpt><trkpt lat="44.7946067" lon="10.1875917"><ele>76.0</ele><time>2026-03-29T09:30:10.032Z</time></trkpt><trkpt lat="44.7945" lon="10.187525"><ele>76.0</ele><time>2026-03-29T09:30:11.033Z</time></trkpt><trkpt lat="44.794385" lon="10.18746"><ele>76.0</ele><time>2026-03-29T09:30:12.033Z</time></trkpt><trkpt lat="44.794275" lon="10.1873917"><ele>76.0</ele><time>2026-03-29T09:30:13.033Z</time></trkpt><trkpt lat="44.7941617" lon="10.1873283"><ele>76.0</ele><time>2026-03-29T09:30:14.033Z</time></trkpt><trkpt lat="44.7940517" lon="10.187265"><ele>76.0</ele><time>2026-03-29T09:30:15.033Z</time></trkpt><trkpt lat="44.793935" lon="10.1871933"><ele>76.0</ele><time>2026-03-29T09:30:16.032Z</time></trkpt><trkpt lat="44.79381" lon="10.1871267"><ele>76.0</ele><time>2026-03-29T09:30:17.033Z</time></trkpt><trkpt lat="44.79367" lon="10.1870683"><ele>76.0</ele><time>2026-03-29T09:30:18.033Z</time></trkpt><trkpt lat="44.7935317" lon="10.187"><ele>76.0</ele><time>2026-03-29T09:30:19.033Z</time></trkpt><trkpt lat="44.7933783" lon="10.18694"><ele>75.33333333333333</ele><time>2026-03-29T09:30:20.033Z</time></trkpt><trkpt lat="44.79321" lon="10.1868767"><ele>74.66666666666667</ele><time>2026-03-29T09:30:21.033Z</time></trkpt><trkpt lat="44.793035" lon="10.1868133"><ele>74.0</ele><time>2026-03-29T09:30:22.033Z</time></trkpt><trkpt lat="44.7928667" lon="10.186765"><ele>74.0</ele><time>2026-03-29T09:30:23.033Z</time></trkpt><trkpt lat="44.7926967" lon="10.18671"><ele>74.0</ele><time>2026-03-29T09:30:24.033Z</time></trkpt><trkpt lat="44.792535" lon="10.18666"><ele>74.0</ele><time>2026-03-29T09:30:25.032Z</time></trkpt><trkpt lat="44.79238" lon="10.1865933"><ele>74.66666666666667</ele><time>2026-03-29T09:30:26.033Z</time></trkpt><trkpt lat="44.7922267" lon="10.1865383"><ele>75.33333333333333</ele><time>2026-03-29T09:30:27.033Z</time></trkpt><trkpt lat="44.792065" lon="10.1864783"><ele>76.0</ele><time>2026-03-29T09:30:28.033Z</time></trkpt><trkpt lat="44.7919017" lon="10.1864117"><ele>74.66666666666666</ele><time>2026-03-29T09:30:29.032Z</time></trkpt><trkpt lat="44.791745" lon="10.1863483"><ele>73.33333333333333</ele><time>2026-03-29T09:30:30.032Z</time></trkpt><trkpt lat="44.7916017" lon="10.1862783"><ele>72.0</ele><time>2026-03-29T09:30:31.033Z</time></trkpt><trkpt lat="44.7914683" lon="10.18622"><ele>72.0</ele><time>2026-03-29T09:30:32.033Z</time></trkpt><trkpt lat="44.7913333" lon="10.1861667"><ele>72.0</ele><time>2026-03-29T09:30:33.033Z</time></trkpt><trkpt lat="44.7912033" lon="10.1861133"><ele>72.0</ele><time>2026-03-29T09:30:34.033Z</time></trkpt><trkpt lat="44.7910783" lon="10.1860583"><ele>72.0</ele><time>2026-03-29T09:30:35.033Z</time></trkpt><trkpt lat="44.790965" lon="10.1860133"><ele>72.6</ele><time>2026-03-29T09:30:36.033Z</time></trkpt><trkpt lat="44.7908617" lon="10.1859733"><ele>73.2</ele><time>2026-03-29T09:30:37.033Z</time></trkpt><trkpt lat="44.7907667" lon="10.1859383"><ele>73.8</ele><time>2026-03-29T09:30:38.033Z</time></trkpt><trkpt lat="44.79069" lon="10.1858917"><ele>74.4</ele><time>2026-03-29T09:30:39.032Z</time></trkpt><trkpt lat="44.7906217" lon="10.18586"><ele>75.0</ele><time>2026-03-29T09:30:40.033Z</time></trkpt><trkpt lat="44.79052" lon="10.18581"><ele>75.0</ele><time>2026-03-29T09:30:42.032Z</time></trkpt><trkpt lat="44.7904467" lon="10.185815"><ele>75.0</ele><time>2026-03-29T09:30:44.033Z</time></trkpt><trkpt lat="44.7903867" lon="10.185855"><ele>75.0</ele><time>2026-03-29T09:30:46.033Z</time></trkpt><trkpt lat="44.7903217" lon="10.1859867"><ele>75.0</ele><time>2026-03-29T09:30:48.033Z</time></trkpt><trkpt lat="44.7902833" lon="10.1860767"><ele>75.0</ele><time>2026-03-29T09:30:49.032Z</time></trkpt><trkpt lat="44.7902367" lon="10.1861983"><ele>75.0</ele><time>2026-03-29T09:30:50.033Z</time></trkpt><trkpt lat="44.79019" lon="10.1863417"><ele>75.5</ele><time>2026-03-29T09:30:51.033Z</time></trkpt><trkpt lat="44.7901383" lon="10.1865"><ele>76.0</ele><time>2026-03-29T09:30:52.032Z</time></trkpt><trkpt lat="44.7900867" lon="10.1866633"><ele>76.5</ele><time>2026-03-29T09:30:53.033Z</time></trkpt><trkpt lat="44.7900217" lon="10.1868433"><ele>77.0</ele><time>2026-03-29T09:30:54.032Z</time></trkpt><trkpt lat="44.789965" lon="10.1870067"><ele>77.0</ele><time>2026-03-29T09:30:55.033Z</time></trkpt><trkpt lat="44.7899117" lon="10.1871667"><ele>77.0</ele><time>2026-03-29T09:30:56.033Z</time></trkpt><trkpt lat="44.7898633" lon="10.1873117"><ele>77.0</ele><time>2026-03-29T09:30:57.033Z</time></trkpt><trkpt lat="44.7898233" lon="10.1874533"><ele>77.0</ele><time>2026-03-29T09:30:58.033Z</time></trkpt><trkpt lat="44.7897767" lon="10.1876"><ele>76.66666666666667</ele><time>2026-03-29T09:30:59.033Z</time></trkpt><trkpt lat="44.7897317" lon="10.1877267"><ele>76.33333333333334</ele><time>2026-03-29T09:31:00.032Z</time></trkpt><trkpt lat="44.789695" lon="10.1878417"><ele>76.0</ele><time>2026-03-29T09:31:01.033Z</time></trkpt><trkpt lat="44.7896683" lon="10.1879533"><ele>75.66666666666667</ele><time>2026-03-29T09:31:02.033Z</time></trkpt><trkpt lat="44.7896433" lon="10.18804"><ele>75.33333333333333</ele><time>2026-03-29T09:31:03.033Z</time></trkpt><trkpt lat="44.7895967" lon="10.1881767"><ele>75.0</ele><time>2026-03-29T09:31:05.033Z</time></trkpt><trkpt lat="44.789575" lon="10.1882917"><ele>75.0</ele><time>2026-03-29T09:31:07.032Z</time></trkpt><trkpt lat="44.78963" lon="10.1881767"><ele>75.0</ele><time>2026-03-29T09:32:13.033Z</time></trkpt><trkpt lat="44.7896733" lon="10.1879867"><ele>75.0</ele><time>2026-03-29T09:32:15.032Z</time></trkpt><trkpt lat="44.7897033" lon="10.1878583"><ele>75.0</ele><time>2026-03-29T09:32:16.033Z</time></trkpt><trkpt lat="44.7897367" lon="10.1877233"><ele>75.0</ele><time>2026-03-29T09:32:17.032Z</time></trkpt><trkpt lat="44.789775" lon="10.1875983"><ele>75.0</ele><time>2026-03-29T09:32:18.032Z</time></trkpt><trkpt lat="44.78982" lon="10.1874733"><ele>75.0</ele><time>2026-03-29T09:32:19.032Z</time></trkpt><trkpt lat="44.7898633" lon="10.1873333"><ele>75.0</ele><time>2026-03-29T09:32:20.033Z</time></trkpt><trkpt lat="44.7899117" lon="10.1871733"><ele>75.0</ele><time>2026-03-29T09:32:21.032Z</time></trkpt><trkpt lat="44.7899683" lon="10.187005"><ele>75.5</ele><time>2026-03-29T09:32:22.032Z</time></trkpt><trkpt lat="44.7900233" lon="10.1868367"><ele>76.0</ele><time>2026-03-29T09:32:23.032Z</time></trkpt><trkpt lat="44.7900783" lon="10.1866867"><ele>76.5</ele><time>2026-03-29T09:32:24.033Z</time></trkpt><trkpt lat="44.7901317" lon="10.186545"><ele>77.0</ele><time>2026-03-29T09:32:25.033Z</time></trkpt><trkpt lat="44.7901717" lon="10.186405"><ele>76.6</ele><time>2026-03-29T09:32:26.033Z</time></trkpt><trkpt lat="44.7902167" lon="10.186275"><ele>76.2</ele><time>2026-03-29T09:32:27.032Z</time></trkpt><trkpt lat="44.7902617" lon="10.1861583"><ele>75.8</ele><time>2026-03-29T09:32:28.032Z</time></trkpt><trkpt lat="44.7903033" lon="10.1860483"><ele>75.4</ele><time>2026-03-29T09:32:29.033Z</time></trkpt><trkpt lat="44.7903417" lon="10.185965"><ele>75.0</ele><time>2026-03-29T09:32:30.033Z</time></trkpt><trkpt lat="44.7904033" lon="10.1858417"><ele>75.0</ele><time>2026-03-29T09:32:32.032Z</time></trkpt><trkpt lat="44.7904417" lon="10.1857517"><ele>75.0</ele><time>2026-03-29T09:32:34.033Z</time></trkpt><trkpt lat="44.7904817" lon="10.1855833"><ele>75.0</ele><time>2026-03-29T09:32:36.033Z</time></trkpt><trkpt lat="44.7905067" lon="10.1854633"><ele>75.0</ele><time>2026-03-29T09:32:37.033Z</time></trkpt><trkpt lat="44.79053" lon="10.185335"><ele>75.0</ele><time>2026-03-29T09:32:38.033Z</time></trkpt><trkpt lat="44.7905567" lon="10.185205"><ele>75.5</ele><time>2026-03-29T09:32:39.033Z</time></trkpt><trkpt lat="44.7905817" lon="10.185085"><ele>76.0</ele><time>2026-03-29T09:32:40.032Z</time></trkpt><trkpt lat="44.7906033" lon="10.1849833"><ele>76.5</ele><time>2026-03-29T09:32:41.033Z</time></trkpt><trkpt lat="44.7906217" lon="10.1848933"><ele>77.0</ele><time>2026-03-29T09:32:42.032Z</time></trkpt><trkpt lat="44.79062" lon="10.184745"><ele>77.5</ele><time>2026-03-29T09:32:44.032Z</time></trkpt><trkpt lat="44.790565" lon="10.1846283"><ele>78.0</ele><time>2026-03-29T09:32:46.032Z</time></trkpt><trkpt lat="44.7904483" lon="10.184545"><ele>78.0</ele><time>2026-03-29T09:32:48.032Z</time></trkpt><trkpt lat="44.7903733" lon="10.1845283"><ele>78.0</ele><time>2026-03-29T09:32:49.032Z</time></trkpt><trkpt lat="44.790285" lon="10.1845183"><ele>78.0</ele><time>2026-03-29T09:32:50.033Z</time></trkpt><trkpt lat="44.7901883" lon="10.1845067"><ele>78.0</ele><time>2026-03-29T09:32:51.033Z</time></trkpt><trkpt lat="44.7900883" lon="10.1844833"><ele>78.0</ele><time>2026-03-29T09:32:52.032Z</time></trkpt><trkpt lat="44.7899767" lon="10.1844617"><ele>77.75</ele><time>2026-03-29T09:32:53.033Z</time></trkpt><trkpt lat="44.789855" lon="10.1844367"><ele>77.5</ele><time>2026-03-29T09:32:54.033Z</time></trkpt><trkpt lat="44.7897117" lon="10.1844017"><ele>77.25</ele><time>2026-03-29T09:32:55.032Z</time></trkpt><trkpt lat="44.7895617" lon="10.1843717"><ele>77.0</ele><time>2026-03-29T09:32:56.033Z</time></trkpt><trkpt lat="44.78941" lon="10.1843433"><ele>77.0</ele><time>2026-03-29T09:32:57.032Z</time></trkpt><trkpt lat="44.7892683" lon="10.1843217"><ele>77.0</ele><time>2026-03-29T09:32:58.032Z</time></trkpt><trkpt lat="44.78914" lon="10.184295"><ele>77.0</ele><time>2026-03-29T09:32:59.032Z</time></trkpt><trkpt lat="44.78902" lon="10.184285"><ele>77.0</ele><time>2026-03-29T09:33:00.033Z</time></trkpt><trkpt lat="44.7889017" lon="10.184255"><ele>77.0</ele><time>2026-03-29T09:33:01.033Z</time></trkpt><trkpt lat="44.7887833" lon="10.18423"><ele>77.0</ele><time>2026-03-29T09:33:02.033Z</time></trkpt><trkpt lat="44.7886717" lon="10.1841983"><ele>77.0</ele><time>2026-03-29T09:33:03.032Z</time></trkpt><trkpt lat="44.7885533" lon="10.1841567"><ele>77.0</ele><time>2026-03-29T09:33:04.033Z</time></trkpt><trkpt lat="44.7884433" lon="10.1841217"><ele>77.0</ele><time>2026-03-29T09:33:05.032Z</time></trkpt><trkpt lat="44.7883283" lon="10.1840533"><ele>77.0</ele><time>2026-03-29T09:33:06.032Z</time></trkpt><trkpt lat="44.788205" lon="10.1839817"><ele>77.0</ele><time>2026-03-29T09:33:07.033Z</time></trkpt><trkpt lat="44.7880817" lon="10.1839233"><ele>77.0</ele><time>2026-03-29T09:33:08.033Z</time></trkpt><trkpt lat="44.787975" lon="10.1838617"><ele>77.0</ele><time>2026-03-29T09:33:09.033Z</time></trkpt><trkpt lat="44.7878667" lon="10.1837933"><ele>77.0</ele><time>2026-03-29T09:33:10.033Z</time></trkpt><trkpt lat="44.78777" lon="10.1837233"><ele>77.0</ele><time>2026-03-29T09:33:11.033Z</time></trkpt><trkpt lat="44.787685" lon="10.1836633"><ele>77.0</ele><time>2026-03-29T09:33:12.032Z</time></trkpt><trkpt lat="44.7876067" lon="10.1835983"><ele>77.0</ele><time>2026-03-29T09:33:13.033Z</time></trkpt><trkpt lat="44.7875333" lon="10.18354"><ele>77.0</ele><time>2026-03-29T09:33:14.033Z</time></trkpt><trkpt lat="44.78746" lon="10.18348"><ele>77.0</ele><time>2026-03-29T09:33:15.033Z</time></trkpt><trkpt lat="44.7873933" lon="10.183435"><ele>77.0</ele><time>2026-03-29T09:33:16.033Z</time></trkpt><trkpt lat="44.7873183" lon="10.1834067"><ele>77.0</ele><time>2026-03-29T09:33:17.033Z</time></trkpt><trkpt lat="44.78724" lon="10.1833933"><ele>77.0</ele><time>2026-03-29T09:33:18.033Z</time></trkpt><trkpt lat="44.7871417" lon="10.1833767"><ele>77.0</ele><time>2026-03-29T09:33:19.033Z</time></trkpt><trkpt lat="44.787025" lon="10.1833667"><ele>77.0</ele><time>2026-03-29T09:33:20.033Z</time></trkpt><trkpt lat="44.7868967" lon="10.183355"><ele>77.0</ele><time>2026-03-29T09:33:21.033Z</time></trkpt><trkpt lat="44.7867717" lon="10.183315"><ele>77.0</ele><time>2026-03-29T09:33:22.033Z</time></trkpt><trkpt lat="44.78664" lon="10.1832583"><ele>77.0</ele><time>2026-03-29T09:33:23.033Z</time></trkpt><trkpt lat="44.7865217" lon="10.1831767"><ele>76.75</ele><time>2026-03-29T09:33:24.032Z</time></trkpt><trkpt lat="44.7864" lon="10.183115"><ele>76.5</ele><time>2026-03-29T09:33:25.032Z</time></trkpt><trkpt lat="44.78629" lon="10.1830383"><ele>76.25</ele><time>2026-03-29T09:33:26.033Z</time></trkpt><trkpt lat="44.7861733" lon="10.1829467"><ele>76.0</ele><time>2026-03-29T09:33:27.032Z</time></trkpt><trkpt lat="44.7860617" lon="10.1828233"><ele>76.25</ele><time>2026-03-29T09:33:28.032Z</time></trkpt><trkpt lat="44.785945" lon="10.1826967"><ele>76.5</ele><time>2026-03-29T09:33:29.032Z</time></trkpt><trkpt lat="44.7858483" lon="10.1825683"><ele>76.75</ele><time>2026-03-29T09:33:30.033Z</time></trkpt><trkpt lat="44.785755" lon="10.1824467"><ele>77.0</ele><time>2026-03-29T09:33:31.033Z</time></trkpt><trkpt lat="44.785655" lon="10.1823267"><ele>77.0</ele><time>2026-03-29T09:33:32.033Z</time></trkpt><trkpt lat="44.7855667" lon="10.1822117"><ele>77.0</ele><time>2026-03-29T09:33:33.032Z</time></trkpt><trkpt lat="44.78548" lon="10.1821067"><ele>77.0</ele><time>2026-03-29T09:33:34.033Z</time></trkpt><trkpt lat="44.7853983" lon="10.182"><ele>77.0</ele><time>2026-03-29T09:33:35.033Z</time></trkpt><trkpt lat="44.7853117" lon="10.1818833"><ele>77.0</ele><time>2026-03-29T09:33:36.032Z</time></trkpt><trkpt lat="44.7852217" lon="10.1817833"><ele>77.0</ele><time>2026-03-29T09:33:37.033Z</time></trkpt><trkpt lat="44.7851217" lon="10.18169"><ele>77.0</ele><time>2026-03-29T09:33:38.032Z</time></trkpt><trkpt lat="44.7850267" lon="10.181605"><ele>77.0</ele><time>2026-03-29T09:33:39.033Z</time></trkpt><trkpt lat="44.78495" lon="10.181515"><ele>77.0</ele><time>2026-03-29T09:33:40.033Z</time></trkpt><trkpt lat="44.784865" lon="10.1814367"><ele>77.8</ele><time>2026-03-29T09:33:41.033Z</time></trkpt><trkpt lat="44.7847917" lon="10.1813533"><ele>78.6</ele><time>2026-03-29T09:33:42.033Z</time></trkpt><trkpt lat="44.784725" lon="10.181265"><ele>79.39999999999999</ele><time>2026-03-29T09:33:43.033Z</time></trkpt><trkpt lat="44.78466" lon="10.1811517"><ele>80.2</ele><time>2026-03-29T09:33:44.032Z</time></trkpt><trkpt lat="44.7846067" lon="10.1810283"><ele>81.0</ele><time>2026-03-29T09:33:45.033Z</time></trkpt><trkpt lat="44.784565" lon="10.1808883"><ele>81.0</ele><time>2026-03-29T09:33:46.033Z</time></trkpt><trkpt lat="44.7845233" lon="10.1807117"><ele>81.0</ele><time>2026-03-29T09:33:47.033Z</time></trkpt><trkpt lat="44.784485" lon="10.1805367"><ele>81.0</ele><time>2026-03-29T09:33:48.033Z</time></trkpt><trkpt lat="44.7844467" lon="10.1803767"><ele>81.0</ele><time>2026-03-29T09:33:49.032Z</time></trkpt><trkpt lat="44.784415" lon="10.1802467"><ele>81.0</ele><time>2026-03-29T09:33:50.033Z</time></trkpt><trkpt lat="44.7843783" lon="10.18012"><ele>81.0</ele><time>2026-03-29T09:33:51.033Z</time></trkpt><trkpt lat="44.7843267" lon="10.180005"><ele>81.0</ele><time>2026-03-29T09:33:52.033Z</time></trkpt><trkpt lat="44.784265" lon="10.179885"><ele>81.0</ele><time>2026-03-29T09:33:53.033Z</time></trkpt><trkpt lat="44.784185" lon="10.1797633"><ele>81.0</ele><time>2026-03-29T09:33:54.033Z</time></trkpt><trkpt lat="44.7840833" lon="10.1796317"><ele>81.0</ele><time>2026-03-29T09:33:55.033Z</time></trkpt><trkpt lat="44.7839617" lon="10.179505"><ele>81.0</ele><time>2026-03-29T09:33:56.033Z</time></trkpt><trkpt lat="44.783835" lon="10.1793783"><ele>81.0</ele><time>2026-03-29T09:33:57.032Z</time></trkpt><trkpt lat="44.7837167" lon="10.1792483"><ele>81.0</ele><time>2026-03-29T09:33:58.032Z</time></trkpt><trkpt lat="44.7836067" lon="10.1791333"><ele>81.0</ele><time>2026-03-29T09:33:59.033Z</time></trkpt><trkpt lat="44.7835067" lon="10.1790267"><ele>81.0</ele><time>2026-03-29T09:34:00.033Z</time></trkpt><trkpt lat="44.7834067" lon="10.1789283"><ele>81.0</ele><time>2026-03-29T09:34:01.033Z</time></trkpt><trkpt lat="44.7833117" lon="10.1788283"><ele>80.5</ele><time>2026-03-29T09:34:02.033Z</time></trkpt><trkpt lat="44.783205" lon="10.1787567"><ele>80.0</ele><time>2026-03-29T09:34:03.032Z</time></trkpt><trkpt lat="44.7830983" lon="10.1787133"><ele>79.5</ele><time>2026-03-29T09:34:04.033Z</time></trkpt><trkpt lat="44.7829733" lon="10.17869"><ele>79.0</ele><time>2026-03-29T09:34:05.032Z</time></trkpt><trkpt lat="44.7828417" lon="10.17868"><ele>79.0</ele><time>2026-03-29T09:34:06.033Z</time></trkpt><trkpt lat="44.782695" lon="10.1786617"><ele>79.0</ele><time>2026-03-29T09:34:07.033Z</time></trkpt><trkpt lat="44.7825567" lon="10.1786467"><ele>79.0</ele><time>2026-03-29T09:34:08.033Z</time></trkpt><trkpt lat="44.7824317" lon="10.1786283"><ele>79.0</ele><time>2026-03-29T09:34:09.033Z</time></trkpt><trkpt lat="44.7823117" lon="10.17862"><ele>79.2</ele><time>2026-03-29T09:34:10.033Z</time></trkpt><trkpt lat="44.7822017" lon="10.1786033"><ele>79.4</ele><time>2026-03-29T09:34:11.033Z</time></trkpt><trkpt lat="44.7820917" lon="10.1785967"><ele>79.6</ele><time>2026-03-29T09:34:12.033Z</time></trkpt><trkpt lat="44.781985" lon="10.1785917"><ele>79.8</ele><time>2026-03-29T09:34:13.032Z</time></trkpt><trkpt lat="44.7819" lon="10.1785667"><ele>80.0</ele><time>2026-03-29T09:34:14.032Z</time></trkpt><trkpt lat="44.7818117" lon="10.1785283"><ele>80.0</ele><time>2026-03-29T09:34:15.033Z</time></trkpt><trkpt lat="44.7817333" lon="10.1784583"><ele>80.0</ele><time>2026-03-29T09:34:16.033Z</time></trkpt><trkpt lat="44.781655" lon="10.17837"><ele>80.0</ele><time>2026-03-29T09:34:17.032Z</time></trkpt><trkpt lat="44.7815833" lon="10.1782783"><ele>80.0</ele><time>2026-03-29T09:34:18.033Z</time></trkpt><trkpt lat="44.78151" lon="10.1781867"><ele>80.0</ele><time>2026-03-29T09:34:19.033Z</time></trkpt><trkpt lat="44.781445" lon="10.178095"><ele>80.0</ele><time>2026-03-29T09:34:20.033Z</time></trkpt><trkpt lat="44.7813767" lon="10.1780033"><ele>80.0</ele><time>2026-03-29T09:34:21.033Z</time></trkpt><trkpt lat="44.7813052" lon="10.177926"><ele>80.0</ele><time>2026-03-29T09:34:22.033Z</time></trkpt><trkpt lat="44.7812356" lon="10.1778313"><ele>80.0</ele><time>2026-03-29T09:34:23.032Z</time></trkpt><trkpt lat="44.7811657" lon="10.1777379"><ele>80.0</ele><time>2026-03-29T09:34:24.033Z</time></trkpt><trkpt lat="44.7810965" lon="10.1776566"><ele>80.0</ele><time>2026-03-29T09:34:25.033Z</time></trkpt><trkpt lat="44.7810357" lon="10.1775871"><ele>80.0</ele><time>2026-03-29T09:34:26.033Z</time></trkpt><trkpt lat="44.7809805" lon="10.1775211"><ele>80.0</ele><time>2026-03-29T09:34:27.032Z</time></trkpt><trkpt lat="44.7809281" lon="10.1774673"><ele>80.0</ele><time>2026-03-29T09:34:28.033Z</time></trkpt><trkpt lat="44.7808184" lon="10.1773875"><ele>80.0</ele><time>2026-03-29T09:34:30.033Z</time></trkpt><trkpt lat="44.780745" lon="10.177349"><ele>80.0</ele><time>2026-03-29T09:34:31.032Z</time></trkpt><trkpt lat="44.7806571" lon="10.1773126"><ele>80.25</ele><time>2026-03-29T09:34:32.032Z</time></trkpt><trkpt lat="44.7805567" lon="10.1772829"><ele>80.5</ele><time>2026-03-29T09:34:33.033Z</time></trkpt><trkpt lat="44.7804436" lon="10.1772647"><ele>80.75</ele><time>2026-03-29T09:34:34.032Z</time></trkpt><trkpt lat="44.7803165" lon="10.1772422"><ele>81.0</ele><time>2026-03-29T09:34:35.032Z</time></trkpt><trkpt lat="44.7801913" lon="10.1772205"><ele>81.5</ele><time>2026-03-29T09:34:36.032Z</time></trkpt><trkpt lat="44.7800723" lon="10.1771999"><ele>82.0</ele><time>2026-03-29T09:34:37.032Z</time></trkpt><trkpt lat="44.7799515" lon="10.1771654"><ele>82.5</ele><time>2026-03-29T09:34:38.033Z</time></trkpt><trkpt lat="44.7798249" lon="10.1771078"><ele>83.0</ele><time>2026-03-29T09:34:39.032Z</time></trkpt><trkpt lat="44.7796964" lon="10.1770178"><ele>83.0</ele><time>2026-03-29T09:34:40.032Z</time></trkpt><trkpt lat="44.7795622" lon="10.1769164"><ele>83.0</ele><time>2026-03-29T09:34:41.033Z</time></trkpt><trkpt lat="44.7794273" lon="10.1768111"><ele>83.0</ele><time>2026-03-29T09:34:42.033Z</time></trkpt><trkpt lat="44.7792915" lon="10.1767159"><ele>82.66666666666667</ele><time>2026-03-29T09:34:43.033Z</time></trkpt><trkpt lat="44.7791494" lon="10.1766311"><ele>82.33333333333333</ele><time>2026-03-29T09:34:44.033Z</time></trkpt><trkpt lat="44.779002" lon="10.1765412"><ele>82.0</ele><time>2026-03-29T09:34:45.032Z</time></trkpt><trkpt lat="44.7788616" lon="10.1764613"><ele>82.0</ele><time>2026-03-29T09:34:46.032Z</time></trkpt><trkpt lat="44.7787338" lon="10.1763818"><ele>82.0</ele><time>2026-03-29T09:34:47.033Z</time></trkpt><trkpt lat="44.7786088" lon="10.1763154"><ele>82.0</ele><time>2026-03-29T09:34:48.033Z</time></trkpt><trkpt lat="44.778492" lon="10.1762609"><ele>82.0</ele><time>2026-03-29T09:34:49.033Z</time></trkpt><trkpt lat="44.7783885" lon="10.1762145"><ele>82.16666666666666</ele><time>2026-03-29T09:34:50.032Z</time></trkpt><trkpt lat="44.7782923" lon="10.1761829"><ele>82.33333333333333</ele><time>2026-03-29T09:34:51.033Z</time></trkpt><trkpt lat="44.778207" lon="10.1761563"><ele>82.5</ele><time>2026-03-29T09:34:52.033Z</time></trkpt><trkpt lat="44.7781308" lon="10.1761287"><ele>82.66666666666667</ele><time>2026-03-29T09:34:53.033Z</time></trkpt><trkpt lat="44.7780649" lon="10.176092"><ele>82.83333333333334</ele><time>2026-03-29T09:34:54.033Z</time></trkpt><trkpt lat="44.7780176" lon="10.1760332"><ele>83.0</ele><time>2026-03-29T09:34:55.033Z</time></trkpt><trkpt lat="44.7779732" lon="10.1759502"><ele>83.0</ele><time>2026-03-29T09:34:56.032Z</time></trkpt><trkpt lat="44.7779401" lon="10.1758354"><ele>83.0</ele><time>2026-03-29T09:34:57.033Z</time></trkpt><trkpt lat="44.7779145" lon="10.1756918"><ele>83.0</ele><time>2026-03-29T09:34:58.033Z</time></trkpt><trkpt lat="44.777889" lon="10.1755126"><ele>83.0</ele><time>2026-03-29T09:34:59.032Z</time></trkpt><trkpt lat="44.7778613" lon="10.1753159"><ele>83.0</ele><time>2026-03-29T09:35:00.033Z</time></trkpt><trkpt lat="44.7778312" lon="10.175111"><ele>83.0</ele><time>2026-03-29T09:35:01.033Z</time></trkpt><trkpt lat="44.7777961" lon="10.1749158"><ele>83.0</ele><time>2026-03-29T09:35:02.032Z</time></trkpt><trkpt lat="44.7777703" lon="10.1747365"><ele>83.0</ele><time>2026-03-29T09:35:03.032Z</time></trkpt><trkpt lat="44.7777413" lon="10.1745703"><ele>83.0</ele><time>2026-03-29T09:35:04.033Z</time></trkpt><trkpt lat="44.7777105" lon="10.1744216"><ele>83.0</ele><time>2026-03-29T09:35:05.032Z</time></trkpt><trkpt lat="44.7776702" lon="10.1742958"><ele>83.0</ele><time>2026-03-29T09:35:06.033Z</time></trkpt><trkpt lat="44.777613" lon="10.1741666"><ele>83.0</ele><time>2026-03-29T09:35:07.033Z</time></trkpt><trkpt lat="44.7775388" lon="10.174045"><ele>83.0</ele><time>2026-03-29T09:35:08.032Z</time></trkpt><trkpt lat="44.7774451" lon="10.1739377"><ele>82.66666666666667</ele><time>2026-03-29T09:35:09.033Z</time></trkpt><trkpt lat="44.7773387" lon="10.1738154"><ele>82.33333333333333</ele><time>2026-03-29T09:35:10.033Z</time></trkpt><trkpt lat="44.7772081" lon="10.1736934"><ele>82.0</ele><time>2026-03-29T09:35:11.033Z</time></trkpt><trkpt lat="44.777061" lon="10.1735472"><ele>82.0</ele><time>2026-03-29T09:35:12.033Z</time></trkpt><trkpt lat="44.7768924" lon="10.1733923"><ele>82.0</ele><time>2026-03-29T09:35:13.032Z</time></trkpt><trkpt lat="44.7767223" lon="10.1732315"><ele>82.0</ele><time>2026-03-29T09:35:14.033Z</time></trkpt><trkpt lat="44.776554" lon="10.1730834"><ele>82.66666666666666</ele><time>2026-03-29T09:35:15.033Z</time></trkpt><trkpt lat="44.7763981" lon="10.1729358"><ele>83.33333333333333</ele><time>2026-03-29T09:35:16.033Z</time></trkpt><trkpt lat="44.7762554" lon="10.1727976"><ele>84.0</ele><time>2026-03-29T09:35:17.033Z</time></trkpt><trkpt lat="44.7761131" lon="10.1726736"><ele>84.0</ele><time>2026-03-29T09:35:18.033Z</time></trkpt><trkpt lat="44.7759824" lon="10.1725464"><ele>84.0</ele><time>2026-03-29T09:35:19.032Z</time></trkpt><trkpt lat="44.7758667" lon="10.1724298"><ele>84.0</ele><time>2026-03-29T09:35:20.032Z</time></trkpt><trkpt lat="44.7757653" lon="10.1723252"><ele>84.0</ele><time>2026-03-29T09:35:21.032Z</time></trkpt><trkpt lat="44.7756781" lon="10.1722383"><ele>84.0</ele><time>2026-03-29T09:35:22.032Z</time></trkpt><trkpt lat="44.7755896" lon="10.1721687"><ele>84.0</ele><time>2026-03-29T09:35:23.032Z</time></trkpt><trkpt lat="44.7754912" lon="10.1721167"><ele>84.0</ele><time>2026-03-29T09:35:24.032Z</time></trkpt><trkpt lat="44.7753857" lon="10.1720789"><ele>84.0</ele><time>2026-03-29T09:35:25.033Z</time></trkpt><trkpt lat="44.775259" lon="10.1720659"><ele>84.0</ele><time>2026-03-29T09:35:26.033Z</time></trkpt><trkpt lat="44.7751233" lon="10.1720617"><ele>84.0</ele><time>2026-03-29T09:35:27.032Z</time></trkpt><trkpt lat="44.7749834" lon="10.1720586"><ele>84.0</ele><time>2026-03-29T09:35:28.033Z</time></trkpt><trkpt lat="44.7748336" lon="10.1720542"><ele>84.0</ele><time>2026-03-29T09:35:29.033Z</time></trkpt><trkpt lat="44.7746789" lon="10.1720512"><ele>84.0</ele><time>2026-03-29T09:35:30.032Z</time></trkpt><trkpt lat="44.7745312" lon="10.1720457"><ele>84.0</ele><time>2026-03-29T09:35:31.033Z</time></trkpt><trkpt lat="44.7743913" lon="10.172043"><ele>84.0</ele><time>2026-03-29T09:35:32.033Z</time></trkpt><trkpt lat="44.7742592" lon="10.1720339"><ele>84.0</ele><time>2026-03-29T09:35:33.033Z</time></trkpt><trkpt lat="44.7741345" lon="10.1720287"><ele>84.0</ele><time>2026-03-29T09:35:34.032Z</time></trkpt><trkpt lat="44.7740201" lon="10.1720213"><ele>84.4</ele><time>2026-03-29T09:35:35.032Z</time></trkpt><trkpt lat="44.7739056" lon="10.1719987"><ele>84.80000000000001</ele><time>2026-03-29T09:35:36.032Z</time></trkpt><trkpt lat="44.7737957" lon="10.1719695"><ele>85.19999999999999</ele><time>2026-03-29T09:35:37.033Z</time></trkpt><trkpt lat="44.7736971" lon="10.171932"><ele>85.6</ele><time>2026-03-29T09:35:38.032Z</time></trkpt><trkpt lat="44.7736014" lon="10.1719013"><ele>86.0</ele><time>2026-03-29T09:35:39.033Z</time></trkpt><trkpt lat="44.7735017" lon="10.1718634"><ele>86.0</ele><time>2026-03-29T09:35:40.033Z</time></trkpt><trkpt lat="44.7733961" lon="10.1718108"><ele>86.0</ele><time>2026-03-29T09:35:41.032Z</time></trkpt><trkpt lat="44.7732768" lon="10.1717467"><ele>86.0</ele><time>2026-03-29T09:35:42.033Z</time></trkpt><trkpt lat="44.773143" lon="10.171677"><ele>86.0</ele><time>2026-03-29T09:35:43.033Z</time></trkpt><trkpt lat="44.7729936" lon="10.1715968"><ele>86.33333333333334</ele><time>2026-03-29T09:35:44.033Z</time></trkpt><trkpt lat="44.7728389" lon="10.1715221"><ele>86.66666666666667</ele><time>2026-03-29T09:35:45.032Z</time></trkpt><trkpt lat="44.7726867" lon="10.1714541"><ele>87.0</ele><time>2026-03-29T09:35:46.033Z</time></trkpt><trkpt lat="44.7725418" lon="10.1713853"><ele>87.0</ele><time>2026-03-29T09:35:47.033Z</time></trkpt><trkpt lat="44.7724077" lon="10.1713162"><ele>87.0</ele><time>2026-03-29T09:35:48.032Z</time></trkpt><trkpt lat="44.7722723" lon="10.171252"><ele>87.0</ele><time>2026-03-29T09:35:49.033Z</time></trkpt><trkpt lat="44.7721267" lon="10.1711831"><ele>87.0</ele><time>2026-03-29T09:35:50.033Z</time></trkpt><trkpt lat="44.7719779" lon="10.1711047"><ele>87.0</ele><time>2026-03-29T09:35:51.033Z</time></trkpt><trkpt lat="44.7718328" lon="10.1710261"><ele>87.0</ele><time>2026-03-29T09:35:52.032Z</time></trkpt><trkpt lat="44.7716937" lon="10.1709533"><ele>87.0</ele><time>2026-03-29T09:35:53.033Z</time></trkpt><trkpt lat="44.7715673" lon="10.1708976"><ele>87.0</ele><time>2026-03-29T09:35:54.033Z</time></trkpt><trkpt lat="44.771465" lon="10.1708468"><ele>87.0</ele><time>2026-03-29T09:35:55.033Z</time></trkpt><trkpt lat="44.7713722" lon="10.1707968"><ele>87.0</ele><time>2026-03-29T09:35:56.033Z</time></trkpt><trkpt lat="44.771287" lon="10.1707465"><ele>87.0</ele><time>2026-03-29T09:35:57.033Z</time></trkpt><trkpt lat="44.7712057" lon="10.1707115"><ele>87.0</ele><time>2026-03-29T09:35:58.033Z</time></trkpt><trkpt lat="44.7711354" lon="10.1706737"><ele>87.0</ele><time>2026-03-29T09:35:59.032Z</time></trkpt><trkpt lat="44.771068" lon="10.170636"><ele>87.0</ele><time>2026-03-29T09:36:00.032Z</time></trkpt><trkpt lat="44.7710059" lon="10.1705926"><ele>87.0</ele><time>2026-03-29T09:36:01.033Z</time></trkpt><trkpt lat="44.7709451" lon="10.1705408"><ele>87.0</ele><time>2026-03-29T09:36:02.033Z</time></trkpt><trkpt lat="44.7708873" lon="10.1704846"><ele>87.0</ele><time>2026-03-29T09:36:03.032Z</time></trkpt><trkpt lat="44.7708304" lon="10.170425"><ele>87.0</ele><time>2026-03-29T09:36:04.033Z</time></trkpt><trkpt lat="44.7707857" lon="10.1703574"><ele>87.0</ele><time>2026-03-29T09:36:05.033Z</time></trkpt><trkpt lat="44.7707368" lon="10.1701926"><ele>87.0</ele><time>2026-03-29T09:36:07.033Z</time></trkpt><trkpt lat="44.7707133" lon="10.170034"><ele>87.0</ele><time>2026-03-29T09:36:09.033Z</time></trkpt><trkpt lat="44.7707191" lon="10.1699246"><ele>87.0</ele><time>2026-03-29T09:36:11.033Z</time></trkpt><trkpt lat="44.7707484" lon="10.1697972"><ele>87.0</ele><time>2026-03-29T09:36:13.032Z</time></trkpt><trkpt lat="44.7707774" lon="10.1697101"><ele>87.0</ele><time>2026-03-29T09:36:14.032Z</time></trkpt><trkpt lat="44.7708027" lon="10.1696191"><ele>87.0</ele><time>2026-03-29T09:36:15.033Z</time></trkpt><trkpt lat="44.7708139" lon="10.1694663"><ele>87.0</ele><time>2026-03-29T09:36:17.032Z</time></trkpt><trkpt lat="44.7707584" lon="10.1693257"><ele>86.5</ele><time>2026-03-29T09:36:19.032Z</time></trkpt><trkpt lat="44.7707034" lon="10.1692675"><ele>86.0</ele><time>2026-03-29T09:36:20.033Z</time></trkpt><trkpt lat="44.770639" lon="10.1692277"><ele>85.5</ele><time>2026-03-29T09:36:21.032Z</time></trkpt><trkpt lat="44.7705682" lon="10.1692131"><ele>85.0</ele><time>2026-03-29T09:36:22.032Z</time></trkpt><trkpt lat="44.77049" lon="10.1692321"><ele>84.5</ele><time>2026-03-29T09:36:23.032Z</time></trkpt><trkpt lat="44.7704092" lon="10.1692784"><ele>84.0</ele><time>2026-03-29T09:36:24.033Z</time></trkpt><trkpt lat="44.7703319" lon="10.1693244"><ele>84.0</ele><time>2026-03-29T09:36:25.033Z</time></trkpt><trkpt lat="44.7702485" lon="10.1693499"><ele>84.0</ele><time>2026-03-29T09:36:26.033Z</time></trkpt><trkpt lat="44.7701574" lon="10.1693407"><ele>84.0</ele><time>2026-03-29T09:36:27.033Z</time></trkpt><trkpt lat="44.7700536" lon="10.1693055"><ele>84.0</ele><time>2026-03-29T09:36:28.033Z</time></trkpt><trkpt lat="44.7699373" lon="10.1692496"><ele>84.0</ele><time>2026-03-29T09:36:29.033Z</time></trkpt><trkpt lat="44.7698106" lon="10.1691873"><ele>84.0</ele><time>2026-03-29T09:36:30.033Z</time></trkpt><trkpt lat="44.7696817" lon="10.169122"><ele>84.0</ele><time>2026-03-29T09:36:31.033Z</time></trkpt><trkpt lat="44.7695555" lon="10.1690329"><ele>84.0</ele><time>2026-03-29T09:36:32.033Z</time></trkpt><trkpt lat="44.7694351" lon="10.168912"><ele>84.0</ele><time>2026-03-29T09:36:33.032Z</time></trkpt><trkpt lat="44.7693027" lon="10.1687634"><ele>85.0</ele><time>2026-03-29T09:36:34.032Z</time></trkpt><trkpt lat="44.7691493" lon="10.1685933"><ele>86.0</ele><time>2026-03-29T09:36:35.033Z</time></trkpt><trkpt lat="44.768984" lon="10.1684137"><ele>87.0</ele><time>2026-03-29T09:36:36.032Z</time></trkpt><trkpt lat="44.768811" lon="10.1682243"><ele>86.66666666666667</ele><time>2026-03-29T09:36:37.033Z</time></trkpt><trkpt lat="44.7686324" lon="10.1680288"><ele>86.33333333333334</ele><time>2026-03-29T09:36:38.033Z</time></trkpt><trkpt lat="44.7684612" lon="10.1678356"><ele>86.0</ele><time>2026-03-29T09:36:39.033Z</time></trkpt><trkpt lat="44.7682907" lon="10.1676403"><ele>87.0</ele><time>2026-03-29T09:36:40.033Z</time></trkpt><trkpt lat="44.7681269" lon="10.1674204"><ele>88.0</ele><time>2026-03-29T09:36:41.032Z</time></trkpt><trkpt lat="44.7679563" lon="10.1671767"><ele>88.5</ele><time>2026-03-29T09:36:42.033Z</time></trkpt><trkpt lat="44.767777" lon="10.1669097"><ele>89.0</ele><time>2026-03-29T09:36:43.032Z</time></trkpt><trkpt lat="44.7675892" lon="10.1666296"><ele>88.5</ele><time>2026-03-29T09:36:44.033Z</time></trkpt><trkpt lat="44.7673964" lon="10.1663399"><ele>88.0</ele><time>2026-03-29T09:36:45.032Z</time></trkpt><trkpt lat="44.7671967" lon="10.1660412"><ele>88.0</ele><time>2026-03-29T09:36:46.033Z</time></trkpt><trkpt lat="44.7669893" lon="10.1657359"><ele>88.0</ele><time>2026-03-29T09:36:47.033Z</time></trkpt><trkpt lat="44.7667803" lon="10.1654246"><ele>88.5</ele><time>2026-03-29T09:36:48.033Z</time></trkpt><trkpt lat="44.7665736" lon="10.1651145"><ele>89.0</ele><time>2026-03-29T09:36:49.033Z</time></trkpt><trkpt lat="44.7663681" lon="10.1648094"><ele>89.0</ele><time>2026-03-29T09:36:50.033Z</time></trkpt><trkpt lat="44.7661741" lon="10.1645291"><ele>89.0</ele><time>2026-03-29T09:36:51.033Z</time></trkpt><trkpt lat="44.7659986" lon="10.1642738"><ele>89.0</ele><time>2026-03-29T09:36:52.033Z</time></trkpt><trkpt lat="44.7658411" lon="10.1640393"><ele>89.0</ele><time>2026-03-29T09:36:53.033Z</time></trkpt><trkpt lat="44.7656985" lon="10.1638258"><ele>89.0</ele><time>2026-03-29T09:36:54.032Z</time></trkpt><trkpt lat="44.7655722" lon="10.1636418"><ele>88.5</ele><time>2026-03-29T09:36:55.033Z</time></trkpt><trkpt lat="44.7654624" lon="10.1634808"><ele>88.0</ele><time>2026-03-29T09:36:56.033Z</time></trkpt><trkpt lat="44.7653713" lon="10.1633437"><ele>87.5</ele><time>2026-03-29T09:36:57.033Z</time></trkpt><trkpt lat="44.7652894" lon="10.1632243"><ele>87.0</ele><time>2026-03-29T09:36:58.032Z</time></trkpt><trkpt lat="44.765215" lon="10.1631103"><ele>87.19999999999999</ele><time>2026-03-29T09:36:59.032Z</time></trkpt><trkpt lat="44.765143" lon="10.1630011"><ele>87.4</ele><time>2026-03-29T09:37:00.033Z</time></trkpt><trkpt lat="44.7650679" lon="10.1628911"><ele>87.6</ele><time>2026-03-29T09:37:01.033Z</time></trkpt><trkpt lat="44.7649918" lon="10.1627813"><ele>87.80000000000001</ele><time>2026-03-29T09:37:02.032Z</time></trkpt><trkpt lat="44.7649139" lon="10.1626676"><ele>88.0</ele><time>2026-03-29T09:37:03.032Z</time></trkpt><trkpt lat="44.7648379" lon="10.1625516"><ele>88.0</ele><time>2026-03-29T09:37:04.033Z</time></trkpt><trkpt lat="44.7647599" lon="10.1624426"><ele>88.0</ele><time>2026-03-29T09:37:05.032Z</time></trkpt><trkpt lat="44.7646815" lon="10.1623328"><ele>88.0</ele><time>2026-03-29T09:37:06.032Z</time></trkpt><trkpt lat="44.7646031" lon="10.1622226"><ele>88.0</ele><time>2026-03-29T09:37:07.033Z</time></trkpt><trkpt lat="44.7645273" lon="10.1621047"><ele>88.0</ele><time>2026-03-29T09:37:08.033Z</time></trkpt><trkpt lat="44.7644506" lon="10.1619777"><ele>88.5</ele><time>2026-03-29T09:37:09.032Z</time></trkpt><trkpt lat="44.7643649" lon="10.1618481"><ele>89.0</ele><time>2026-03-29T09:37:10.033Z</time></trkpt><trkpt lat="44.7642774" lon="10.1617197"><ele>89.5</ele><time>2026-03-29T09:37:11.033Z</time></trkpt><trkpt lat="44.7641924" lon="10.1615929"><ele>90.0</ele><time>2026-03-29T09:37:12.033Z</time></trkpt><trkpt lat="44.7641132" lon="10.1614685"><ele>91.0</ele><time>2026-03-29T09:37:13.032Z</time></trkpt><trkpt lat="44.7640321" lon="10.1613368"><ele>92.0</ele><time>2026-03-29T09:37:14.032Z</time></trkpt><trkpt lat="44.763954" lon="10.1611917"><ele>93.0</ele><time>2026-03-29T09:37:15.032Z</time></trkpt><trkpt lat="44.7638829" lon="10.1610292"><ele>94.0</ele><time>2026-03-29T09:37:16.033Z</time></trkpt><trkpt lat="44.7638202" lon="10.1608638"><ele>94.25</ele><time>2026-03-29T09:37:17.033Z</time></trkpt><trkpt lat="44.7637684" lon="10.1606859"><ele>94.5</ele><time>2026-03-29T09:37:18.032Z</time></trkpt><trkpt lat="44.7637189" lon="10.1605081"><ele>94.75</ele><time>2026-03-29T09:37:19.033Z</time></trkpt><trkpt lat="44.7636834" lon="10.1603079"><ele>95.0</ele><time>2026-03-29T09:37:20.033Z</time></trkpt><trkpt lat="44.7636474" lon="10.1600982"><ele>95.0</ele><time>2026-03-29T09:37:21.033Z</time></trkpt><trkpt lat="44.7636225" lon="10.1598739"><ele>95.0</ele><time>2026-03-29T09:37:22.033Z</time></trkpt><trkpt lat="44.7635973" lon="10.1596344"><ele>95.0</ele><time>2026-03-29T09:37:23.034Z</time></trkpt><trkpt lat="44.7635643" lon="10.1593778"><ele>94.0</ele><time>2026-03-29T09:37:24.033Z</time></trkpt><trkpt lat="44.7635331" lon="10.1591171"><ele>93.0</ele><time>2026-03-29T09:37:25.034Z</time></trkpt><trkpt lat="44.7635086" lon="10.1588487"><ele>92.0</ele><time>2026-03-29T09:37:26.034Z</time></trkpt><trkpt lat="44.7634812" lon="10.1585895"><ele>92.0</ele><time>2026-03-29T09:37:27.033Z</time></trkpt><trkpt lat="44.7634498" lon="10.1583427"><ele>92.0</ele><time>2026-03-29T09:37:28.033Z</time></trkpt><trkpt lat="44.7634162" lon="10.1581041"><ele>92.0</ele><time>2026-03-29T09:37:29.033Z</time></trkpt><trkpt lat="44.7633875" lon="10.1578846"><ele>92.25</ele><time>2026-03-29T09:37:30.034Z</time></trkpt><trkpt lat="44.7633612" lon="10.1576727"><ele>92.5</ele><time>2026-03-29T09:37:31.034Z</time></trkpt><trkpt lat="44.7633388" lon="10.1574763"><ele>92.75</ele><time>2026-03-29T09:37:32.034Z</time></trkpt><trkpt lat="44.763316" lon="10.157293"><ele>93.0</ele><time>2026-03-29T09:37:33.033Z</time></trkpt><trkpt lat="44.7632904" lon="10.1571248"><ele>93.2</ele><time>2026-03-29T09:37:34.034Z</time></trkpt><trkpt lat="44.7632593" lon="10.1569716"><ele>93.4</ele><time>2026-03-29T09:37:35.034Z</time></trkpt><trkpt lat="44.7632221" lon="10.1568337"><ele>93.60000000000001</ele><time>2026-03-29T09:37:36.033Z</time></trkpt><trkpt lat="44.7631753" lon="10.1567032"><ele>93.80000000000001</ele><time>2026-03-29T09:37:37.034Z</time></trkpt><trkpt lat="44.7631147" lon="10.1565755"><ele>94.0</ele><time>2026-03-29T09:37:38.034Z</time></trkpt><trkpt lat="44.7630396" lon="10.1564528"><ele>94.75</ele><time>2026-03-29T09:37:39.033Z</time></trkpt><trkpt lat="44.7629587" lon="10.1563352"><ele>95.5</ele><time>2026-03-29T09:37:40.034Z</time></trkpt><trkpt lat="44.7628702" lon="10.156226"><ele>96.25</ele><time>2026-03-29T09:37:41.034Z</time></trkpt><trkpt lat="44.7627712" lon="10.1561178"><ele>97.0</ele><time>2026-03-29T09:37:42.034Z</time></trkpt><trkpt lat="44.7626685" lon="10.1560094"><ele>97.0</ele><time>2026-03-29T09:37:43.034Z</time></trkpt><trkpt lat="44.7625631" lon="10.1558964"><ele>97.0</ele><time>2026-03-29T09:37:44.033Z</time></trkpt><trkpt lat="44.7624559" lon="10.1557718"><ele>97.0</ele><time>2026-03-29T09:37:45.034Z</time></trkpt><trkpt lat="44.7623496" lon="10.1556404"><ele>97.0</ele><time>2026-03-29T09:37:46.034Z</time></trkpt><trkpt lat="44.7622407" lon="10.1555001"><ele>97.0</ele><time>2026-03-29T09:37:47.034Z</time></trkpt><trkpt lat="44.7621158" lon="10.1553552"><ele>97.0</ele><time>2026-03-29T09:37:48.034Z</time></trkpt><trkpt lat="44.7619834" lon="10.1551987"><ele>97.0</ele><time>2026-03-29T09:37:49.034Z</time></trkpt><trkpt lat="44.7618317" lon="10.1550337"><ele>96.66666666666667</ele><time>2026-03-29T09:37:50.034Z</time></trkpt><trkpt lat="44.7616748" lon="10.1548512"><ele>96.33333333333334</ele><time>2026-03-29T09:37:51.034Z</time></trkpt><trkpt lat="44.7615083" lon="10.1546583"><ele>96.0</ele><time>2026-03-29T09:37:52.033Z</time></trkpt><trkpt lat="44.7613433" lon="10.1544667"><ele>96.0</ele><time>2026-03-29T09:37:53.034Z</time></trkpt><trkpt lat="44.76118" lon="10.1542667"><ele>96.0</ele><time>2026-03-29T09:37:54.034Z</time></trkpt><trkpt lat="44.7610117" lon="10.1540717"><ele>96.0</ele><time>2026-03-29T09:37:55.034Z</time></trkpt><trkpt lat="44.76085" lon="10.15389"><ele>95.33333333333333</ele><time>2026-03-29T09:37:56.033Z</time></trkpt><trkpt lat="44.7607" lon="10.1537167"><ele>94.66666666666666</ele><time>2026-03-29T09:37:57.034Z</time></trkpt><trkpt lat="44.76056" lon="10.15355"><ele>94.0</ele><time>2026-03-29T09:37:58.034Z</time></trkpt><trkpt lat="44.760425" lon="10.1533917"><ele>94.0</ele><time>2026-03-29T09:37:59.034Z</time></trkpt><trkpt lat="44.7602983" lon="10.153245"><ele>94.0</ele><time>2026-03-29T09:38:00.033Z</time></trkpt><trkpt lat="44.7601783" lon="10.1531083"><ele>94.0</ele><time>2026-03-29T09:38:01.034Z</time></trkpt><trkpt lat="44.7600433" lon="10.1529717"><ele>95.33333333333333</ele><time>2026-03-29T09:38:02.033Z</time></trkpt><trkpt lat="44.759885" lon="10.1528433"><ele>96.66666666666666</ele><time>2026-03-29T09:38:03.034Z</time></trkpt><trkpt lat="44.7597167" lon="10.1527283"><ele>98.0</ele><time>2026-03-29T09:38:04.034Z</time></trkpt><trkpt lat="44.7595483" lon="10.15262"><ele>98.0</ele><time>2026-03-29T09:38:05.033Z</time></trkpt><trkpt lat="44.7593933" lon="10.1525133"><ele>98.0</ele><time>2026-03-29T09:38:06.034Z</time></trkpt><trkpt lat="44.7592467" lon="10.1524217"><ele>98.0</ele><time>2026-03-29T09:38:07.033Z</time></trkpt><trkpt lat="44.75911" lon="10.15234"><ele>98.25</ele><time>2026-03-29T09:38:08.034Z</time></trkpt><trkpt lat="44.758985" lon="10.1522633"><ele>98.5</ele><time>2026-03-29T09:38:09.034Z</time></trkpt><trkpt lat="44.7588733" lon="10.1521867"><ele>98.75</ele><time>2026-03-29T09:38:10.033Z</time></trkpt><trkpt lat="44.7587633" lon="10.1520983"><ele>99.0</ele><time>2026-03-29T09:38:11.034Z</time></trkpt><trkpt lat="44.758655" lon="10.151995"><ele>99.0</ele><time>2026-03-29T09:38:12.034Z</time></trkpt><trkpt lat="44.75856" lon="10.1518717"><ele>99.0</ele><time>2026-03-29T09:38:13.034Z</time></trkpt><trkpt lat="44.758465" lon="10.15174"><ele>99.0</ele><time>2026-03-29T09:38:14.033Z</time></trkpt><trkpt lat="44.7583717" lon="10.1516167"><ele>99.0</ele><time>2026-03-29T09:38:15.034Z</time></trkpt><trkpt lat="44.7582867" lon="10.1515033"><ele>99.5</ele><time>2026-03-29T09:38:16.034Z</time></trkpt><trkpt lat="44.7581983" lon="10.151405"><ele>100.0</ele><time>2026-03-29T09:38:17.034Z</time></trkpt><trkpt lat="44.7581017" lon="10.15132"><ele>100.5</ele><time>2026-03-29T09:38:18.033Z</time></trkpt><trkpt lat="44.7579883" lon="10.151245"><ele>101.0</ele><time>2026-03-29T09:38:19.033Z</time></trkpt><trkpt lat="44.7578617" lon="10.1511833"><ele>101.0</ele><time>2026-03-29T09:38:20.033Z</time></trkpt><trkpt lat="44.7577217" lon="10.1511167"><ele>101.0</ele><time>2026-03-29T09:38:21.034Z</time></trkpt><trkpt lat="44.75756" lon="10.151055"><ele>101.0</ele><time>2026-03-29T09:38:22.034Z</time></trkpt><trkpt lat="44.75739" lon="10.1509867"><ele>101.0</ele><time>2026-03-29T09:38:23.034Z</time></trkpt><trkpt lat="44.7572133" lon="10.1509217"><ele>101.0</ele><time>2026-03-29T09:38:24.034Z</time></trkpt><trkpt lat="44.7570433" lon="10.150865"><ele>101.0</ele><time>2026-03-29T09:38:25.033Z</time></trkpt><trkpt lat="44.7568833" lon="10.1508117"><ele>101.33333333333333</ele><time>2026-03-29T09:38:26.033Z</time></trkpt><trkpt lat="44.756725" lon="10.1507583"><ele>101.66666666666666</ele><time>2026-03-29T09:38:27.033Z</time></trkpt><trkpt lat="44.7565833" lon="10.1507"><ele>102.0</ele><time>2026-03-29T09:38:28.033Z</time></trkpt><trkpt lat="44.756445" lon="10.150645"><ele>102.0</ele><time>2026-03-29T09:38:29.034Z</time></trkpt><trkpt lat="44.756315" lon="10.1505917"><ele>102.0</ele><time>2026-03-29T09:38:30.034Z</time></trkpt><trkpt lat="44.756195" lon="10.1505433"><ele>102.0</ele><time>2026-03-29T09:38:31.034Z</time></trkpt><trkpt lat="44.75608" lon="10.150505"><ele>102.0</ele><time>2026-03-29T09:38:32.033Z</time></trkpt><trkpt lat="44.75598" lon="10.1504733"><ele>102.0</ele><time>2026-03-29T09:38:33.034Z</time></trkpt><trkpt lat="44.75589" lon="10.1504433"><ele>102.0</ele><time>2026-03-29T09:38:34.034Z</time></trkpt><trkpt lat="44.7558067" lon="10.150415"><ele>102.0</ele><time>2026-03-29T09:38:35.034Z</time></trkpt><trkpt lat="44.755735" lon="10.1503633"><ele>102.0</ele><time>2026-03-29T09:38:36.034Z</time></trkpt><trkpt lat="44.7556717" lon="10.1502867"><ele>102.0</ele><time>2026-03-29T09:38:37.033Z</time></trkpt><trkpt lat="44.7556283" lon="10.15018"><ele>102.0</ele><time>2026-03-29T09:38:38.034Z</time></trkpt><trkpt lat="44.755595" lon="10.1500483"><ele>102.0</ele><time>2026-03-29T09:38:39.034Z</time></trkpt><trkpt lat="44.7555583" lon="10.1498967"><ele>102.0</ele><time>2026-03-29T09:38:40.033Z</time></trkpt><trkpt lat="44.75551" lon="10.1497417"><ele>102.0</ele><time>2026-03-29T09:38:41.034Z</time></trkpt><trkpt lat="44.7554367" lon="10.1495683"><ele>102.0</ele><time>2026-03-29T09:38:42.033Z</time></trkpt><trkpt lat="44.7553567" lon="10.1494083"><ele>102.0</ele><time>2026-03-29T09:38:43.034Z</time></trkpt><trkpt lat="44.7552767" lon="10.1492533"><ele>102.0</ele><time>2026-03-29T09:38:44.034Z</time></trkpt><trkpt lat="44.7552033" lon="10.1491033"><ele>102.0</ele><time>2026-03-29T09:38:45.034Z</time></trkpt><trkpt lat="44.75514" lon="10.1489467"><ele>102.0</ele><time>2026-03-29T09:38:46.033Z</time></trkpt><trkpt lat="44.7550833" lon="10.1487883"><ele>102.0</ele><time>2026-03-29T09:38:47.033Z</time></trkpt><trkpt lat="44.7550467" lon="10.1486217"><ele>102.0</ele><time>2026-03-29T09:38:48.033Z</time></trkpt><trkpt lat="44.7550217" lon="10.1484383"><ele>102.0</ele><time>2026-03-29T09:38:49.033Z</time></trkpt><trkpt lat="44.75501" lon="10.14826"><ele>102.0</ele><time>2026-03-29T09:38:50.034Z</time></trkpt><trkpt lat="44.7550183" lon="10.1480833"><ele>102.75</ele><time>2026-03-29T09:38:51.033Z</time></trkpt><trkpt lat="44.7550367" lon="10.1478967"><ele>103.5</ele><time>2026-03-29T09:38:52.033Z</time></trkpt><trkpt lat="44.75507" lon="10.147715"><ele>104.25</ele><time>2026-03-29T09:38:53.034Z</time></trkpt><trkpt lat="44.755095" lon="10.1475317"><ele>105.0</ele><time>2026-03-29T09:38:54.033Z</time></trkpt><trkpt lat="44.7550933" lon="10.1473483"><ele>105.6</ele><time>2026-03-29T09:38:55.033Z</time></trkpt><trkpt lat="44.755085" lon="10.1471833"><ele>106.2</ele><time>2026-03-29T09:38:56.034Z</time></trkpt><trkpt lat="44.7550733" lon="10.1470367"><ele>106.80000000000001</ele><time>2026-03-29T09:38:57.034Z</time></trkpt><trkpt lat="44.7550633" lon="10.1469033"><ele>107.4</ele><time>2026-03-29T09:38:58.034Z</time></trkpt><trkpt lat="44.755065" lon="10.1467767"><ele>108.0</ele><time>2026-03-29T09:38:59.034Z</time></trkpt><trkpt lat="44.755075" lon="10.1466633"><ele>108.0</ele><time>2026-03-29T09:39:00.034Z</time></trkpt><trkpt lat="44.755095" lon="10.146555"><ele>108.0</ele><time>2026-03-29T09:39:01.034Z</time></trkpt><trkpt lat="44.755125" lon="10.146455"><ele>108.0</ele><time>2026-03-29T09:39:02.033Z</time></trkpt><trkpt lat="44.75516" lon="10.1463633"><ele>108.0</ele><time>2026-03-29T09:39:03.034Z</time></trkpt><trkpt lat="44.7551933" lon="10.146285"><ele>108.0</ele><time>2026-03-29T09:39:04.034Z</time></trkpt><trkpt lat="44.7552217" lon="10.1461567"><ele>108.0</ele><time>2026-03-29T09:39:06.034Z</time></trkpt><trkpt lat="44.7551967" lon="10.1460267"><ele>108.2</ele><time>2026-03-29T09:39:08.034Z</time></trkpt><trkpt lat="44.7551567" lon="10.14594"><ele>108.4</ele><time>2026-03-29T09:39:09.033Z</time></trkpt><trkpt lat="44.7550867" lon="10.14584"><ele>108.60000000000001</ele><time>2026-03-29T09:39:10.033Z</time></trkpt><trkpt lat="44.7550033" lon="10.1457283"><ele>108.80000000000001</ele><time>2026-03-29T09:39:11.034Z</time></trkpt><trkpt lat="44.754925" lon="10.1456167"><ele>109.0</ele><time>2026-03-29T09:39:12.034Z</time></trkpt><trkpt lat="44.7548567" lon="10.145505"><ele>109.50000000000001</ele><time>2026-03-29T09:39:13.034Z</time></trkpt><trkpt lat="44.7548017" lon="10.1454017"><ele>110.0</ele><time>2026-03-29T09:39:14.034Z</time></trkpt><trkpt lat="44.7547633" lon="10.14529"><ele>110.5</ele><time>2026-03-29T09:39:15.034Z</time></trkpt><trkpt lat="44.7547417" lon="10.14517"><ele>111.0</ele><time>2026-03-29T09:39:16.033Z</time></trkpt><trkpt lat="44.7547217" lon="10.1450517"><ele>111.50000000000001</ele><time>2026-03-29T09:39:17.033Z</time></trkpt><trkpt lat="44.7547233" lon="10.1449183"><ele>112.0</ele><time>2026-03-29T09:39:18.034Z</time></trkpt><trkpt lat="44.754725" lon="10.144785"><ele>113.0</ele><time>2026-03-29T09:39:19.034Z</time></trkpt><trkpt lat="44.7547317" lon="10.1446567"><ele>113.99999999999999</ele><time>2026-03-29T09:39:20.034Z</time></trkpt><trkpt lat="44.7547317" lon="10.1445317"><ele>114.99999999999999</ele><time>2026-03-29T09:39:21.033Z</time></trkpt><trkpt lat="44.754745" lon="10.1444"><ele>116.0</ele><time>2026-03-29T09:39:22.033Z</time></trkpt><trkpt lat="44.7547717" lon="10.1442633"><ele>117.0</ele><time>2026-03-29T09:39:23.033Z</time></trkpt><trkpt lat="44.75481" lon="10.14412"><ele>118.19999999999999</ele><time>2026-03-29T09:39:24.033Z</time></trkpt><trkpt lat="44.754865" lon="10.1439783"><ele>119.39999999999999</ele><time>2026-03-29T09:39:25.034Z</time></trkpt><trkpt lat="44.7549167" lon="10.1438417"><ele>120.60000000000001</ele><time>2026-03-29T09:39:26.033Z</time></trkpt><trkpt lat="44.7549583" lon="10.1437217"><ele>121.80000000000001</ele><time>2026-03-29T09:39:27.033Z</time></trkpt><trkpt lat="44.7550017" lon="10.1436117"><ele>123.0</ele><time>2026-03-29T09:39:28.034Z</time></trkpt><trkpt lat="44.7550483" lon="10.143485"><ele>123.0</ele><time>2026-03-29T09:39:29.034Z</time></trkpt><trkpt lat="44.75511" lon="10.1433583"><ele>123.00000000000001</ele><time>2026-03-29T09:39:30.034Z</time></trkpt><trkpt lat="44.7551683" lon="10.1432233"><ele>123.00000000000001</ele><time>2026-03-29T09:39:31.034Z</time></trkpt><trkpt lat="44.7552283" lon="10.1431033"><ele>123.0</ele><time>2026-03-29T09:39:32.034Z</time></trkpt><trkpt lat="44.7552783" lon="10.1429967"><ele>123.0</ele><time>2026-03-29T09:39:33.034Z</time></trkpt><trkpt lat="44.7553167" lon="10.1429017"><ele>124.83333333333333</ele><time>2026-03-29T09:39:34.034Z</time></trkpt><trkpt lat="44.7553433" lon="10.1428133"><ele>126.66666666666666</ele><time>2026-03-29T09:39:35.034Z</time></trkpt><trkpt lat="44.7553617" lon="10.14267"><ele>128.5</ele><time>2026-03-29T09:39:37.034Z</time></trkpt><trkpt lat="44.7553717" lon="10.1425217"><ele>130.33333333333331</ele><time>2026-03-29T09:39:39.034Z</time></trkpt><trkpt lat="44.7554" lon="10.1424217"><ele>132.16666666666666</ele><time>2026-03-29T09:39:41.034Z</time></trkpt><trkpt lat="44.755465" lon="10.1423783"><ele>134.0</ele><time>2026-03-29T09:39:43.034Z</time></trkpt><trkpt lat="44.7555467" lon="10.1424083"><ele>134.0</ele><time>2026-03-29T09:39:45.033Z</time></trkpt><trkpt lat="44.7556017" lon="10.1424717"><ele>134.0</ele><time>2026-03-29T09:39:46.034Z</time></trkpt><trkpt lat="44.7556917" lon="10.142575"><ele>134.0</ele><time>2026-03-29T09:39:47.033Z</time></trkpt><trkpt lat="44.7557867" lon="10.142705"><ele>134.0</ele><time>2026-03-29T09:39:48.033Z</time></trkpt><trkpt lat="44.7558817" lon="10.1428167"><ele>134.0</ele><time>2026-03-29T09:39:49.034Z</time></trkpt><trkpt lat="44.75596" lon="10.1429067"><ele>134.16666666666666</ele><time>2026-03-29T09:39:50.033Z</time></trkpt><trkpt lat="44.7560367" lon="10.1430083"><ele>134.33333333333331</ele><time>2026-03-29T09:39:51.033Z</time></trkpt><trkpt lat="44.7561117" lon="10.14308"><ele>134.5</ele><time>2026-03-29T09:39:52.033Z</time></trkpt><trkpt lat="44.75617" lon="10.143135"><ele>134.66666666666666</ele><time>2026-03-29T09:39:53.034Z</time></trkpt><trkpt lat="44.7562233" lon="10.1431833"><ele>134.83333333333334</ele><time>2026-03-29T09:39:54.034Z</time></trkpt><trkpt lat="44.75629" lon="10.1432083"><ele>135.0</ele><time>2026-03-29T09:39:55.034Z</time></trkpt><trkpt lat="44.7563583" lon="10.143195"><ele>135.0</ele><time>2026-03-29T09:39:56.034Z</time></trkpt><trkpt lat="44.75643" lon="10.143175"><ele>135.0</ele><time>2026-03-29T09:39:57.033Z</time></trkpt><trkpt lat="44.7564833" lon="10.1431083"><ele>135.0</ele><time>2026-03-29T09:39:58.033Z</time></trkpt><trkpt lat="44.756555" lon="10.143035"><ele>135.0</ele><time>2026-03-29T09:39:59.034Z</time></trkpt><trkpt lat="44.7566267" lon="10.1429567"><ele>135.0</ele><time>2026-03-29T09:40:00.034Z</time></trkpt><trkpt lat="44.756685" lon="10.1428867"><ele>135.0</ele><time>2026-03-29T09:40:01.033Z</time></trkpt><trkpt lat="44.7567467" lon="10.1428367"><ele>135.0</ele><time>2026-03-29T09:40:02.034Z</time></trkpt><trkpt lat="44.7568033" lon="10.142795"><ele>135.0</ele><time>2026-03-29T09:40:03.033Z</time></trkpt><trkpt lat="44.7568917" lon="10.1426917"><ele>135.0</ele><time>2026-03-29T09:40:05.033Z</time></trkpt><trkpt lat="44.7569317" lon="10.1425667"><ele>135.0</ele><time>2026-03-29T09:40:07.033Z</time></trkpt><trkpt lat="44.7570017" lon="10.1424117"><ele>135.0</ele><time>2026-03-29T09:40:09.034Z</time></trkpt><trkpt lat="44.7570633" lon="10.1423217"><ele>134.83333333333334</ele><time>2026-03-29T09:40:10.034Z</time></trkpt><trkpt lat="44.7571367" lon="10.142235"><ele>134.66666666666666</ele><time>2026-03-29T09:40:11.034Z</time></trkpt><trkpt lat="44.7571917" lon="10.1421533"><ele>134.5</ele><time>2026-03-29T09:40:12.033Z</time></trkpt><trkpt lat="44.757245" lon="10.1420933"><ele>134.33333333333331</ele><time>2026-03-29T09:40:13.033Z</time></trkpt><trkpt lat="44.75729" lon="10.142025"><ele>134.16666666666666</ele><time>2026-03-29T09:40:14.034Z</time></trkpt><trkpt lat="44.7573533" lon="10.1419083"><ele>134.0</ele><time>2026-03-29T09:40:16.034Z</time></trkpt><trkpt lat="44.7573633" lon="10.141815"><ele>134.0</ele><time>2026-03-29T09:40:18.034Z</time></trkpt><trkpt lat="44.757325" lon="10.1417233"><ele>134.0</ele><time>2026-03-29T09:40:20.034Z</time></trkpt><trkpt lat="44.7572417" lon="10.1415917"><ele>134.0</ele><time>2026-03-29T09:40:22.034Z</time></trkpt><trkpt lat="44.7571767" lon="10.1415267"><ele>134.0</ele><time>2026-03-29T09:40:23.034Z</time></trkpt><trkpt lat="44.7571017" lon="10.1414283"><ele>134.0</ele><time>2026-03-29T09:40:24.034Z</time></trkpt><trkpt lat="44.75704" lon="10.141325"><ele>134.33333333333331</ele><time>2026-03-29T09:40:25.034Z</time></trkpt><trkpt lat="44.7569933" lon="10.14124"><ele>134.66666666666666</ele><time>2026-03-29T09:40:26.034Z</time></trkpt><trkpt lat="44.75695" lon="10.1411717"><ele>135.0</ele><time>2026-03-29T09:40:27.034Z</time></trkpt><trkpt lat="44.7569083" lon="10.1410983"><ele>135.33333333333334</ele><time>2026-03-29T09:40:28.034Z</time></trkpt><trkpt lat="44.7568617" lon="10.1409667"><ele>135.66666666666669</ele><time>2026-03-29T09:40:30.034Z</time></trkpt><trkpt lat="44.7568483" lon="10.1408533"><ele>136.0</ele><time>2026-03-29T09:40:32.034Z</time></trkpt><trkpt lat="44.756825" lon="10.1407167"><ele>136.5</ele><time>2026-03-29T09:40:41.034Z</time></trkpt><trkpt lat="44.7567633" lon="10.140675"><ele>137.0</ele><time>2026-03-29T09:40:43.034Z</time></trkpt><trkpt lat="44.7566817" lon="10.1406717"><ele>137.5</ele><time>2026-03-29T09:40:45.034Z</time></trkpt><trkpt lat="44.7566417" lon="10.1405917"><ele>138.0</ele><time>2026-03-29T09:40:47.034Z</time></trkpt><trkpt lat="44.7566233" lon="10.1404683"><ele>138.5</ele><time>2026-03-29T09:40:49.033Z</time></trkpt><trkpt lat="44.7566167" lon="10.1403733"><ele>139.0</ele><time>2026-03-29T09:40:50.034Z</time></trkpt><trkpt lat="44.75662" lon="10.1402233"><ele>139.0</ele><time>2026-03-29T09:40:51.034Z</time></trkpt><trkpt lat="44.7566183" lon="10.1400217"><ele>139.0</ele><time>2026-03-29T09:40:52.034Z</time></trkpt><trkpt lat="44.75662" lon="10.1398217"><ele>139.0</ele><time>2026-03-29T09:40:53.034Z</time></trkpt><trkpt lat="44.75662" lon="10.1396367"><ele>139.0</ele><time>2026-03-29T09:40:54.033Z</time></trkpt><trkpt lat="44.7566133" lon="10.13946"><ele>138.8</ele><time>2026-03-29T09:40:55.034Z</time></trkpt><trkpt lat="44.7566083" lon="10.1393"><ele>138.60000000000002</ele><time>2026-03-29T09:40:56.034Z</time></trkpt><trkpt lat="44.7566083" lon="10.13915"><ele>138.4</ele><time>2026-03-29T09:40:57.034Z</time></trkpt><trkpt lat="44.7566117" lon="10.1390183"><ele>138.20000000000002</ele><time>2026-03-29T09:40:58.034Z</time></trkpt><trkpt lat="44.7566083" lon="10.13892"><ele>138.0</ele><time>2026-03-29T09:40:59.034Z</time></trkpt><trkpt lat="44.7565983" lon="10.1387867"><ele>138.0</ele><time>2026-03-29T09:41:01.034Z</time></trkpt><trkpt lat="44.75652" lon="10.138675"><ele>138.0</ele><time>2026-03-29T09:41:08.034Z</time></trkpt><trkpt lat="44.7564517" lon="10.13862"><ele>138.0</ele><time>2026-03-29T09:41:09.034Z</time></trkpt><trkpt lat="44.7563483" lon="10.138555"><ele>138.0</ele><time>2026-03-29T09:41:10.033Z</time></trkpt><trkpt lat="44.7562483" lon="10.1385133"><ele>138.0</ele><time>2026-03-29T09:41:11.033Z</time></trkpt><trkpt lat="44.7561483" lon="10.1384883"><ele>138.0</ele><time>2026-03-29T09:41:12.034Z</time></trkpt><trkpt lat="44.7560617" lon="10.138455"><ele>138.0</ele><time>2026-03-29T09:41:13.034Z</time></trkpt><trkpt lat="44.7559733" lon="10.1384233"><ele>138.0</ele><time>2026-03-29T09:41:14.033Z</time></trkpt><trkpt lat="44.75589" lon="10.1384183"><ele>138.0</ele><time>2026-03-29T09:41:15.033Z</time></trkpt><trkpt lat="44.7558217" lon="10.138385"><ele>138.0</ele><time>2026-03-29T09:41:16.034Z</time></trkpt><trkpt lat="44.755765" lon="10.138345"><ele>138.0</ele><time>2026-03-29T09:41:17.034Z</time></trkpt><trkpt lat="44.7556817" lon="10.1382967"><ele>138.4</ele><time>2026-03-29T09:41:19.034Z</time></trkpt><trkpt lat="44.755635" lon="10.1382233"><ele>138.8</ele><time>2026-03-29T09:41:21.034Z</time></trkpt><trkpt lat="44.7556483" lon="10.1380783"><ele>139.2</ele><time>2026-03-29T09:41:23.034Z</time></trkpt><trkpt lat="44.7556667" lon="10.1379667"><ele>139.6</ele><time>2026-03-29T09:41:24.034Z</time></trkpt><trkpt lat="44.755685" lon="10.1378383"><ele>140.0</ele><time>2026-03-29T09:41:25.034Z</time></trkpt><trkpt lat="44.7556983" lon="10.1376967"><ele>140.0</ele><time>2026-03-29T09:41:26.034Z</time></trkpt><trkpt lat="44.7557117" lon="10.137545"><ele>140.0</ele><time>2026-03-29T09:41:27.034Z</time></trkpt><trkpt lat="44.75573" lon="10.1374"><ele>140.0</ele><time>2026-03-29T09:41:28.034Z</time></trkpt><trkpt lat="44.755745" lon="10.137275"><ele>140.0</ele><time>2026-03-29T09:41:29.033Z</time></trkpt><trkpt lat="44.7557633" lon="10.13715"><ele>140.0</ele><time>2026-03-29T09:41:30.033Z</time></trkpt><trkpt lat="44.7557767" lon="10.1370133"><ele>140.0</ele><time>2026-03-29T09:41:31.033Z</time></trkpt><trkpt lat="44.7558" lon="10.1368733"><ele>140.0</ele><time>2026-03-29T09:41:32.033Z</time></trkpt><trkpt lat="44.7558417" lon="10.1366983"><ele>140.0</ele><time>2026-03-29T09:41:33.034Z</time></trkpt><trkpt lat="44.7558967" lon="10.1364867"><ele>140.0</ele><time>2026-03-29T09:41:34.034Z</time></trkpt><trkpt lat="44.755955" lon="10.13624"><ele>140.0</ele><time>2026-03-29T09:41:35.033Z</time></trkpt><trkpt lat="44.756025" lon="10.1359717"><ele>140.0</ele><time>2026-03-29T09:41:36.034Z</time></trkpt><trkpt lat="44.7560933" lon="10.1356983"><ele>140.0</ele><time>2026-03-29T09:41:37.034Z</time></trkpt><trkpt lat="44.756155" lon="10.13544"><ele>140.0</ele><time>2026-03-29T09:41:38.034Z</time></trkpt><trkpt lat="44.756215" lon="10.1352"><ele>140.0</ele><time>2026-03-29T09:41:39.033Z</time></trkpt><trkpt lat="44.75627" lon="10.134975"><ele>140.0</ele><time>2026-03-29T09:41:40.034Z</time></trkpt><trkpt lat="44.7563167" lon="10.1347533"><ele>140.25</ele><time>2026-03-29T09:41:41.033Z</time></trkpt><trkpt lat="44.7563683" lon="10.1345617"><ele>140.5</ele><time>2026-03-29T09:41:42.034Z</time></trkpt><trkpt lat="44.7564167" lon="10.1343867"><ele>140.75</ele><time>2026-03-29T09:41:43.034Z</time></trkpt><trkpt lat="44.7564567" lon="10.1342283"><ele>141.0</ele><time>2026-03-29T09:41:44.034Z</time></trkpt><trkpt lat="44.7564817" lon="10.1340533"><ele>141.16666666666666</ele><time>2026-03-29T09:41:45.033Z</time></trkpt><trkpt lat="44.7565233" lon="10.1339183"><ele>141.33333333333334</ele><time>2026-03-29T09:41:46.034Z</time></trkpt><trkpt lat="44.7565733" lon="10.133805"><ele>141.5</ele><time>2026-03-29T09:41:47.033Z</time></trkpt><trkpt lat="44.7566083" lon="10.1336867"><ele>141.66666666666669</ele><time>2026-03-29T09:41:48.034Z</time></trkpt><trkpt lat="44.7566317" lon="10.1335783"><ele>141.83333333333334</ele><time>2026-03-29T09:41:49.034Z</time></trkpt><trkpt lat="44.7566483" lon="10.1334883"><ele>142.0</ele><time>2026-03-29T09:41:50.034Z</time></trkpt><trkpt lat="44.7566883" lon="10.13335"><ele>142.0</ele><time>2026-03-29T09:41:52.034Z</time></trkpt><trkpt lat="44.7566983" lon="10.1332433"><ele>142.0</ele><time>2026-03-29T09:41:54.034Z</time></trkpt><trkpt lat="44.7566517" lon="10.133135"><ele>142.0</ele><time>2026-03-29T09:41:57.034Z</time></trkpt><trkpt lat="44.75655" lon="10.133085"><ele>142.0</ele><time>2026-03-29T09:41:59.034Z</time></trkpt><trkpt lat="44.75648" lon="10.13306"><ele>142.0</ele><time>2026-03-29T09:42:00.034Z</time></trkpt><trkpt lat="44.7564133" lon="10.1330083"><ele>142.0</ele><time>2026-03-29T09:42:01.033Z</time></trkpt><trkpt lat="44.75634" lon="10.1329333"><ele>142.75</ele><time>2026-03-29T09:42:02.034Z</time></trkpt><trkpt lat="44.7562533" lon="10.1328483"><ele>143.5</ele><time>2026-03-29T09:42:03.034Z</time></trkpt><trkpt lat="44.75614" lon="10.1327567"><ele>144.25</ele><time>2026-03-29T09:42:04.033Z</time></trkpt><trkpt lat="44.7560183" lon="10.1326483"><ele>145.0</ele><time>2026-03-29T09:42:05.033Z</time></trkpt><trkpt lat="44.7558917" lon="10.1325317"><ele>146.0</ele><time>2026-03-29T09:42:06.033Z</time></trkpt><trkpt lat="44.7557567" lon="10.1324133"><ele>147.0</ele><time>2026-03-29T09:42:07.034Z</time></trkpt><trkpt lat="44.7556167" lon="10.1323"><ele>148.0</ele><time>2026-03-29T09:42:08.034Z</time></trkpt><trkpt lat="44.7554817" lon="10.1321883"><ele>149.25</ele><time>2026-03-29T09:42:09.034Z</time></trkpt><trkpt lat="44.7553633" lon="10.1320717"><ele>150.5</ele><time>2026-03-29T09:42:10.033Z</time></trkpt><trkpt lat="44.7552517" lon="10.1319667"><ele>151.75</ele><time>2026-03-29T09:42:11.033Z</time></trkpt><trkpt lat="44.75514" lon="10.1318783"><ele>153.0</ele><time>2026-03-29T09:42:12.034Z</time></trkpt><trkpt lat="44.7550383" lon="10.13178"><ele>153.0</ele><time>2026-03-29T09:42:13.034Z</time></trkpt><trkpt lat="44.7549317" lon="10.13168"><ele>153.0</ele><time>2026-03-29T09:42:14.033Z</time></trkpt><trkpt lat="44.7548267" lon="10.131575"><ele>153.0</ele><time>2026-03-29T09:42:15.034Z</time></trkpt><trkpt lat="44.7547233" lon="10.1314667"><ele>153.0</ele><time>2026-03-29T09:42:16.033Z</time></trkpt><trkpt lat="44.7546183" lon="10.13136"><ele>154.5</ele><time>2026-03-29T09:42:17.033Z</time></trkpt><trkpt lat="44.7545133" lon="10.1312533"><ele>156.0</ele><time>2026-03-29T09:42:18.034Z</time></trkpt><trkpt lat="44.754415" lon="10.1311333"><ele>157.5</ele><time>2026-03-29T09:42:19.033Z</time></trkpt><trkpt lat="44.7543133" lon="10.13101"><ele>159.0</ele><time>2026-03-29T09:42:20.034Z</time></trkpt><trkpt lat="44.7541967" lon="10.130885"><ele>159.0</ele><time>2026-03-29T09:42:21.033Z</time></trkpt><trkpt lat="44.7540833" lon="10.1307633"><ele>159.0</ele><time>2026-03-29T09:42:22.034Z</time></trkpt><trkpt lat="44.75398" lon="10.1306267"><ele>159.0</ele><time>2026-03-29T09:42:23.033Z</time></trkpt><trkpt lat="44.7538667" lon="10.1304817"><ele>159.0</ele><time>2026-03-29T09:42:24.033Z</time></trkpt><trkpt lat="44.75375" lon="10.130325"><ele>160.33333333333334</ele><time>2026-03-29T09:42:25.034Z</time></trkpt><trkpt lat="44.7536383" lon="10.13016"><ele>161.66666666666669</ele><time>2026-03-29T09:42:26.033Z</time></trkpt><trkpt lat="44.7535233" lon="10.1299817"><ele>163.0</ele><time>2026-03-29T09:42:27.034Z</time></trkpt><trkpt lat="44.7534167" lon="10.1298067"><ele>164.0</ele><time>2026-03-29T09:42:28.034Z</time></trkpt><trkpt lat="44.753305" lon="10.1296283"><ele>165.0</ele><time>2026-03-29T09:42:29.034Z</time></trkpt><trkpt lat="44.753195" lon="10.12945"><ele>166.0</ele><time>2026-03-29T09:42:30.033Z</time></trkpt><trkpt lat="44.7530817" lon="10.1292683"><ele>166.0</ele><time>2026-03-29T09:42:31.034Z</time></trkpt><trkpt lat="44.752975" lon="10.1290817"><ele>166.0</ele><time>2026-03-29T09:42:32.034Z</time></trkpt><trkpt lat="44.7528683" lon="10.1288917"><ele>166.0</ele><time>2026-03-29T09:42:33.033Z</time></trkpt><trkpt lat="44.7527667" lon="10.12869"><ele>167.0</ele><time>2026-03-29T09:42:34.034Z</time></trkpt><trkpt lat="44.7526617" lon="10.1284833"><ele>168.0</ele><time>2026-03-29T09:42:35.034Z</time></trkpt><trkpt lat="44.75256" lon="10.1282683"><ele>169.0</ele><time>2026-03-29T09:42:36.033Z</time></trkpt><trkpt lat="44.752455" lon="10.1280617"><ele>170.0</ele><time>2026-03-29T09:42:37.034Z</time></trkpt><trkpt lat="44.7523517" lon="10.127855"><ele>171.0</ele><time>2026-03-29T09:42:38.034Z</time></trkpt><trkpt lat="44.75225" lon="10.127635"><ele>172.0</ele><time>2026-03-29T09:42:39.034Z</time></trkpt><trkpt lat="44.75215" lon="10.1274217"><ele>172.0</ele><time>2026-03-29T09:42:40.033Z</time></trkpt><trkpt lat="44.7520433" lon="10.12721"><ele>172.0</ele><time>2026-03-29T09:42:41.034Z</time></trkpt><trkpt lat="44.7519433" lon="10.1270033"><ele>172.0</ele><time>2026-03-29T09:42:42.033Z</time></trkpt><trkpt lat="44.751855" lon="10.126815"><ele>173.0</ele><time>2026-03-29T09:42:43.034Z</time></trkpt><trkpt lat="44.7517683" lon="10.126645"><ele>174.0</ele><time>2026-03-29T09:42:44.034Z</time></trkpt><trkpt lat="44.7516883" lon="10.126485"><ele>175.0</ele><time>2026-03-29T09:42:45.034Z</time></trkpt><trkpt lat="44.7516133" lon="10.1263333"><ele>176.0</ele><time>2026-03-29T09:42:46.034Z</time></trkpt><trkpt lat="44.7515383" lon="10.1261717"><ele>175.75</ele><time>2026-03-29T09:42:47.034Z</time></trkpt><trkpt lat="44.7514567" lon="10.1260033"><ele>175.5</ele><time>2026-03-29T09:42:48.033Z</time></trkpt><trkpt lat="44.75137" lon="10.1258433"><ele>175.25</ele><time>2026-03-29T09:42:49.034Z</time></trkpt><trkpt lat="44.7512867" lon="10.1256733"><ele>175.0</ele><time>2026-03-29T09:42:50.033Z</time></trkpt><trkpt lat="44.751205" lon="10.1254983"><ele>175.0</ele><time>2026-03-29T09:42:51.034Z</time></trkpt><trkpt lat="44.7511183" lon="10.1253133"><ele>175.0</ele><time>2026-03-29T09:42:52.034Z</time></trkpt><trkpt lat="44.7510283" lon="10.1251267"><ele>175.0</ele><time>2026-03-29T09:42:53.033Z</time></trkpt><trkpt lat="44.7509417" lon="10.12493"><ele>176.0</ele><time>2026-03-29T09:42:54.034Z</time></trkpt><trkpt lat="44.750845" lon="10.1247333"><ele>177.0</ele><time>2026-03-29T09:42:55.034Z</time></trkpt><trkpt lat="44.7507467" lon="10.1245333"><ele>178.0</ele><time>2026-03-29T09:42:56.033Z</time></trkpt><trkpt lat="44.7506467" lon="10.1243283"><ele>178.0</ele><time>2026-03-29T09:42:57.034Z</time></trkpt><trkpt lat="44.75054" lon="10.1241133"><ele>178.0</ele><time>2026-03-29T09:42:58.034Z</time></trkpt><trkpt lat="44.7504417" lon="10.1238967"><ele>178.0</ele><time>2026-03-29T09:42:59.034Z</time></trkpt><trkpt lat="44.7503317" lon="10.12368"><ele>177.0</ele><time>2026-03-29T09:43:00.033Z</time></trkpt><trkpt lat="44.7502283" lon="10.1234617"><ele>176.0</ele><time>2026-03-29T09:43:01.034Z</time></trkpt><trkpt lat="44.750115" lon="10.1232417"><ele>175.0</ele><time>2026-03-29T09:43:02.033Z</time></trkpt><trkpt lat="44.7500133" lon="10.1230317"><ele>178.0</ele><time>2026-03-29T09:43:03.033Z</time></trkpt><trkpt lat="44.749915" lon="10.122825"><ele>181.0</ele><time>2026-03-29T09:43:04.034Z</time></trkpt><trkpt lat="44.74982" lon="10.1226333"><ele>184.0</ele><time>2026-03-29T09:43:05.034Z</time></trkpt><trkpt lat="44.749725" lon="10.1224533"><ele>183.66666666666669</ele><time>2026-03-29T09:43:06.034Z</time></trkpt><trkpt lat="44.7496367" lon="10.1222683"><ele>183.33333333333334</ele><time>2026-03-29T09:43:07.034Z</time></trkpt><trkpt lat="44.7495433" lon="10.1220883"><ele>183.0</ele><time>2026-03-29T09:43:08.034Z</time></trkpt><trkpt lat="44.74945" lon="10.121905"><ele>184.0</ele><time>2026-03-29T09:43:09.034Z</time></trkpt><trkpt lat="44.7493567" lon="10.121715"><ele>185.0</ele><time>2026-03-29T09:43:10.034Z</time></trkpt><trkpt lat="44.7492667" lon="10.1215183"><ele>186.0</ele><time>2026-03-29T09:43:11.034Z</time></trkpt><trkpt lat="44.7491683" lon="10.1213167"><ele>186.33333333333334</ele><time>2026-03-29T09:43:12.034Z</time></trkpt><trkpt lat="44.7490683" lon="10.1211117"><ele>186.66666666666669</ele><time>2026-03-29T09:43:13.034Z</time></trkpt><trkpt lat="44.7489733" lon="10.120925"><ele>187.0</ele><time>2026-03-29T09:43:14.034Z</time></trkpt><trkpt lat="44.748885" lon="10.12075"><ele>187.75</ele><time>2026-03-29T09:43:15.034Z</time></trkpt><trkpt lat="44.7488033" lon="10.1205767"><ele>188.5</ele><time>2026-03-29T09:43:16.034Z</time></trkpt><trkpt lat="44.748725" lon="10.1204183"><ele>189.25</ele><time>2026-03-29T09:43:17.034Z</time></trkpt><trkpt lat="44.7486533" lon="10.12027"><ele>190.0</ele><time>2026-03-29T09:43:18.034Z</time></trkpt><trkpt lat="44.748585" lon="10.1201317"><ele>190.0</ele><time>2026-03-29T09:43:19.034Z</time></trkpt><trkpt lat="44.7485183" lon="10.120005"><ele>190.0</ele><time>2026-03-29T09:43:20.033Z</time></trkpt><trkpt lat="44.7484567" lon="10.1198817"><ele>190.0</ele><time>2026-03-29T09:43:21.034Z</time></trkpt><trkpt lat="44.7483917" lon="10.1197667"><ele>190.0</ele><time>2026-03-29T09:43:22.034Z</time></trkpt><trkpt lat="44.7483283" lon="10.1196467"><ele>190.0</ele><time>2026-03-29T09:43:23.033Z</time></trkpt><trkpt lat="44.748265" lon="10.119525"><ele>190.0</ele><time>2026-03-29T09:43:24.033Z</time></trkpt><trkpt lat="44.7482017" lon="10.1194"><ele>190.0</ele><time>2026-03-29T09:43:25.034Z</time></trkpt><trkpt lat="44.74813" lon="10.11927"><ele>190.0</ele><time>2026-03-29T09:43:26.034Z</time></trkpt><trkpt lat="44.7480567" lon="10.119145"><ele>190.0</ele><time>2026-03-29T09:43:27.034Z</time></trkpt><trkpt lat="44.7479817" lon="10.119025"><ele>190.0</ele><time>2026-03-29T09:43:28.034Z</time></trkpt><trkpt lat="44.747915" lon="10.1188983"><ele>190.0</ele><time>2026-03-29T09:43:29.034Z</time></trkpt><trkpt lat="44.74783" lon="10.1187733"><ele>190.0</ele><time>2026-03-29T09:43:30.034Z</time></trkpt><trkpt lat="44.7477483" lon="10.1186483"><ele>190.0</ele><time>2026-03-29T09:43:31.033Z</time></trkpt><trkpt lat="44.7476717" lon="10.1185267"><ele>190.5</ele><time>2026-03-29T09:43:32.033Z</time></trkpt><trkpt lat="44.74758" lon="10.118405"><ele>191.0</ele><time>2026-03-29T09:43:33.034Z</time></trkpt><trkpt lat="44.7475" lon="10.1182683"><ele>191.5</ele><time>2026-03-29T09:43:34.033Z</time></trkpt><trkpt lat="44.7474183" lon="10.1181333"><ele>192.0</ele><time>2026-03-29T09:43:35.033Z</time></trkpt><trkpt lat="44.74733" lon="10.1180033"><ele>192.0</ele><time>2026-03-29T09:43:36.034Z</time></trkpt><trkpt lat="44.7472467" lon="10.1178767"><ele>192.0</ele><time>2026-03-29T09:43:37.033Z</time></trkpt><trkpt lat="44.747165" lon="10.1177667"><ele>192.0</ele><time>2026-03-29T09:43:38.034Z</time></trkpt><trkpt lat="44.7470917" lon="10.1176583"><ele>192.0</ele><time>2026-03-29T09:43:39.033Z</time></trkpt><trkpt lat="44.7470183" lon="10.11755"><ele>192.0</ele><time>2026-03-29T09:43:40.034Z</time></trkpt><trkpt lat="44.7469467" lon="10.1174417"><ele>192.2</ele><time>2026-03-29T09:43:41.034Z</time></trkpt><trkpt lat="44.7468783" lon="10.1173317"><ele>192.39999999999998</ele><time>2026-03-29T09:43:42.033Z</time></trkpt><trkpt lat="44.7468017" lon="10.1172117"><ele>192.60000000000002</ele><time>2026-03-29T09:43:43.033Z</time></trkpt><trkpt lat="44.746735" lon="10.1170967"><ele>192.8</ele><time>2026-03-29T09:43:44.034Z</time></trkpt><trkpt lat="44.7466683" lon="10.116985"><ele>193.0</ele><time>2026-03-29T09:43:45.034Z</time></trkpt><trkpt lat="44.7466183" lon="10.1168783"><ele>193.4</ele><time>2026-03-29T09:43:46.034Z</time></trkpt><trkpt lat="44.746575" lon="10.1167633"><ele>193.8</ele><time>2026-03-29T09:43:47.033Z</time></trkpt><trkpt lat="44.746535" lon="10.116645"><ele>194.2</ele><time>2026-03-29T09:43:48.034Z</time></trkpt><trkpt lat="44.7465" lon="10.1165217"><ele>194.6</ele><time>2026-03-29T09:43:49.034Z</time></trkpt><trkpt lat="44.7464717" lon="10.1163883"><ele>195.0</ele><time>2026-03-29T09:43:50.034Z</time></trkpt><trkpt lat="44.7464483" lon="10.1162583"><ele>196.0</ele><time>2026-03-29T09:43:51.034Z</time></trkpt><trkpt lat="44.74643" lon="10.116115"><ele>197.0</ele><time>2026-03-29T09:43:52.034Z</time></trkpt><trkpt lat="44.7464183" lon="10.1159533"><ele>198.0</ele><time>2026-03-29T09:43:53.033Z</time></trkpt><trkpt lat="44.7464117" lon="10.1157783"><ele>199.0</ele><time>2026-03-29T09:43:54.034Z</time></trkpt><trkpt lat="44.746405" lon="10.1155917"><ele>199.66666666666666</ele><time>2026-03-29T09:43:55.033Z</time></trkpt><trkpt lat="44.7464033" lon="10.1153867"><ele>200.33333333333331</ele><time>2026-03-29T09:43:56.034Z</time></trkpt><trkpt lat="44.7463983" lon="10.1151733"><ele>201.0</ele><time>2026-03-29T09:43:57.033Z</time></trkpt><trkpt lat="44.7463883" lon="10.1149533"><ele>202.33333333333331</ele><time>2026-03-29T09:43:58.033Z</time></trkpt><trkpt lat="44.7463833" lon="10.114735"><ele>203.66666666666666</ele><time>2026-03-29T09:43:59.034Z</time></trkpt><trkpt lat="44.7463683" lon="10.1145083"><ele>205.0</ele><time>2026-03-29T09:44:00.034Z</time></trkpt><trkpt lat="44.7463533" lon="10.1143"><ele>205.0</ele><time>2026-03-29T09:44:01.033Z</time></trkpt><trkpt lat="44.7463367" lon="10.11411"><ele>205.0</ele><time>2026-03-29T09:44:02.034Z</time></trkpt><trkpt lat="44.74631" lon="10.1139133"><ele>205.0</ele><time>2026-03-29T09:44:03.034Z</time></trkpt><trkpt lat="44.74628" lon="10.1137317"><ele>205.0</ele><time>2026-03-29T09:44:04.034Z</time></trkpt><trkpt lat="44.7462467" lon="10.1135533"><ele>205.75</ele><time>2026-03-29T09:44:05.034Z</time></trkpt><trkpt lat="44.746215" lon="10.1133817"><ele>206.5</ele><time>2026-03-29T09:44:06.034Z</time></trkpt><trkpt lat="44.7461817" lon="10.1132167"><ele>207.25</ele><time>2026-03-29T09:44:07.034Z</time></trkpt><trkpt lat="44.7461517" lon="10.1130717"><ele>208.0</ele><time>2026-03-29T09:44:08.034Z</time></trkpt><trkpt lat="44.7461283" lon="10.1129383"><ele>207.83333333333331</ele><time>2026-03-29T09:44:09.034Z</time></trkpt><trkpt lat="44.74611" lon="10.1128167"><ele>207.66666666666666</ele><time>2026-03-29T09:44:10.034Z</time></trkpt><trkpt lat="44.7460917" lon="10.1127"><ele>207.5</ele><time>2026-03-29T09:44:11.034Z</time></trkpt><trkpt lat="44.7460733" lon="10.1125933"><ele>207.33333333333331</ele><time>2026-03-29T09:44:12.033Z</time></trkpt><trkpt lat="44.7460517" lon="10.1124767"><ele>207.16666666666666</ele><time>2026-03-29T09:44:13.033Z</time></trkpt><trkpt lat="44.7460383" lon="10.11237"><ele>207.0</ele><time>2026-03-29T09:44:14.033Z</time></trkpt><trkpt lat="44.74603" lon="10.1122633"><ele>207.0</ele><time>2026-03-29T09:44:15.034Z</time></trkpt><trkpt lat="44.74602" lon="10.11215"><ele>207.0</ele><time>2026-03-29T09:44:16.034Z</time></trkpt><trkpt lat="44.74602" lon="10.112035"><ele>207.0</ele><time>2026-03-29T09:44:17.034Z</time></trkpt><trkpt lat="44.7460183" lon="10.1119183"><ele>207.0</ele><time>2026-03-29T09:44:18.034Z</time></trkpt><trkpt lat="44.7460317" lon="10.111795"><ele>207.0</ele><time>2026-03-29T09:44:19.034Z</time></trkpt><trkpt lat="44.74605" lon="10.1116733"><ele>207.0</ele><time>2026-03-29T09:44:20.033Z</time></trkpt><trkpt lat="44.7460783" lon="10.1115433"><ele>208.66666666666666</ele><time>2026-03-29T09:44:21.034Z</time></trkpt><trkpt lat="44.7461117" lon="10.11141"><ele>210.33333333333331</ele><time>2026-03-29T09:44:22.034Z</time></trkpt><trkpt lat="44.7461517" lon="10.11129"><ele>212.0</ele><time>2026-03-29T09:44:23.034Z</time></trkpt><trkpt lat="44.7461883" lon="10.1111767"><ele>213.66666666666666</ele><time>2026-03-29T09:44:24.034Z</time></trkpt><trkpt lat="44.7462183" lon="10.1110867"><ele>215.33333333333331</ele><time>2026-03-29T09:44:25.033Z</time></trkpt><trkpt lat="44.74624" lon="10.1110033"><ele>217.0</ele><time>2026-03-29T09:44:26.033Z</time></trkpt><trkpt lat="44.7462733" lon="10.1108917"><ele>216.99999999999997</ele><time>2026-03-29T09:44:28.034Z</time></trkpt><trkpt lat="44.7462867" lon="10.11077"><ele>217.0</ele><time>2026-03-29T09:45:04.033Z</time></trkpt><trkpt lat="44.7462883" lon="10.11066"><ele>217.0</ele><time>2026-03-29T09:45:06.033Z</time></trkpt><trkpt lat="44.7463" lon="10.11055"><ele>217.0</ele><time>2026-03-29T09:45:08.035Z</time></trkpt><trkpt lat="44.7463117" lon="10.1104167"><ele>216.99999999999997</ele><time>2026-03-29T09:45:10.034Z</time></trkpt><trkpt lat="44.74634" lon="10.110275"><ele>217.0</ele><time>2026-03-29T09:45:12.035Z</time></trkpt><trkpt lat="44.7463567" lon="10.110145"><ele>216.66666666666666</ele><time>2026-03-29T09:45:14.034Z</time></trkpt><trkpt lat="44.746395" lon="10.110005"><ele>216.33333333333331</ele><time>2026-03-29T09:45:16.034Z</time></trkpt><trkpt lat="44.746425" lon="10.1099267"><ele>216.0</ele><time>2026-03-29T09:45:17.034Z</time></trkpt><trkpt lat="44.7464567" lon="10.109835"><ele>215.66666666666669</ele><time>2026-03-29T09:45:18.035Z</time></trkpt><trkpt lat="44.7464883" lon="10.109745"><ele>215.33333333333334</ele><time>2026-03-29T09:45:19.035Z</time></trkpt><trkpt lat="44.746525" lon="10.10966"><ele>215.0</ele><time>2026-03-29T09:45:20.034Z</time></trkpt><trkpt lat="44.74657" lon="10.109575"><ele>214.00000000000003</ele><time>2026-03-29T09:45:21.035Z</time></trkpt><trkpt lat="44.746625" lon="10.109485"><ele>213.0</ele><time>2026-03-29T09:45:22.034Z</time></trkpt><trkpt lat="44.7466733" lon="10.1094167"><ele>212.0</ele><time>2026-03-29T09:45:23.034Z</time></trkpt><trkpt lat="44.746715" lon="10.1093183"><ele>211.0</ele><time>2026-03-29T09:45:24.035Z</time></trkpt><trkpt lat="44.74675" lon="10.1092233"><ele>210.00000000000003</ele><time>2026-03-29T09:45:25.035Z</time></trkpt><trkpt lat="44.746785" lon="10.1091267"><ele>209.0</ele><time>2026-03-29T09:45:26.035Z</time></trkpt><trkpt lat="44.7468067" lon="10.1090383"><ele>207.28571428571428</ele><time>2026-03-29T09:45:27.035Z</time></trkpt><trkpt lat="44.7468367" lon="10.1089533"><ele>205.57142857142856</ele><time>2026-03-29T09:45:28.034Z</time></trkpt><trkpt lat="44.74687" lon="10.1088717"><ele>203.85714285714286</ele><time>2026-03-29T09:45:29.035Z</time></trkpt><trkpt lat="44.746895" lon="10.108785"><ele>202.14285714285714</ele><time>2026-03-29T09:45:30.034Z</time></trkpt><trkpt lat="44.7469183" lon="10.1086933"><ele>200.42857142857144</ele><time>2026-03-29T09:45:31.035Z</time></trkpt><trkpt lat="44.7469317" lon="10.1085967"><ele>198.71428571428572</ele><time>2026-03-29T09:45:32.034Z</time></trkpt><trkpt lat="44.7469483" lon="10.1085017"><ele>197.0</ele><time>2026-03-29T09:45:33.035Z</time></trkpt><trkpt lat="44.7469583" lon="10.10841"><ele>199.71428571428572</ele><time>2026-03-29T09:45:34.035Z</time></trkpt><trkpt lat="44.746975" lon="10.1083183"><ele>202.42857142857144</ele><time>2026-03-29T09:45:35.034Z</time></trkpt><trkpt lat="44.7469917" lon="10.1082317"><ele>205.14285714285714</ele><time>2026-03-29T09:45:36.035Z</time></trkpt><trkpt lat="44.7470167" lon="10.1081467"><ele>207.85714285714286</ele><time>2026-03-29T09:45:37.034Z</time></trkpt><trkpt lat="44.7470417" lon="10.1080633"><ele>210.57142857142856</ele><time>2026-03-29T09:45:38.035Z</time></trkpt><trkpt lat="44.74707" lon="10.10798"><ele>213.28571428571428</ele><time>2026-03-29T09:45:39.035Z</time></trkpt><trkpt lat="44.7471117" lon="10.1078283"><ele>216.0</ele><time>2026-03-29T09:45:41.035Z</time></trkpt><trkpt lat="44.7471183" lon="10.1076583"><ele>216.0</ele><time>2026-03-29T09:45:43.034Z</time></trkpt><trkpt lat="44.7471183" lon="10.10756"><ele>216.0</ele><time>2026-03-29T09:45:44.035Z</time></trkpt><trkpt lat="44.74712" lon="10.1074617"><ele>216.0</ele><time>2026-03-29T09:45:45.035Z</time></trkpt><trkpt lat="44.7471267" lon="10.1073683"><ele>216.0</ele><time>2026-03-29T09:45:46.035Z</time></trkpt><trkpt lat="44.7471354" lon="10.1072681"><ele>216.0</ele><time>2026-03-29T09:45:47.034Z</time></trkpt><trkpt lat="44.7471455" lon="10.1071655"><ele>216.0</ele><time>2026-03-29T09:45:48.034Z</time></trkpt><trkpt lat="44.7471611" lon="10.1070635"><ele>216.0</ele><time>2026-03-29T09:45:49.035Z</time></trkpt><trkpt lat="44.7471788" lon="10.1069633"><ele>214.0</ele><time>2026-03-29T09:45:50.035Z</time></trkpt><trkpt lat="44.7471957" lon="10.1068676"><ele>212.0</ele><time>2026-03-29T09:45:51.035Z</time></trkpt><trkpt lat="44.7472123" lon="10.106776"><ele>210.0</ele><time>2026-03-29T09:45:52.035Z</time></trkpt><trkpt lat="44.7472275" lon="10.1066889"><ele>208.0</ele><time>2026-03-29T09:45:53.035Z</time></trkpt><trkpt lat="44.7472573" lon="10.1065241"><ele>206.0</ele><time>2026-03-29T09:45:55.035Z</time></trkpt><trkpt lat="44.7472809" lon="10.1063716"><ele>204.0</ele><time>2026-03-29T09:45:57.035Z</time></trkpt><trkpt lat="44.7473104" lon="10.1062128"><ele>201.6</ele><time>2026-03-29T09:45:59.034Z</time></trkpt><trkpt lat="44.7473424" lon="10.1060586"><ele>199.2</ele><time>2026-03-29T09:46:01.035Z</time></trkpt><trkpt lat="44.7473807" lon="10.1059135"><ele>196.79999999999998</ele><time>2026-03-29T09:46:03.034Z</time></trkpt><trkpt lat="44.7474227" lon="10.105772"><ele>194.39999999999998</ele><time>2026-03-29T09:46:05.035Z</time></trkpt><trkpt lat="44.7474536" lon="10.1056394"><ele>192.0</ele><time>2026-03-29T09:46:07.034Z</time></trkpt><trkpt lat="44.74746" lon="10.1054915"><ele>189.6</ele><time>2026-03-29T09:46:09.035Z</time></trkpt><trkpt lat="44.7474602" lon="10.1053319"><ele>187.2</ele><time>2026-03-29T09:46:11.034Z</time></trkpt><trkpt lat="44.7474809" lon="10.1051735"><ele>184.8</ele><time>2026-03-29T09:46:13.035Z</time></trkpt><trkpt lat="44.7475119" lon="10.1050224"><ele>182.4</ele><time>2026-03-29T09:46:15.034Z</time></trkpt><trkpt lat="44.7475368" lon="10.1048715"><ele>180.0</ele><time>2026-03-29T09:46:17.035Z</time></trkpt><trkpt lat="44.747528" lon="10.1047082"><ele>178.4</ele><time>2026-03-29T09:46:19.035Z</time></trkpt><trkpt lat="44.7475182" lon="10.1045736"><ele>176.8</ele><time>2026-03-29T09:46:21.035Z</time></trkpt><trkpt lat="44.7475149" lon="10.1044282"><ele>175.2</ele><time>2026-03-29T09:46:23.034Z</time></trkpt><trkpt lat="44.7475206" lon="10.1042742"><ele>173.6</ele><time>2026-03-29T09:46:25.034Z</time></trkpt><trkpt lat="44.7475318" lon="10.1041121"><ele>172.0</ele><time>2026-03-29T09:46:27.035Z</time></trkpt><trkpt lat="44.7475399" lon="10.1040225"><ele>171.0</ele><time>2026-03-29T09:46:28.034Z</time></trkpt><trkpt lat="44.7475519" lon="10.1039318"><ele>170.0</ele><time>2026-03-29T09:46:29.035Z</time></trkpt><trkpt lat="44.7475739" lon="10.1037693"><ele>169.0</ele><time>2026-03-29T09:46:31.035Z</time></trkpt><trkpt lat="44.7475893" lon="10.1036217"><ele>168.0</ele><time>2026-03-29T09:46:33.035Z</time></trkpt><trkpt lat="44.7475792" lon="10.1034816"><ele>167.0</ele><time>2026-03-29T09:46:35.034Z</time></trkpt><trkpt lat="44.7475462" lon="10.1033587"><ele>167.0</ele><time>2026-03-29T09:46:37.034Z</time></trkpt><trkpt lat="44.7474966" lon="10.1032581"><ele>167.0</ele><time>2026-03-29T09:46:39.035Z</time></trkpt><trkpt lat="44.747421" lon="10.1031744"><ele>167.0</ele><time>2026-03-29T09:46:41.035Z</time></trkpt><trkpt lat="44.7473597" lon="10.1031219"><ele>167.0</ele><time>2026-03-29T09:46:43.035Z</time></trkpt><trkpt lat="44.7473063" lon="10.1030715"><ele>167.0</ele><time>2026-03-29T09:46:45.034Z</time></trkpt><trkpt lat="44.7472861" lon="10.1029429"><ele>167.0</ele><time>2026-03-29T09:47:08.035Z</time></trkpt><trkpt lat="44.7473498" lon="10.1028459"><ele>166.8</ele><time>2026-03-29T09:47:10.034Z</time></trkpt><trkpt lat="44.7474261" lon="10.1027356"><ele>166.6</ele><time>2026-03-29T09:47:12.035Z</time></trkpt><trkpt lat="44.7474858" lon="10.1025821"><ele>166.4</ele><time>2026-03-29T09:47:14.035Z</time></trkpt><trkpt lat="44.7475144" lon="10.1024906"><ele>166.20000000000002</ele><time>2026-03-29T09:47:15.035Z</time></trkpt><trkpt lat="44.7475581" lon="10.1023416"><ele>166.0</ele><time>2026-03-29T09:47:17.035Z</time></trkpt><trkpt lat="44.7475909" lon="10.1022171"><ele>166.33333333333334</ele><time>2026-03-29T09:47:19.035Z</time></trkpt><trkpt lat="44.7476202" lon="10.1021"><ele>166.66666666666669</ele><time>2026-03-29T09:47:21.035Z</time></trkpt><trkpt lat="44.7476492" lon="10.102003"><ele>167.0</ele><time>2026-03-29T09:47:23.035Z</time></trkpt><trkpt lat="44.7476917" lon="10.101934"><ele>167.33333333333334</ele><time>2026-03-29T09:49:15.035Z</time></trkpt><trkpt lat="44.747667" lon="10.1017724"><ele>167.66666666666666</ele><time>2026-03-29T09:52:25.035Z</time></trkpt><trkpt lat="44.7476599" lon="10.1016291"><ele>168.0</ele><time>2026-03-29T09:52:27.034Z</time></trkpt><trkpt lat="44.7476582" lon="10.1014841"><ele>168.2</ele><time>2026-03-29T09:52:29.034Z</time></trkpt><trkpt lat="44.7476511" lon="10.101334"><ele>168.4</ele><time>2026-03-29T09:52:31.034Z</time></trkpt><trkpt lat="44.7476468" lon="10.101213"><ele>168.6</ele><time>2026-03-29T09:52:33.034Z</time></trkpt><trkpt lat="44.7476351" lon="10.1010955"><ele>168.79999999999998</ele><time>2026-03-29T09:52:35.035Z</time></trkpt><trkpt lat="44.7476135" lon="10.1009659"><ele>169.0</ele><time>2026-03-29T09:52:37.035Z</time></trkpt><trkpt lat="44.747569" lon="10.1008333"><ele>170.39999999999998</ele><time>2026-03-29T09:52:39.035Z</time></trkpt><trkpt lat="44.7475083" lon="10.1006883"><ele>171.8</ele><time>2026-03-29T09:52:41.035Z</time></trkpt><trkpt lat="44.747475" lon="10.10061"><ele>173.2</ele><time>2026-03-29T09:52:42.035Z</time></trkpt><trkpt lat="44.7474433" lon="10.1005317"><ele>174.60000000000002</ele><time>2026-03-29T09:52:43.034Z</time></trkpt><trkpt lat="44.7473833" lon="10.1004017"><ele>176.0</ele><time>2026-03-29T09:52:45.035Z</time></trkpt><trkpt lat="44.7473233" lon="10.1002933"><ele>176.0</ele><time>2026-03-29T09:52:47.035Z</time></trkpt><trkpt lat="44.7472683" lon="10.1002"><ele>176.0</ele><time>2026-03-29T09:52:49.034Z</time></trkpt><trkpt lat="44.7472283" lon="10.10011"><ele>176.0</ele><time>2026-03-29T09:52:51.035Z</time></trkpt><trkpt lat="44.7471983" lon="10.09999"><ele>176.0</ele><time>2026-03-29T09:52:53.035Z</time></trkpt><trkpt lat="44.7471733" lon="10.099875"><ele>176.0</ele><time>2026-03-29T09:52:55.035Z</time></trkpt><trkpt lat="44.7471617" lon="10.0997567"><ele>176.0</ele><time>2026-03-29T09:52:57.035Z</time></trkpt><trkpt lat="44.7471317" lon="10.0996633"><ele>176.4</ele><time>2026-03-29T09:52:59.035Z</time></trkpt><trkpt lat="44.7470767" lon="10.0995433"><ele>176.8</ele><time>2026-03-29T09:53:01.035Z</time></trkpt><trkpt lat="44.7470183" lon="10.09941"><ele>177.20000000000002</ele><time>2026-03-29T09:53:03.034Z</time></trkpt><trkpt lat="44.7469617" lon="10.0992717"><ele>177.60000000000002</ele><time>2026-03-29T09:53:05.034Z</time></trkpt><trkpt lat="44.746915" lon="10.09915"><ele>178.0</ele><time>2026-03-29T09:53:07.034Z</time></trkpt><trkpt lat="44.7468667" lon="10.0990367"><ele>178.0</ele><time>2026-03-29T09:53:09.034Z</time></trkpt><trkpt lat="44.7467967" lon="10.0989117"><ele>178.0</ele><time>2026-03-29T09:53:11.034Z</time></trkpt><trkpt lat="44.746715" lon="10.0988"><ele>178.0</ele><time>2026-03-29T09:53:13.035Z</time></trkpt><trkpt lat="44.7466417" lon="10.0986783"><ele>178.0</ele><time>2026-03-29T09:53:15.034Z</time></trkpt><trkpt lat="44.7465883" lon="10.0985417"><ele>178.0</ele><time>2026-03-29T09:53:17.035Z</time></trkpt><trkpt lat="44.746555" lon="10.0984117"><ele>178.0</ele><time>2026-03-29T09:53:19.035Z</time></trkpt><trkpt lat="44.74652" lon="10.0982717"><ele>178.0</ele><time>2026-03-29T09:53:21.034Z</time></trkpt><trkpt lat="44.746495" lon="10.09812"><ele>178.0</ele><time>2026-03-29T09:53:23.034Z</time></trkpt><trkpt lat="44.7464583" lon="10.09799"><ele>178.0</ele><time>2026-03-29T09:53:25.035Z</time></trkpt><trkpt lat="44.74642" lon="10.0978633"><ele>178.4</ele><time>2026-03-29T09:53:27.034Z</time></trkpt><trkpt lat="44.7463775" lon="10.0977443"><ele>178.8</ele><time>2026-03-29T09:53:29.035Z</time></trkpt><trkpt lat="44.7463276" lon="10.0976178"><ele>179.2</ele><time>2026-03-29T09:53:31.035Z</time></trkpt><trkpt lat="44.7462635" lon="10.0975003"><ele>179.6</ele><time>2026-03-29T09:53:33.034Z</time></trkpt><trkpt lat="44.7461933" lon="10.0973742"><ele>180.0</ele><time>2026-03-29T09:53:35.034Z</time></trkpt><trkpt lat="44.7461306" lon="10.0972597"><ele>179.8</ele><time>2026-03-29T09:53:37.035Z</time></trkpt><trkpt lat="44.7460794" lon="10.0971405"><ele>179.6</ele><time>2026-03-29T09:53:39.035Z</time></trkpt><trkpt lat="44.7460352" lon="10.0970087"><ele>179.39999999999998</ele><time>2026-03-29T09:53:41.035Z</time></trkpt><trkpt lat="44.7459792" lon="10.096888"><ele>179.2</ele><time>2026-03-29T09:53:43.035Z</time></trkpt><trkpt lat="44.7459162" lon="10.0967754"><ele>179.0</ele><time>2026-03-29T09:53:45.035Z</time></trkpt><trkpt lat="44.7458379" lon="10.0966844"><ele>179.0</ele><time>2026-03-29T09:53:47.035Z</time></trkpt><trkpt lat="44.7457538" lon="10.0966149"><ele>179.0</ele><time>2026-03-29T09:53:49.035Z</time></trkpt><trkpt lat="44.7456654" lon="10.0965561"><ele>179.0</ele><time>2026-03-29T09:53:51.035Z</time></trkpt><trkpt lat="44.7455729" lon="10.096501"><ele>179.0</ele><time>2026-03-29T09:53:53.035Z</time></trkpt><trkpt lat="44.745486" lon="10.0964655"><ele>179.0</ele><time>2026-03-29T09:53:55.034Z</time></trkpt><trkpt lat="44.7454268" lon="10.0964308"><ele>179.5</ele><time>2026-03-29T09:53:57.034Z</time></trkpt><trkpt lat="44.74536" lon="10.0963783"><ele>180.0</ele><time>2026-03-29T09:54:15.035Z</time></trkpt><trkpt lat="44.7453233" lon="10.096295"><ele>180.5</ele><time>2026-03-29T09:54:17.034Z</time></trkpt><trkpt lat="44.745315" lon="10.0961733"><ele>181.0</ele><time>2026-03-29T09:54:19.034Z</time></trkpt><trkpt lat="44.7452967" lon="10.0960467"><ele>181.5</ele><time>2026-03-29T09:54:21.034Z</time></trkpt><trkpt lat="44.7452867" lon="10.0959017"><ele>182.0</ele><time>2026-03-29T09:54:23.035Z</time></trkpt><trkpt lat="44.7452833" lon="10.0957133"><ele>182.6</ele><time>2026-03-29T09:54:25.035Z</time></trkpt><trkpt lat="44.74529" lon="10.0956167"><ele>183.2</ele><time>2026-03-29T09:54:26.035Z</time></trkpt><trkpt lat="44.7452967" lon="10.0954617"><ele>183.8</ele><time>2026-03-29T09:54:28.035Z</time></trkpt><trkpt lat="44.7453083" lon="10.095335"><ele>184.4</ele><time>2026-03-29T09:54:30.035Z</time></trkpt><trkpt lat="44.74531" lon="10.0952"><ele>185.0</ele><time>2026-03-29T09:54:32.035Z</time></trkpt><trkpt lat="44.74531" lon="10.095055"><ele>185.8</ele><time>2026-03-29T09:54:34.035Z</time></trkpt><trkpt lat="44.7452833" lon="10.0948933"><ele>186.6</ele><time>2026-03-29T09:54:36.034Z</time></trkpt><trkpt lat="44.7452533" lon="10.09472"><ele>187.39999999999998</ele><time>2026-03-29T09:54:38.035Z</time></trkpt><trkpt lat="44.74523" lon="10.0945783"><ele>188.2</ele><time>2026-03-29T09:54:40.035Z</time></trkpt><trkpt lat="44.7452183" lon="10.0944767"><ele>189.0</ele><time>2026-03-29T09:54:42.035Z</time></trkpt><trkpt lat="44.7452233" lon="10.0945783"><ele>189.0</ele><time>2026-03-29T09:55:53.035Z</time></trkpt><trkpt lat="44.7452483" lon="10.0947283"><ele>189.0</ele><time>2026-03-29T09:55:55.035Z</time></trkpt><trkpt lat="44.745265" lon="10.0948233"><ele>189.0</ele><time>2026-03-29T09:55:56.035Z</time></trkpt><trkpt lat="44.7452817" lon="10.0949233"><ele>189.0</ele><time>2026-03-29T09:55:57.035Z</time></trkpt><trkpt lat="44.7453033" lon="10.09509"><ele>189.0</ele><time>2026-03-29T09:55:59.035Z</time></trkpt><trkpt lat="44.74531" lon="10.0952633"><ele>188.42857142857142</ele><time>2026-03-29T09:56:01.035Z</time></trkpt><trkpt lat="44.7453117" lon="10.0953617"><ele>187.85714285714286</ele><time>2026-03-29T09:56:02.034Z</time></trkpt><trkpt lat="44.7453017" lon="10.09546"><ele>187.28571428571428</ele><time>2026-03-29T09:56:03.035Z</time></trkpt><trkpt lat="44.7452883" lon="10.0955667"><ele>186.71428571428572</ele><time>2026-03-29T09:56:04.035Z</time></trkpt><trkpt lat="44.745275" lon="10.0956783"><ele>186.14285714285714</ele><time>2026-03-29T09:56:05.035Z</time></trkpt><trkpt lat="44.7452717" lon="10.0957833"><ele>185.57142857142856</ele><time>2026-03-29T09:56:06.035Z</time></trkpt><trkpt lat="44.74527" lon="10.0958783"><ele>185.0</ele><time>2026-03-29T09:56:07.035Z</time></trkpt><trkpt lat="44.74527" lon="10.0960417"><ele>184.83333333333331</ele><time>2026-03-29T09:56:09.035Z</time></trkpt><trkpt lat="44.745285" lon="10.09618"><ele>184.66666666666666</ele><time>2026-03-29T09:56:11.035Z</time></trkpt><trkpt lat="44.7453167" lon="10.0962833"><ele>184.5</ele><time>2026-03-29T09:56:13.035Z</time></trkpt><trkpt lat="44.7452933" lon="10.0964033"><ele>184.33333333333334</ele><time>2026-03-29T09:57:53.034Z</time></trkpt><trkpt lat="44.7452267" lon="10.0963817"><ele>184.16666666666669</ele><time>2026-03-29T09:57:58.035Z</time></trkpt><trkpt lat="44.7451567" lon="10.096325"><ele>184.0</ele><time>2026-03-29T09:58:01.035Z</time></trkpt><trkpt lat="44.7451" lon="10.0962417"><ele>184.0</ele><time>2026-03-29T09:58:21.034Z</time></trkpt><trkpt lat="44.7450967" lon="10.0961483"><ele>184.0</ele><time>2026-03-29T09:58:23.035Z</time></trkpt><trkpt lat="44.745105" lon="10.09605"><ele>184.0</ele><time>2026-03-29T09:58:25.035Z</time></trkpt><trkpt lat="44.7451167" lon="10.0959433"><ele>184.0</ele><time>2026-03-29T09:58:27.035Z</time></trkpt><trkpt lat="44.7451067" lon="10.0957767"><ele>184.0</ele><time>2026-03-29T10:02:10.035Z</time></trkpt><trkpt lat="44.745105" lon="10.0956533"><ele>184.0</ele><time>2026-03-29T10:02:12.035Z</time></trkpt><trkpt lat="44.74509" lon="10.09553"><ele>184.5</ele><time>2026-03-29T10:02:14.035Z</time></trkpt><trkpt lat="44.74507" lon="10.0954083"><ele>185.0</ele><time>2026-03-29T10:02:16.035Z</time></trkpt><trkpt lat="44.745045" lon="10.095305"><ele>185.5</ele><time>2026-03-29T10:02:18.035Z</time></trkpt><trkpt lat="44.7450067" lon="10.0951583"><ele>186.0</ele><time>2026-03-29T10:02:20.035Z</time></trkpt><trkpt lat="44.7449783" lon="10.0950767"><ele>186.5</ele><time>2026-03-29T10:02:21.035Z</time></trkpt><trkpt lat="44.74493" lon="10.094955"><ele>187.0</ele><time>2026-03-29T10:02:23.035Z</time></trkpt><trkpt lat="44.744885" lon="10.0948633"><ele>187.0</ele><time>2026-03-29T10:02:25.035Z</time></trkpt><trkpt lat="44.7448217" lon="10.0947817"><ele>187.0</ele><time>2026-03-29T10:02:27.034Z</time></trkpt><trkpt lat="44.74475" lon="10.09471"><ele>187.0</ele><time>2026-03-29T10:02:29.035Z</time></trkpt><trkpt lat="44.744665" lon="10.09466"><ele>187.0</ele><time>2026-03-29T10:02:31.034Z</time></trkpt><trkpt lat="44.7445717" lon="10.0946133"><ele>187.0</ele><time>2026-03-29T10:02:33.035Z</time></trkpt><trkpt lat="44.7444867" lon="10.094555"><ele>187.0</ele><time>2026-03-29T10:02:35.035Z</time></trkpt><trkpt lat="44.7444067" lon="10.0944883"><ele>187.0</ele><time>2026-03-29T10:02:37.034Z</time></trkpt><trkpt lat="44.74433" lon="10.0944083"><ele>187.0</ele><time>2026-03-29T10:02:39.034Z</time></trkpt><trkpt lat="44.7442333" lon="10.0943167"><ele>187.0</ele><time>2026-03-29T10:02:41.034Z</time></trkpt><trkpt lat="44.7441483" lon="10.094245"><ele>187.0</ele><time>2026-03-29T10:02:43.034Z</time></trkpt><trkpt lat="44.7440417" lon="10.094185"><ele>188.6</ele><time>2026-03-29T10:02:45.035Z</time></trkpt><trkpt lat="44.7439467" lon="10.0941317"><ele>190.2</ele><time>2026-03-29T10:02:47.035Z</time></trkpt><trkpt lat="44.743835" lon="10.094085"><ele>191.8</ele><time>2026-03-29T10:02:49.035Z</time></trkpt><trkpt lat="44.7437317" lon="10.0940333"><ele>193.4</ele><time>2026-03-29T10:02:51.035Z</time></trkpt><trkpt lat="44.7436483" lon="10.0939767"><ele>195.0</ele><time>2026-03-29T10:02:53.034Z</time></trkpt><trkpt lat="44.743565" lon="10.0938883"><ele>200.0</ele><time>2026-03-29T10:02:55.035Z</time></trkpt><trkpt lat="44.743495" lon="10.0937417"><ele>205.0</ele><time>2026-03-29T10:02:57.035Z</time></trkpt><trkpt lat="44.7434483" lon="10.0936633"><ele>210.0</ele><time>2026-03-29T10:02:58.034Z</time></trkpt><trkpt lat="44.7433617" lon="10.0935617"><ele>215.0</ele><time>2026-03-29T10:03:00.035Z</time></trkpt><trkpt lat="44.74327" lon="10.0934933"><ele>220.0</ele><time>2026-03-29T10:03:02.034Z</time></trkpt><trkpt lat="44.7432017" lon="10.0934233"><ele>220.0</ele><time>2026-03-29T10:03:04.035Z</time></trkpt><trkpt lat="44.74314" lon="10.0933517"><ele>220.0</ele><time>2026-03-29T10:03:06.035Z</time></trkpt><trkpt lat="44.7430733" lon="10.093255"><ele>220.0</ele><time>2026-03-29T10:03:08.035Z</time></trkpt><trkpt lat="44.7430033" lon="10.0931217"><ele>220.0</ele><time>2026-03-29T10:03:10.035Z</time></trkpt><trkpt lat="44.7429317" lon="10.0930183"><ele>220.0</ele><time>2026-03-29T10:03:12.035Z</time></trkpt><trkpt lat="44.7428417" lon="10.092945"><ele>218.6</ele><time>2026-03-29T10:03:14.035Z</time></trkpt><trkpt lat="44.74278" lon="10.09292"><ele>217.2</ele><time>2026-03-29T10:03:15.034Z</time></trkpt><trkpt lat="44.7426767" lon="10.0928567"><ele>215.8</ele><time>2026-03-29T10:03:17.034Z</time></trkpt><trkpt lat="44.7425667" lon="10.0927733"><ele>214.4</ele><time>2026-03-29T10:03:19.034Z</time></trkpt><trkpt lat="44.7424617" lon="10.0926733"><ele>213.0</ele><time>2026-03-29T10:03:21.035Z</time></trkpt><trkpt lat="44.7424133" lon="10.0926067"><ele>214.8</ele><time>2026-03-29T10:03:22.035Z</time></trkpt><trkpt lat="44.74236" lon="10.092545"><ele>216.60000000000002</ele><time>2026-03-29T10:03:23.035Z</time></trkpt><trkpt lat="44.7422617" lon="10.0924417"><ele>218.39999999999998</ele><time>2026-03-29T10:03:25.035Z</time></trkpt><trkpt lat="44.74216" lon="10.092355"><ele>220.2</ele><time>2026-03-29T10:03:27.034Z</time></trkpt><trkpt lat="44.742065" lon="10.092295"><ele>222.0</ele><time>2026-03-29T10:03:29.035Z</time></trkpt><trkpt lat="44.741975" lon="10.0922333"><ele>222.0</ele><time>2026-03-29T10:03:31.034Z</time></trkpt><trkpt lat="44.7419083" lon="10.0921683"><ele>222.0</ele><time>2026-03-29T10:03:33.034Z</time></trkpt><trkpt lat="44.7418517" lon="10.092045"><ele>222.0</ele><time>2026-03-29T10:03:35.034Z</time></trkpt><trkpt lat="44.7417767" lon="10.0919217"><ele>222.0</ele><time>2026-03-29T10:03:37.035Z</time></trkpt><trkpt lat="44.7417167" lon="10.0918167"><ele>222.0</ele><time>2026-03-29T10:03:39.034Z</time></trkpt><trkpt lat="44.741655" lon="10.0917267"><ele>227.8</ele><time>2026-03-29T10:03:41.035Z</time></trkpt><trkpt lat="44.7415783" lon="10.09162"><ele>233.6</ele><time>2026-03-29T10:03:43.035Z</time></trkpt><trkpt lat="44.7415217" lon="10.0915267"><ele>239.40000000000003</ele><time>2026-03-29T10:03:45.034Z</time></trkpt><trkpt lat="44.7414817" lon="10.091445"><ele>245.20000000000002</ele><time>2026-03-29T10:03:47.034Z</time></trkpt><trkpt lat="44.741425" lon="10.0913267"><ele>251.0</ele><time>2026-03-29T10:03:49.034Z</time></trkpt><trkpt lat="44.7413567" lon="10.091205"><ele>251.00000000000003</ele><time>2026-03-29T10:03:51.035Z</time></trkpt><trkpt lat="44.7412917" lon="10.0910983"><ele>251.0</ele><time>2026-03-29T10:03:53.035Z</time></trkpt><trkpt lat="44.74123" lon="10.0910117"><ele>251.0</ele><time>2026-03-29T10:03:55.035Z</time></trkpt><trkpt lat="44.7411783" lon="10.0909283"><ele>251.0</ele><time>2026-03-29T10:03:57.035Z</time></trkpt><trkpt lat="44.7411317" lon="10.09083"><ele>251.00000000000003</ele><time>2026-03-29T10:03:59.034Z</time></trkpt><trkpt lat="44.7410883" lon="10.090745"><ele>251.0</ele><time>2026-03-29T10:04:01.035Z</time></trkpt><trkpt lat="44.7410433" lon="10.0906667"><ele>254.33333333333334</ele><time>2026-03-29T10:04:03.034Z</time></trkpt><trkpt lat="44.740985" lon="10.090585"><ele>257.6666666666667</ele><time>2026-03-29T10:04:05.034Z</time></trkpt><trkpt lat="44.7409333" lon="10.09046"><ele>261.0</ele><time>2026-03-29T10:04:07.035Z</time></trkpt><trkpt lat="44.7408967" lon="10.0902933"><ele>264.3333333333333</ele><time>2026-03-29T10:04:09.035Z</time></trkpt><trkpt lat="44.7408883" lon="10.090205"><ele>267.66666666666663</ele><time>2026-03-29T10:04:10.035Z</time></trkpt><trkpt lat="44.7408767" lon="10.090115"><ele>271.0</ele><time>2026-03-29T10:04:11.035Z</time></trkpt><trkpt lat="44.74086" lon="10.0899583"><ele>271.40000000000003</ele><time>2026-03-29T10:04:13.034Z</time></trkpt><trkpt lat="44.7408333" lon="10.08983"><ele>271.8</ele><time>2026-03-29T10:04:15.035Z</time></trkpt><trkpt lat="44.74078" lon="10.0897217"><ele>272.20000000000005</ele><time>2026-03-29T10:04:17.035Z</time></trkpt><trkpt lat="44.7407" lon="10.089625"><ele>272.6</ele><time>2026-03-29T10:04:19.035Z</time></trkpt><trkpt lat="44.740635" lon="10.089525"><ele>273.0</ele><time>2026-03-29T10:04:21.035Z</time></trkpt><trkpt lat="44.7405467" lon="10.0894633"><ele>273.0</ele><time>2026-03-29T10:04:23.035Z</time></trkpt><trkpt lat="44.74048" lon="10.0894067"><ele>273.0</ele><time>2026-03-29T10:04:25.035Z</time></trkpt><trkpt lat="44.7404233" lon="10.089345"><ele>273.0</ele><time>2026-03-29T10:04:27.034Z</time></trkpt><trkpt lat="44.7403483" lon="10.0892683"><ele>273.0</ele><time>2026-03-29T10:04:29.035Z</time></trkpt><trkpt lat="44.740295" lon="10.0891783"><ele>273.0</ele><time>2026-03-29T10:04:31.035Z</time></trkpt><trkpt lat="44.7402533" lon="10.089075"><ele>273.0</ele><time>2026-03-29T10:04:33.035Z</time></trkpt><trkpt lat="44.740205" lon="10.088965"><ele>276.5</ele><time>2026-03-29T10:04:35.034Z</time></trkpt><trkpt lat="44.7401783" lon="10.0888767"><ele>280.0</ele><time>2026-03-29T10:04:37.034Z</time></trkpt><trkpt lat="44.7401567" lon="10.0887833"><ele>283.5</ele><time>2026-03-29T10:04:51.035Z</time></trkpt><trkpt lat="44.7401267" lon="10.0886767"><ele>287.0</ele><time>2026-03-29T10:04:54.035Z</time></trkpt><trkpt lat="44.7400933" lon="10.0885717"><ele>290.5</ele><time>2026-03-29T10:04:56.034Z</time></trkpt><trkpt lat="44.7400717" lon="10.0884733"><ele>294.0</ele><time>2026-03-29T10:04:58.035Z</time></trkpt><trkpt lat="44.7400867" lon="10.0883667"><ele>294.6666666666667</ele><time>2026-03-29T10:05:00.035Z</time></trkpt><trkpt lat="44.7401117" lon="10.0882433"><ele>295.3333333333333</ele><time>2026-03-29T10:05:02.035Z</time></trkpt><trkpt lat="44.74014" lon="10.08812"><ele>296.0</ele><time>2026-03-29T10:05:04.035Z</time></trkpt><trkpt lat="44.7401817" lon="10.0879883"><ele>296.66666666666663</ele><time>2026-03-29T10:05:06.035Z</time></trkpt><trkpt lat="44.7402083" lon="10.087895"><ele>297.3333333333333</ele><time>2026-03-29T10:05:08.035Z</time></trkpt><trkpt lat="44.740215" lon="10.0877883"><ele>298.0</ele><time>2026-03-29T10:05:11.035Z</time></trkpt><trkpt lat="44.7401583" lon="10.0877183"><ele>298.0</ele><time>2026-03-29T10:05:14.035Z</time></trkpt><trkpt lat="44.7400967" lon="10.0876967"><ele>298.0</ele><time>2026-03-29T10:05:16.034Z</time></trkpt><trkpt lat="44.740005" lon="10.0876583"><ele>298.0</ele><time>2026-03-29T10:05:18.035Z</time></trkpt><trkpt lat="44.739935" lon="10.087625"><ele>298.0</ele><time>2026-03-29T10:05:20.035Z</time></trkpt><trkpt lat="44.7398733" lon="10.0875883"><ele>298.0</ele><time>2026-03-29T10:05:22.034Z</time></trkpt><trkpt lat="44.7398167" lon="10.0875017"><ele>298.0</ele><time>2026-03-29T10:05:25.035Z</time></trkpt><trkpt lat="44.7397867" lon="10.0873833"><ele>298.4</ele><time>2026-03-29T10:05:27.035Z</time></trkpt><trkpt lat="44.73975" lon="10.0872367"><ele>298.8</ele><time>2026-03-29T10:05:29.035Z</time></trkpt><trkpt lat="44.7397217" lon="10.0870983"><ele>299.2</ele><time>2026-03-29T10:05:31.035Z</time></trkpt><trkpt lat="44.7396967" lon="10.086955"><ele>299.6</ele><time>2026-03-29T10:05:33.034Z</time></trkpt><trkpt lat="44.7396867" lon="10.08686"><ele>300.0</ele><time>2026-03-29T10:05:34.035Z</time></trkpt><trkpt lat="44.739695" lon="10.0867"><ele>299.0</ele><time>2026-03-29T10:05:36.035Z</time></trkpt><trkpt lat="44.73974" lon="10.0865317"><ele>298.0</ele><time>2026-03-29T10:05:38.035Z</time></trkpt><trkpt lat="44.73978" lon="10.0863667"><ele>297.0</ele><time>2026-03-29T10:05:40.034Z</time></trkpt><trkpt lat="44.7397967" lon="10.0862733"><ele>296.0</ele><time>2026-03-29T10:05:41.035Z</time></trkpt><trkpt lat="44.7398283" lon="10.086145"><ele>295.0</ele><time>2026-03-29T10:05:43.035Z</time></trkpt><trkpt lat="44.739855" lon="10.08604"><ele>295.0</ele><time>2026-03-29T10:05:45.035Z</time></trkpt><trkpt lat="44.73987" lon="10.085945"><ele>295.0</ele><time>2026-03-29T10:05:47.034Z</time></trkpt><trkpt lat="44.7398267" lon="10.0858367"><ele>295.0</ele><time>2026-03-29T10:05:49.034Z</time></trkpt><trkpt lat="44.739755" lon="10.08573"><ele>295.0</ele><time>2026-03-29T10:05:51.034Z</time></trkpt><trkpt lat="44.7396883" lon="10.0856167"><ele>295.0</ele><time>2026-03-29T10:05:53.033Z</time></trkpt><trkpt lat="44.739645" lon="10.085515"><ele>294.3333333333333</ele><time>2026-03-29T10:05:55.033Z</time></trkpt><trkpt lat="44.7396117" lon="10.0854183"><ele>293.66666666666663</ele><time>2026-03-29T10:05:57.034Z</time></trkpt><trkpt lat="44.7395967" lon="10.0853233"><ele>293.0</ele><time>2026-03-29T10:05:59.033Z</time></trkpt><trkpt lat="44.7395883" lon="10.085225"><ele>292.3333333333333</ele><time>2026-03-29T10:06:02.033Z</time></trkpt><trkpt lat="44.7395533" lon="10.0851"><ele>291.6666666666667</ele><time>2026-03-29T10:12:51.035Z</time></trkpt><trkpt lat="44.7395767" lon="10.084955"><ele>291.0</ele><time>2026-03-29T10:14:01.035Z</time></trkpt><trkpt lat="44.7395783" lon="10.084865"><ele>293.0</ele><time>2026-03-29T10:14:02.035Z</time></trkpt><trkpt lat="44.739585" lon="10.08477"><ele>295.0</ele><time>2026-03-29T10:14:03.035Z</time></trkpt><trkpt lat="44.7395867" lon="10.08467"><ele>297.0</ele><time>2026-03-29T10:14:04.035Z</time></trkpt><trkpt lat="44.7396067" lon="10.0845267"><ele>299.0</ele><time>2026-03-29T10:14:06.034Z</time></trkpt><trkpt lat="44.73962" lon="10.0844133"><ele>301.0</ele><time>2026-03-29T10:14:09.035Z</time></trkpt><trkpt lat="44.7395933" lon="10.0843283"><ele>303.0</ele><time>2026-03-29T10:14:42.035Z</time></trkpt><trkpt lat="44.7395367" lon="10.08427"><ele>303.0</ele><time>2026-03-29T10:14:45.034Z</time></trkpt><trkpt lat="44.73946" lon="10.08418"><ele>303.0</ele><time>2026-03-29T10:14:47.034Z</time></trkpt><trkpt lat="44.7393767" lon="10.084045"><ele>303.0</ele><time>2026-03-29T10:14:49.034Z</time></trkpt><trkpt lat="44.7393317" lon="10.0839567"><ele>303.0</ele><time>2026-03-29T10:14:50.034Z</time></trkpt><trkpt lat="44.7393" lon="10.0838617"><ele>303.0</ele><time>2026-03-29T10:14:51.034Z</time></trkpt><trkpt lat="44.7392783" lon="10.083765"><ele>305.0</ele><time>2026-03-29T10:14:52.034Z</time></trkpt><trkpt lat="44.739255" lon="10.0836667"><ele>307.0</ele><time>2026-03-29T10:14:53.035Z</time></trkpt><trkpt lat="44.7392283" lon="10.0835783"><ele>309.0</ele><time>2026-03-29T10:14:54.034Z</time></trkpt><trkpt lat="44.7391967" lon="10.083455"><ele>311.0</ele><time>2026-03-29T10:14:56.034Z</time></trkpt><trkpt lat="44.73917" lon="10.0833733"><ele>313.0</ele><time>2026-03-29T10:14:59.035Z</time></trkpt><trkpt lat="44.7391217" lon="10.0832983"><ele>315.0</ele><time>2026-03-29T10:15:03.035Z</time></trkpt><trkpt lat="44.7390683" lon="10.0833517"><ele>317.0</ele><time>2026-03-29T10:15:06.034Z</time></trkpt><trkpt lat="44.73905" lon="10.0834717"><ele>317.0</ele><time>2026-03-29T10:15:08.034Z</time></trkpt><trkpt lat="44.7390383" lon="10.0836583"><ele>317.0</ele><time>2026-03-29T10:15:10.034Z</time></trkpt><trkpt lat="44.73903" lon="10.0837467"><ele>317.0</ele><time>2026-03-29T10:15:11.035Z</time></trkpt><trkpt lat="44.7390067" lon="10.0838633"><ele>317.0</ele><time>2026-03-29T10:15:13.034Z</time></trkpt><trkpt lat="44.7389767" lon="10.0839467"><ele>317.0</ele><time>2026-03-29T10:15:15.035Z</time></trkpt><trkpt lat="44.7389033" lon="10.0839917"><ele>317.0</ele><time>2026-03-29T10:15:18.035Z</time></trkpt><trkpt lat="44.7388567" lon="10.08392"><ele>317.0</ele><time>2026-03-29T10:15:20.035Z</time></trkpt><trkpt lat="44.7388467" lon="10.0837883"><ele>317.0</ele><time>2026-03-29T10:15:22.035Z</time></trkpt><trkpt lat="44.7388367" lon="10.08362"><ele>317.0</ele><time>2026-03-29T10:15:24.034Z</time></trkpt><trkpt lat="44.7388367" lon="10.0835283"><ele>317.0</ele><time>2026-03-29T10:15:25.034Z</time></trkpt><trkpt lat="44.738835" lon="10.0834283"><ele>317.0</ele><time>2026-03-29T10:15:26.034Z</time></trkpt><trkpt lat="44.7388317" lon="10.0833233"><ele>317.0</ele><time>2026-03-29T10:15:27.035Z</time></trkpt><trkpt lat="44.738825" lon="10.0832233"><ele>317.6666666666667</ele><time>2026-03-29T10:15:28.035Z</time></trkpt><trkpt lat="44.738825" lon="10.08313"><ele>318.33333333333337</ele><time>2026-03-29T10:15:29.035Z</time></trkpt><trkpt lat="44.7388233" lon="10.0830367"><ele>319.0</ele><time>2026-03-29T10:15:30.035Z</time></trkpt><trkpt lat="44.7388233" lon="10.082945"><ele>319.6666666666667</ele><time>2026-03-29T10:15:31.035Z</time></trkpt><trkpt lat="44.73882" lon="10.082775"><ele>320.3333333333333</ele><time>2026-03-29T10:15:33.035Z</time></trkpt><trkpt lat="44.73882" lon="10.0826833"><ele>321.0</ele><time>2026-03-29T10:15:34.034Z</time></trkpt><trkpt lat="44.7388183" lon="10.0825883"><ele>321.0</ele><time>2026-03-29T10:15:35.034Z</time></trkpt><trkpt lat="44.7388217" lon="10.0824983"><ele>321.0</ele><time>2026-03-29T10:15:36.034Z</time></trkpt><trkpt lat="44.7388317" lon="10.0824067"><ele>321.0</ele><time>2026-03-29T10:15:37.034Z</time></trkpt><trkpt lat="44.73885" lon="10.082305"><ele>321.0</ele><time>2026-03-29T10:15:38.035Z</time></trkpt><trkpt lat="44.738855" lon="10.08221"><ele>321.0</ele><time>2026-03-29T10:15:39.035Z</time></trkpt><trkpt lat="44.7388667" lon="10.0820417"><ele>321.0</ele><time>2026-03-29T10:15:41.035Z</time></trkpt><trkpt lat="44.7388817" lon="10.08187"><ele>322.1428571428571</ele><time>2026-03-29T10:15:43.034Z</time></trkpt><trkpt lat="44.7388867" lon="10.081775"><ele>323.2857142857143</ele><time>2026-03-29T10:15:44.035Z</time></trkpt><trkpt lat="44.7388983" lon="10.081675"><ele>324.42857142857144</ele><time>2026-03-29T10:15:45.035Z</time></trkpt><trkpt lat="44.7389117" lon="10.0815767"><ele>325.57142857142856</ele><time>2026-03-29T10:15:46.034Z</time></trkpt><trkpt lat="44.73892" lon="10.0814767"><ele>326.7142857142857</ele><time>2026-03-29T10:15:47.035Z</time></trkpt><trkpt lat="44.7389333" lon="10.081385"><ele>327.85714285714283</ele><time>2026-03-29T10:15:48.035Z</time></trkpt><trkpt lat="44.7389467" lon="10.0812883"><ele>329.0</ele><time>2026-03-29T10:15:49.035Z</time></trkpt><trkpt lat="44.7389567" lon="10.0811917"><ele>330.6666666666667</ele><time>2026-03-29T10:15:50.035Z</time></trkpt><trkpt lat="44.7389717" lon="10.081095"><ele>332.33333333333337</ele><time>2026-03-29T10:15:51.035Z</time></trkpt><trkpt lat="44.738985" lon="10.0810033"><ele>334.0</ele><time>2026-03-29T10:15:52.034Z</time></trkpt><trkpt lat="44.739005" lon="10.0808517"><ele>335.6666666666667</ele><time>2026-03-29T10:15:54.035Z</time></trkpt><trkpt lat="44.7390267" lon="10.0807133"><ele>337.3333333333333</ele><time>2026-03-29T10:15:56.035Z</time></trkpt><trkpt lat="44.73906" lon="10.08059"><ele>339.0</ele><time>2026-03-29T10:15:58.035Z</time></trkpt><trkpt lat="44.73909" lon="10.0805033"><ele>350.0</ele><time>2026-03-29T10:16:00.035Z</time></trkpt></trkseg><trkseg><trkpt lat="44.7391233" lon="10.0804367"><ele>350.0</ele><time>2026-03-29T10:28:05.025Z</time></trkpt><trkpt lat="44.7390467" lon="10.0804583"><ele>350.0</ele><time>2026-03-29T10:31:49.024Z</time></trkpt><trkpt lat="44.73899" lon="10.0805133"><ele>350.0</ele><time>2026-03-29T10:31:55.024Z</time></trkpt><trkpt lat="44.73891" lon="10.0806333"><ele>350.0</ele><time>2026-03-29T10:32:12.025Z</time></trkpt><trkpt lat="44.7388787" lon="10.0807181"><ele>350.0</ele><time>2026-03-29T10:32:18.086Z</time></trkpt><trkpt lat="44.738869" lon="10.0806302"><ele>350.0</ele><time>2026-03-29T10:32:37.034Z</time></trkpt><trkpt lat="44.7389396" lon="10.0805916"><ele>350.0</ele><time>2026-03-29T10:33:34.038Z</time></trkpt><trkpt lat="44.7389756" lon="10.0805055"><ele>350.0</ele><time>2026-03-29T10:33:42.107Z</time></trkpt><trkpt lat="44.7390204" lon="10.0804425"><ele>350.0</ele><time>2026-03-29T10:33:48.024Z</time></trkpt><trkpt lat="44.73898" lon="10.080525"><ele>350.0</ele><time>2026-03-29T10:37:01.025Z</time></trkpt><trkpt lat="44.738925" lon="10.0805833"><ele>350.0</ele><time>2026-03-29T10:37:05.025Z</time></trkpt><trkpt lat="44.738865" lon="10.08055"><ele>350.0</ele><time>2026-03-29T10:38:41.025Z</time></trkpt><trkpt lat="44.7388433" lon="10.0804633"><ele>350.0</ele><time>2026-03-29T10:38:44.025Z</time></trkpt><trkpt lat="44.738825" lon="10.080375"><ele>350.0</ele><time>2026-03-29T10:38:46.025Z</time></trkpt><trkpt lat="44.7387867" lon="10.0802583"><ele>350.0</ele><time>2026-03-29T10:39:00.025Z</time></trkpt><trkpt lat="44.7387233" lon="10.0802017"><ele>350.0</ele><time>2026-03-29T10:39:03.024Z</time></trkpt><trkpt lat="44.7386617" lon="10.0801267"><ele>350.0</ele><time>2026-03-29T10:39:06.024Z</time></trkpt><trkpt lat="44.7386267" lon="10.0800167"><ele>350.0</ele><time>2026-03-29T10:39:09.025Z</time></trkpt><trkpt lat="44.738595" lon="10.0799067"><ele>350.0</ele><time>2026-03-29T10:39:12.025Z</time></trkpt><trkpt lat="44.738555" lon="10.079795"><ele>351.83333333333337</ele><time>2026-03-29T10:39:15.025Z</time></trkpt><trkpt lat="44.738555" lon="10.0796983"><ele>353.6666666666667</ele><time>2026-03-29T10:39:17.024Z</time></trkpt><trkpt lat="44.7385617" lon="10.0795967"><ele>355.5</ele><time>2026-03-29T10:39:19.025Z</time></trkpt><trkpt lat="44.73857" lon="10.0794917"><ele>357.3333333333333</ele><time>2026-03-29T10:39:21.025Z</time></trkpt><trkpt lat="44.73859" lon="10.0793617"><ele>359.16666666666663</ele><time>2026-03-29T10:39:23.025Z</time></trkpt><trkpt lat="44.7386067" lon="10.0792317"><ele>361.0</ele><time>2026-03-29T10:39:25.025Z</time></trkpt><trkpt lat="44.7386233" lon="10.0791367"><ele>362.8333333333333</ele><time>2026-03-29T10:39:27.025Z</time></trkpt><trkpt lat="44.7386433" lon="10.0790217"><ele>364.66666666666663</ele><time>2026-03-29T10:39:30.025Z</time></trkpt><trkpt lat="44.73868" lon="10.0789367"><ele>366.5</ele><time>2026-03-29T10:39:34.025Z</time></trkpt><trkpt lat="44.73872" lon="10.0788617"><ele>368.3333333333333</ele><time>2026-03-29T10:39:55.025Z</time></trkpt><trkpt lat="44.738775" lon="10.0787933"><ele>370.1666666666667</ele><time>2026-03-29T10:39:58.025Z</time></trkpt><trkpt lat="44.7388317" lon="10.0787333"><ele>372.0</ele><time>2026-03-29T10:40:01.025Z</time></trkpt><trkpt lat="44.7389133" lon="10.0786783"><ele>372.00000000000006</ele><time>2026-03-29T10:40:04.025Z</time></trkpt><trkpt lat="44.73898" lon="10.0786317"><ele>372.0</ele><time>2026-03-29T10:40:06.025Z</time></trkpt><trkpt lat="44.7390433" lon="10.078585"><ele>372.0</ele><time>2026-03-29T10:40:08.024Z</time></trkpt><trkpt lat="44.7391133" lon="10.0785283"><ele>372.0</ele><time>2026-03-29T10:40:11.024Z</time></trkpt><trkpt lat="44.7391733" lon="10.0784833"><ele>372.0</ele><time>2026-03-29T10:40:15.025Z</time></trkpt><trkpt lat="44.7392383" lon="10.0784083"><ele>372.00000000000006</ele><time>2026-03-29T10:40:32.024Z</time></trkpt><trkpt lat="44.7393017" lon="10.0783717"><ele>372.0</ele><time>2026-03-29T10:40:35.025Z</time></trkpt><trkpt lat="44.7393683" lon="10.0783317"><ele>371.8333333333333</ele><time>2026-03-29T10:40:38.025Z</time></trkpt><trkpt lat="44.7394267" lon="10.0782483"><ele>371.6666666666667</ele><time>2026-03-29T10:40:41.025Z</time></trkpt><trkpt lat="44.739455" lon="10.0781417"><ele>371.5</ele><time>2026-03-29T10:40:44.024Z</time></trkpt><trkpt lat="44.739475" lon="10.078025"><ele>371.33333333333337</ele><time>2026-03-29T10:40:46.025Z</time></trkpt><trkpt lat="44.7394833" lon="10.0779167"><ele>371.1666666666667</ele><time>2026-03-29T10:40:48.024Z</time></trkpt><trkpt lat="44.7394883" lon="10.077805"><ele>371.0</ele><time>2026-03-29T10:40:50.025Z</time></trkpt><trkpt lat="44.739495" lon="10.0776983"><ele>371.0</ele><time>2026-03-29T10:40:52.024Z</time></trkpt><trkpt lat="44.73951" lon="10.0775933"><ele>371.0</ele><time>2026-03-29T10:40:54.025Z</time></trkpt><trkpt lat="44.7395167" lon="10.0774833"><ele>371.0</ele><time>2026-03-29T10:40:56.025Z</time></trkpt><trkpt lat="44.739525" lon="10.0773817"><ele>371.0</ele><time>2026-03-29T10:40:58.024Z</time></trkpt><trkpt lat="44.739525" lon="10.0772833"><ele>371.0</ele><time>2026-03-29T10:41:00.024Z</time></trkpt><trkpt lat="44.73952" lon="10.07718"><ele>371.0</ele><time>2026-03-29T10:41:02.024Z</time></trkpt><trkpt lat="44.7395167" lon="10.0770817"><ele>371.0</ele><time>2026-03-29T10:41:04.024Z</time></trkpt><trkpt lat="44.739505" lon="10.0769583"><ele>372.5</ele><time>2026-03-29T10:41:07.025Z</time></trkpt><trkpt lat="44.7394883" lon="10.0768433"><ele>374.0</ele><time>2026-03-29T10:41:10.025Z</time></trkpt><trkpt lat="44.73946" lon="10.07672"><ele>375.5</ele><time>2026-03-29T10:41:13.025Z</time></trkpt><trkpt lat="44.7394483" lon="10.076605"><ele>377.0</ele><time>2026-03-29T10:41:16.025Z</time></trkpt><trkpt lat="44.7394433" lon="10.0764817"><ele>378.5</ele><time>2026-03-29T10:41:19.024Z</time></trkpt><trkpt lat="44.739435" lon="10.0763783"><ele>380.0</ele><time>2026-03-29T10:41:22.025Z</time></trkpt><trkpt lat="44.73938" lon="10.0762983"><ele>382.0</ele><time>2026-03-29T10:42:23.025Z</time></trkpt><trkpt lat="44.7394433" lon="10.076265"><ele>384.0</ele><time>2026-03-29T10:46:28.025Z</time></trkpt><trkpt lat="44.7394617" lon="10.07617"><ele>386.0</ele><time>2026-03-29T10:46:30.025Z</time></trkpt><trkpt lat="44.7394883" lon="10.076075"><ele>388.0</ele><time>2026-03-29T10:46:32.025Z</time></trkpt><trkpt lat="44.7395233" lon="10.075955"><ele>390.0</ele><time>2026-03-29T10:46:35.025Z</time></trkpt><trkpt lat="44.739555" lon="10.0758667"><ele>392.0</ele><time>2026-03-29T10:46:38.025Z</time></trkpt><trkpt lat="44.7395867" lon="10.0757683"><ele>394.0</ele><time>2026-03-29T10:46:41.025Z</time></trkpt><trkpt lat="44.7395967" lon="10.0756467"><ele>396.50000000000006</ele><time>2026-03-29T10:46:57.024Z</time></trkpt><trkpt lat="44.7395867" lon="10.0755483"><ele>399.0</ele><time>2026-03-29T10:47:00.025Z</time></trkpt><trkpt lat="44.7395833" lon="10.0754583"><ele>401.5</ele><time>2026-03-29T10:47:02.025Z</time></trkpt><trkpt lat="44.7395817" lon="10.07534"><ele>404.0</ele><time>2026-03-29T10:47:05.025Z</time></trkpt><trkpt lat="44.7395617" lon="10.0752133"><ele>406.50000000000006</ele><time>2026-03-29T10:47:08.024Z</time></trkpt><trkpt lat="44.7395333" lon="10.075105"><ele>409.0</ele><time>2026-03-29T10:47:11.024Z</time></trkpt><trkpt lat="44.73949" lon="10.0750067"><ele>408.6666666666667</ele><time>2026-03-29T10:47:14.025Z</time></trkpt><trkpt lat="44.7394467" lon="10.0749283"><ele>408.33333333333337</ele><time>2026-03-29T10:47:16.025Z</time></trkpt><trkpt lat="44.739395" lon="10.0748283"><ele>408.0</ele><time>2026-03-29T10:47:18.025Z</time></trkpt><trkpt lat="44.7393483" lon="10.0747517"><ele>407.66666666666663</ele><time>2026-03-29T10:47:20.025Z</time></trkpt><trkpt lat="44.7393067" lon="10.074675"><ele>407.3333333333333</ele><time>2026-03-29T10:47:22.024Z</time></trkpt><trkpt lat="44.7392633" lon="10.0745917"><ele>407.0</ele><time>2026-03-29T10:47:24.025Z</time></trkpt><trkpt lat="44.7392167" lon="10.0745"><ele>406.99999999999994</ele><time>2026-03-29T10:47:26.025Z</time></trkpt><trkpt lat="44.7391533" lon="10.0744133"><ele>407.0</ele><time>2026-03-29T10:47:29.025Z</time></trkpt><trkpt lat="44.7390967" lon="10.0743667"><ele>407.0</ele><time>2026-03-29T10:47:31.025Z</time></trkpt><trkpt lat="44.7390333" lon="10.074285"><ele>407.0</ele><time>2026-03-29T10:47:34.024Z</time></trkpt><trkpt lat="44.7389733" lon="10.0742167"><ele>406.99999999999994</ele><time>2026-03-29T10:47:36.025Z</time></trkpt><trkpt lat="44.738935" lon="10.07413"><ele>407.0</ele><time>2026-03-29T10:47:38.025Z</time></trkpt><trkpt lat="44.73892" lon="10.0740267"><ele>408.16666666666663</ele><time>2026-03-29T10:47:40.025Z</time></trkpt><trkpt lat="44.7389267" lon="10.0739283"><ele>409.3333333333333</ele><time>2026-03-29T10:47:42.025Z</time></trkpt><trkpt lat="44.7389283" lon="10.0738383"><ele>410.5</ele><time>2026-03-29T10:47:44.024Z</time></trkpt><trkpt lat="44.7389333" lon="10.0737067"><ele>411.66666666666663</ele><time>2026-03-29T10:47:47.025Z</time></trkpt><trkpt lat="44.7389417" lon="10.0735833"><ele>412.8333333333333</ele><time>2026-03-29T10:47:50.025Z</time></trkpt><trkpt lat="44.7389417" lon="10.0734817"><ele>414.0</ele><time>2026-03-29T10:47:52.025Z</time></trkpt><trkpt lat="44.7389317" lon="10.0733783"><ele>414.0</ele><time>2026-03-29T10:47:55.025Z</time></trkpt><trkpt lat="44.73893" lon="10.0732817"><ele>414.0</ele><time>2026-03-29T10:47:58.025Z</time></trkpt><trkpt lat="44.7389133" lon="10.07318"><ele>414.0</ele><time>2026-03-29T10:48:01.025Z</time></trkpt><trkpt lat="44.7388983" lon="10.0730633"><ele>414.0</ele><time>2026-03-29T10:48:04.025Z</time></trkpt><trkpt lat="44.7389033" lon="10.07294"><ele>414.0</ele><time>2026-03-29T10:48:07.025Z</time></trkpt><trkpt lat="44.7388983" lon="10.0728267"><ele>414.0</ele><time>2026-03-29T10:48:10.025Z</time></trkpt><trkpt lat="44.738885" lon="10.072735"><ele>415.6666666666667</ele><time>2026-03-29T10:48:12.025Z</time></trkpt><trkpt lat="44.7388217" lon="10.0726383"><ele>417.33333333333337</ele><time>2026-03-29T10:48:15.024Z</time></trkpt><trkpt lat="44.7387633" lon="10.0725967"><ele>419.0</ele><time>2026-03-29T10:48:17.025Z</time></trkpt><trkpt lat="44.7386967" lon="10.07254"><ele>420.6666666666667</ele><time>2026-03-29T10:48:19.024Z</time></trkpt><trkpt lat="44.7386267" lon="10.0724817"><ele>422.33333333333337</ele><time>2026-03-29T10:48:21.025Z</time></trkpt><trkpt lat="44.7385633" lon="10.07243"><ele>424.0</ele><time>2026-03-29T10:48:23.025Z</time></trkpt><trkpt lat="44.7384967" lon="10.0723633"><ele>424.33333333333337</ele><time>2026-03-29T10:48:25.025Z</time></trkpt><trkpt lat="44.73842" lon="10.0723233"><ele>424.6666666666667</ele><time>2026-03-29T10:48:28.025Z</time></trkpt><trkpt lat="44.73834" lon="10.072295"><ele>425.0</ele><time>2026-03-29T10:48:30.025Z</time></trkpt><trkpt lat="44.7382867" lon="10.0722333"><ele>425.33333333333337</ele><time>2026-03-29T10:48:32.025Z</time></trkpt><trkpt lat="44.7382067" lon="10.072165"><ele>425.6666666666667</ele><time>2026-03-29T10:48:35.024Z</time></trkpt><trkpt lat="44.7381367" lon="10.0721283"><ele>426.0</ele><time>2026-03-29T10:48:37.025Z</time></trkpt><trkpt lat="44.73803" lon="10.072095"><ele>426.0</ele><time>2026-03-29T10:48:40.025Z</time></trkpt><trkpt lat="44.7379633" lon="10.072065"><ele>426.0</ele><time>2026-03-29T10:48:42.025Z</time></trkpt><trkpt lat="44.7378967" lon="10.0720083"><ele>426.0</ele><time>2026-03-29T10:48:44.025Z</time></trkpt><trkpt lat="44.7378133" lon="10.0719583"><ele>426.0</ele><time>2026-03-29T10:48:46.025Z</time></trkpt><trkpt lat="44.7377217" lon="10.0719117"><ele>426.0</ele><time>2026-03-29T10:48:48.024Z</time></trkpt><trkpt lat="44.737625" lon="10.0718433"><ele>426.0</ele><time>2026-03-29T10:48:50.024Z</time></trkpt><trkpt lat="44.7375483" lon="10.0717667"><ele>425.2857142857143</ele><time>2026-03-29T10:48:52.025Z</time></trkpt><trkpt lat="44.7375083" lon="10.071675"><ele>424.57142857142856</ele><time>2026-03-29T10:48:54.024Z</time></trkpt><trkpt lat="44.7374817" lon="10.07159"><ele>423.8571428571429</ele><time>2026-03-29T10:48:56.025Z</time></trkpt><trkpt lat="44.7374883" lon="10.0714917"><ele>423.1428571428571</ele><time>2026-03-29T10:48:58.025Z</time></trkpt><trkpt lat="44.7375533" lon="10.0714133"><ele>422.42857142857144</ele><time>2026-03-29T10:49:01.025Z</time></trkpt><trkpt lat="44.7376233" lon="10.071385"><ele>421.7142857142857</ele><time>2026-03-29T10:49:03.024Z</time></trkpt><trkpt lat="44.7376917" lon="10.0713583"><ele>421.0</ele><time>2026-03-29T10:49:05.025Z</time></trkpt><trkpt lat="44.7377583" lon="10.0713117"><ele>420.8</ele><time>2026-03-29T10:49:07.025Z</time></trkpt><trkpt lat="44.7378383" lon="10.071255"><ele>420.6</ele><time>2026-03-29T10:49:09.024Z</time></trkpt><trkpt lat="44.73791" lon="10.07119"><ele>420.4</ele><time>2026-03-29T10:49:11.025Z</time></trkpt><trkpt lat="44.7379767" lon="10.0711033"><ele>420.2</ele><time>2026-03-29T10:49:13.025Z</time></trkpt><trkpt lat="44.738035" lon="10.0710017"><ele>420.0</ele><time>2026-03-29T10:49:15.025Z</time></trkpt><trkpt lat="44.73808" lon="10.0708767"><ele>416.8333333333333</ele><time>2026-03-29T10:49:17.024Z</time></trkpt><trkpt lat="44.7381067" lon="10.0707667"><ele>413.66666666666663</ele><time>2026-03-29T10:49:19.025Z</time></trkpt><trkpt lat="44.7381333" lon="10.0706683"><ele>410.5</ele><time>2026-03-29T10:49:21.025Z</time></trkpt><trkpt lat="44.738185" lon="10.0706"><ele>407.3333333333333</ele><time>2026-03-29T10:49:23.025Z</time></trkpt><trkpt lat="44.7382767" lon="10.0705733"><ele>404.16666666666663</ele><time>2026-03-29T10:49:25.025Z</time></trkpt><trkpt lat="44.7383667" lon="10.07056"><ele>401.0</ele><time>2026-03-29T10:49:27.025Z</time></trkpt><trkpt lat="44.73845" lon="10.070525"><ele>400.99999999999994</ele><time>2026-03-29T10:49:29.025Z</time></trkpt><trkpt lat="44.73853" lon="10.0704633"><ele>401.0</ele><time>2026-03-29T10:49:31.025Z</time></trkpt><trkpt lat="44.738605" lon="10.0703633"><ele>401.0</ele><time>2026-03-29T10:49:33.024Z</time></trkpt><trkpt lat="44.738675" lon="10.0702283"><ele>401.0</ele><time>2026-03-29T10:49:35.024Z</time></trkpt><trkpt lat="44.7387067" lon="10.0701417"><ele>400.99999999999994</ele><time>2026-03-29T10:49:36.025Z</time></trkpt><trkpt lat="44.7387367" lon="10.0700617"><ele>401.0</ele><time>2026-03-29T10:49:37.025Z</time></trkpt><trkpt lat="44.7387717" lon="10.069985"><ele>399.3333333333333</ele><time>2026-03-29T10:49:38.025Z</time></trkpt><trkpt lat="44.7388117" lon="10.0699083"><ele>397.66666666666663</ele><time>2026-03-29T10:49:39.025Z</time></trkpt><trkpt lat="44.7388517" lon="10.069835"><ele>396.0</ele><time>2026-03-29T10:49:40.025Z</time></trkpt><trkpt lat="44.7389167" lon="10.069705"><ele>394.33333333333337</ele><time>2026-03-29T10:49:42.025Z</time></trkpt><trkpt lat="44.738965" lon="10.06962"><ele>392.6666666666667</ele><time>2026-03-29T10:49:44.024Z</time></trkpt><trkpt lat="44.7390583" lon="10.0695667"><ele>391.0</ele><time>2026-03-29T10:49:47.024Z</time></trkpt><trkpt lat="44.7391217" lon="10.0695733"><ele>391.00000000000006</ele><time>2026-03-29T10:49:49.024Z</time></trkpt><trkpt lat="44.7391817" lon="10.0696017"><ele>391.0</ele><time>2026-03-29T10:49:51.024Z</time></trkpt><trkpt lat="44.7392383" lon="10.0696617"><ele>391.0</ele><time>2026-03-29T10:49:53.023Z</time></trkpt><trkpt lat="44.7392967" lon="10.069715"><ele>391.0</ele><time>2026-03-29T10:49:55.023Z</time></trkpt><trkpt lat="44.7393583" lon="10.0697767"><ele>391.00000000000006</ele><time>2026-03-29T10:49:57.023Z</time></trkpt><trkpt lat="44.7394283" lon="10.0698467"><ele>391.0</ele><time>2026-03-29T10:49:59.023Z</time></trkpt><trkpt lat="44.7394933" lon="10.069925"><ele>393.00000000000006</ele><time>2026-03-29T10:50:01.023Z</time></trkpt><trkpt lat="44.7395567" lon="10.070005"><ele>395.0</ele><time>2026-03-29T10:50:03.024Z</time></trkpt><trkpt lat="44.739615" lon="10.07007"><ele>397.0</ele><time>2026-03-29T10:50:05.023Z</time></trkpt><trkpt lat="44.7396767" lon="10.0701233"><ele>399.0</ele><time>2026-03-29T10:50:07.023Z</time></trkpt><trkpt lat="44.7397383" lon="10.0701517"><ele>401.00000000000006</ele><time>2026-03-29T10:50:09.023Z</time></trkpt><trkpt lat="44.7398167" lon="10.070085"><ele>403.0</ele><time>2026-03-29T10:50:11.024Z</time></trkpt><trkpt lat="44.7398867" lon="10.06998"><ele>401.2857142857143</ele><time>2026-03-29T10:50:13.023Z</time></trkpt><trkpt lat="44.7399567" lon="10.0698883"><ele>399.57142857142856</ele><time>2026-03-29T10:50:15.024Z</time></trkpt><trkpt lat="44.7400267" lon="10.069835"><ele>397.85714285714283</ele><time>2026-03-29T10:50:17.023Z</time></trkpt><trkpt lat="44.74009" lon="10.0698217"><ele>396.1428571428571</ele><time>2026-03-29T10:50:19.024Z</time></trkpt><trkpt lat="44.7401583" lon="10.069835"><ele>394.42857142857144</ele><time>2026-03-29T10:50:21.024Z</time></trkpt><trkpt lat="44.7402183" lon="10.0698733"><ele>392.71428571428567</ele><time>2026-03-29T10:50:23.024Z</time></trkpt><trkpt lat="44.7402733" lon="10.0699317"><ele>391.0</ele><time>2026-03-29T10:50:25.024Z</time></trkpt><trkpt lat="44.7403267" lon="10.0700033"><ele>389.0</ele><time>2026-03-29T10:50:27.024Z</time></trkpt><trkpt lat="44.7403817" lon="10.070135"><ele>387.0</ele><time>2026-03-29T10:50:29.024Z</time></trkpt><trkpt lat="44.74041" lon="10.0702217"><ele>385.0</ele><time>2026-03-29T10:50:30.024Z</time></trkpt><trkpt lat="44.740435" lon="10.070305"><ele>383.0</ele><time>2026-03-29T10:50:31.024Z</time></trkpt><trkpt lat="44.740485" lon="10.07046"><ele>381.0</ele><time>2026-03-29T10:50:33.024Z</time></trkpt><trkpt lat="44.7405483" lon="10.0705867"><ele>381.0</ele><time>2026-03-29T10:50:35.023Z</time></trkpt><trkpt lat="44.74061" lon="10.0706883"><ele>381.0</ele><time>2026-03-29T10:50:37.023Z</time></trkpt><trkpt lat="44.74068" lon="10.0707433"><ele>381.0</ele><time>2026-03-29T10:50:39.024Z</time></trkpt><trkpt lat="44.7425983" lon="10.0733417"><ele>379.0</ele><time>2026-03-29T10:51:26.024Z</time></trkpt><trkpt lat="44.7426433" lon="10.0734167"><ele>377.0</ele><time>2026-03-29T10:51:27.024Z</time></trkpt><trkpt lat="44.7426917" lon="10.0734933"><ele>375.0</ele><time>2026-03-29T10:51:28.023Z</time></trkpt><trkpt lat="44.742745" lon="10.07356"><ele>373.0</ele><time>2026-03-29T10:51:29.024Z</time></trkpt><trkpt lat="44.7427867" lon="10.0736317"><ele>371.0</ele><time>2026-03-29T10:51:30.024Z</time></trkpt><trkpt lat="44.7428467" lon="10.0737517"><ele>369.0</ele><time>2026-03-29T10:51:32.024Z</time></trkpt><trkpt lat="44.7429167" lon="10.0738583"><ele>366.75</ele><time>2026-03-29T10:51:34.024Z</time></trkpt><trkpt lat="44.743005" lon="10.0739617"><ele>364.5</ele><time>2026-03-29T10:51:36.024Z</time></trkpt><trkpt lat="44.7431217" lon="10.0740417"><ele>362.25</ele><time>2026-03-29T10:51:38.024Z</time></trkpt><trkpt lat="44.7432617" lon="10.07405"><ele>360.0</ele><time>2026-03-29T10:51:40.023Z</time></trkpt><trkpt lat="44.7433417" lon="10.0740233"><ele>360.0</ele><time>2026-03-29T10:51:41.023Z</time></trkpt><trkpt lat="44.743425" lon="10.0739833"><ele>360.0</ele><time>2026-03-29T10:51:43.023Z</time></trkpt><trkpt lat="44.743545" lon="10.0739583"><ele>360.0</ele><time>2026-03-29T10:51:45.024Z</time></trkpt><trkpt lat="44.743655" lon="10.07393"><ele>360.0</ele><time>2026-03-29T10:51:47.024Z</time></trkpt><trkpt lat="44.7437183" lon="10.07393"><ele>360.0</ele><time>2026-03-29T10:51:48.023Z</time></trkpt><trkpt lat="44.743835" lon="10.0739417"><ele>360.2</ele><time>2026-03-29T10:51:50.024Z</time></trkpt><trkpt lat="44.7439583" lon="10.0739683"><ele>360.4</ele><time>2026-03-29T10:51:52.024Z</time></trkpt><trkpt lat="44.7440267" lon="10.073985"><ele>360.6</ele><time>2026-03-29T10:51:53.023Z</time></trkpt><trkpt lat="44.7441467" lon="10.0739933"><ele>360.8</ele><time>2026-03-29T10:51:55.024Z</time></trkpt><trkpt lat="44.7442617" lon="10.0739183"><ele>361.0</ele><time>2026-03-29T10:51:57.024Z</time></trkpt><trkpt lat="44.7443567" lon="10.0738317"><ele>363.0</ele><time>2026-03-29T10:51:59.024Z</time></trkpt><trkpt lat="44.7445083" lon="10.0737"><ele>365.0</ele><time>2026-03-29T10:52:03.024Z</time></trkpt><trkpt lat="44.744565" lon="10.0736567"><ele>367.0</ele><time>2026-03-29T10:52:05.023Z</time></trkpt><trkpt lat="44.7446583" lon="10.07366"><ele>369.0</ele><time>2026-03-29T10:52:08.024Z</time></trkpt><trkpt lat="44.7447733" lon="10.0737183"><ele>369.0</ele><time>2026-03-29T10:52:10.023Z</time></trkpt><trkpt lat="44.74483" lon="10.0737683"><ele>369.0</ele><time>2026-03-29T10:52:11.023Z</time></trkpt><trkpt lat="44.74489" lon="10.0738033"><ele>369.0</ele><time>2026-03-29T10:52:12.024Z</time></trkpt><trkpt lat="44.7449617" lon="10.0738467"><ele>369.0</ele><time>2026-03-29T10:52:13.024Z</time></trkpt><trkpt lat="44.7450433" lon="10.0738883"><ele>369.0</ele><time>2026-03-29T10:52:14.023Z</time></trkpt><trkpt lat="44.74511" lon="10.0739317"><ele>369.0</ele><time>2026-03-29T10:52:15.024Z</time></trkpt><trkpt lat="44.7451783" lon="10.0739517"><ele>369.0</ele><time>2026-03-29T10:52:16.024Z</time></trkpt><trkpt lat="44.7452583" lon="10.0739683"><ele>378.0</ele><time>2026-03-29T10:52:17.024Z</time></trkpt><trkpt lat="44.7453533" lon="10.0739933"><ele>378.0</ele><time>2026-03-29T10:52:18.024Z</time></trkpt><trkpt lat="44.74542" lon="10.0739983"><ele>378.0</ele><time>2026-03-29T10:52:19.023Z</time></trkpt><trkpt lat="44.745535" lon="10.0740383"><ele>378.0</ele><time>2026-03-29T10:52:21.024Z</time></trkpt></trkseg><trkseg><trkpt lat="44.8204483" lon="10.31417"><ele>49.0</ele><time>2026-03-30T14:42:47.022Z</time></trkpt><trkpt lat="44.820595" lon="10.31415"><ele>49.0</ele><time>2026-03-30T14:42:49.023Z</time></trkpt><trkpt lat="44.820675" lon="10.3141483"><ele>49.0</ele><time>2026-03-30T14:42:50.022Z</time></trkpt></trkseg></trk></gpx>